[[{"header":{"parameterUnit":"m.s-1","parameterCategory":1,"la1":30.6,"la2":29.2853,"lo1":-89.7004,"lo2":-87.6739,"dy":0.0162,"dx":0.0183,"nx":112,"ny":82,"refTime":"2023-09-16T00:00:00:Z","depth":0,"parameterNumber":2,"parameterNumberName":"U-component_of_WINDS"},"data":[0.0,0.0,0.0,0.0,0.0,0.0,0.0,0.0,0.0,0.0,0.0,0.0,0.0,0.0,0.0,0.0,0.0,0.0,0.0,0.0,0.0,0.0,0.0,0.0,0.0,0.0,0.0,0.0,0.0,0.0,0.0,0.0,0.0,0.0,0.0,0.0,0.0,0.0,0.0,0.0,0.0,0.0,0.0,0.0,0.0,0.0,0.0,0.0,0.0,0.0,0.0,0.0,0.0,0.0,0.0,0.0,0.0,0.0,0.0,0.0,0.0,0.0,0.0,0.0,0.0,0.0,0.0,0.0,0.0,0.0,0.0,0.0,0.0,0.0,0.0,0.0,0.0,0.0,0.0,0.0,0.0,0.0,0.0,0.0,0.0,0.0,0.0,0.0,0.0,0.0,1.5432,1.5475,1.5527,1.5612,1.5786,1.6086,1.6446,1.6906,0.0,0.0,0.0,0.0,0.0,0.0,0.0,0.0,0.0,0.0,0.0,0.0,0.0,0.0,0.0,0.0,0.0,0.0,0.0,0.0,0.0,0.0,0.0,0.0,0.0,0.0,0.0,0.0,0.0,0.0,0.0,0.0,0.0,0.0,0.0,0.0,0.0,0.0,0.0,0.0,0.0,0.0,0.0,0.0,0.0,0.0,0.0,0.0,0.0,0.0,0.0,0.0,0.0,0.0,0.0,0.0,0.0,0.0,0.0,0.0,0.0,0.0,0.0,0.0,0.0,0.0,0.0,0.0,0.0,0.0,0.0,0.0,0.0,0.0,0.0,0.0,0.0,0.0,0.0,0.0,0.0,0.0,0.0,0.0,0.0,0.0,0.0,0.0,0.0,0.0,0.0,0.0,0.0,0.0,0.0,0.0,0.0,0.0,0.0,0.0,0.0,0.0,0.0,0.0,1.5512,1.579,1.6074,1.6265,1.6286,1.6701,1.6985,1.7053,0.0,0.0,0.0,0.0,0.0,0.0,0.0,0.0,0.0,0.0,0.0,0.0,0.0,0.0,0.0,0.0,0.0,0.0,0.0,0.0,0.0,0.0,0.0,0.0,0.0,0.0,0.0,0.0,0.0,0.0,0.0,0.0,0.0,0.0,0.0,0.0,0.0,0.0,0.0,0.0,0.0,0.0,0.0,0.0,0.0,0.0,0.0,0.0,0.0,0.0,0.0,0.0,0.0,0.0,0.0,0.0,0.0,0.0,0.0,0.0,0.0,0.0,0.0,0.0,0.0,0.0,0.0,0.0,0.0,0.0,0.0,0.0,0.0,0.0,0.0,0.0,0.0,0.0,0.0,0.0,0.0,0.0,0.0,0.0,0.0,0.0,0.0,0.0,0.0,0.0,0.0,0.0,0.0,0.0,0.0,0.0,0.0,0.0,0.0,0.0,0.0,0.0,0.0,1.584,1.5994,1.6148,1.6309,1.6161,1.557,1.6139,1.6529,1.6549,1.6642,0.0,0.0,0.0,0.0,0.0,0.0,0.0,0.0,0.0,0.0,0.0,0.0,0.0,0.0,0.0,0.0,0.0,0.0,0.0,0.0,0.0,0.0,0.0,0.0,0.0,0.0,0.0,0.0,0.0,0.0,0.0,0.0,0.0,0.0,0.0,0.0,0.0,0.0,0.0,0.0,0.0,0.0,0.0,0.0,0.0,0.0,0.0,0.0,0.0,0.0,0.0,0.0,0.0,0.0,0.0,0.0,0.0,0.0,0.0,0.0,0.0,0.0,0.0,0.0,0.0,0.0,0.0,0.0,0.0,0.0,0.0,0.0,0.0,0.0,0.0,0.0,0.0,0.0,0.0,0.0,0.0,0.0,0.0,0.0,0.0,0.0,0.0,0.0,0.0,0.0,0.0,0.0,0.0,0.0,0.0,0.0,0.0,0.0,0.0,0.0,0.0,0.0,1.5883,1.589,1.6113,1.5998,1.556,1.4754,1.5296,1.5829,1.6183,1.656,0.0,0.0,0.0,0.0,0.0,0.0,0.0,0.0,0.0,0.0,0.0,0.0,0.0,0.0,0.0,0.0,0.0,0.0,0.0,0.0,0.0,0.0,0.0,0.0,0.0,0.0,0.0,0.0,0.0,0.0,0.0,0.0,0.0,0.0,0.0,0.0,0.0,0.0,0.0,0.0,0.0,0.0,0.0,0.0,0.0,0.0,0.0,0.0,0.0,0.0,0.0,0.0,0.0,0.0,0.0,0.0,0.0,0.0,0.0,0.0,0.0,0.0,0.0,0.0,0.0,0.0,0.0,0.0,0.0,0.0,0.0,0.0,0.0,0.0,0.0,0.0,0.0,0.0,0.0,0.0,0.0,0.0,0.0,0.0,0.0,0.0,0.0,0.0,0.0,0.0,0.0,0.0,0.0,0.0,0.0,0.0,0.0,0.0,0.0,0.0,0.0,0.0,1.4962,1.4349,1.5278,1.4816,1.4428,1.4327,1.4571,1.5242,1.6495,1.6762,0.0,0.0,0.0,0.0,0.0,0.0,0.0,0.0,0.0,0.0,0.0,0.0,0.0,0.0,0.0,0.0,0.0,0.0,0.0,0.0,0.0,0.0,0.0,0.0,0.0,0.0,0.0,0.0,0.0,0.0,0.0,0.0,0.0,0.0,0.0,0.0,0.0,0.0,0.0,0.0,0.0,0.0,0.0,0.0,0.0,0.0,0.0,0.0,0.0,0.0,0.0,0.0,0.0,0.0,0.0,0.0,0.0,0.0,0.0,0.0,0.0,0.0,0.0,0.0,0.0,0.0,0.0,0.0,0.0,0.0,0.0,0.0,0.0,0.0,0.0,0.0,0.0,0.0,0.0,0.0,0.0,0.0,0.0,0.0,0.0,0.0,0.0,0.0,0.0,0.0,0.0,0.0,0.0,0.0,0.0,0.0,0.0,0.0,0.0,0.0,0.0,0.0,1.4771,1.4259,1.4637,1.4446,1.4028,1.3355,1.3674,1.4196,1.4877,0.0,0.0,0.0,0.0,0.0,0.0,0.0,0.0,0.0,0.0,0.0,0.0,0.0,0.0,0.0,0.0,0.0,0.0,0.0,0.0,0.0,0.0,0.0,0.0,0.0,0.0,0.0,0.0,0.0,0.0,0.0,0.0,0.0,0.0,0.0,0.0,0.0,0.0,0.0,0.0,0.0,0.0,0.0,0.0,0.0,0.0,0.0,0.0,0.0,0.0,0.0,0.0,0.0,0.0,0.0,0.0,0.0,0.0,0.0,0.0,0.0,0.0,0.0,0.0,0.0,0.0,0.0,0.0,0.0,0.0,0.0,0.0,0.0,0.0,0.0,0.0,0.0,0.0,0.0,0.0,0.0,0.0,0.0,0.0,0.0,0.0,0.0,0.0,0.0,0.0,0.0,0.0,0.0,0.0,0.0,0.0,0.0,0.0,0.0,0.0,0.0,0.0,1.5408,1.4201,1.3427,1.3764,1.3499,1.3022,1.2301,1.2568,1.3095,1.3854,0.0,0.0,0.0,0.0,0.0,0.0,0.0,0.0,0.0,0.0,0.0,0.0,0.0,0.0,0.0,0.0,0.0,0.0,0.0,0.0,0.0,0.0,0.0,0.0,0.0,0.0,0.0,0.0,0.0,0.0,0.0,0.0,0.0,0.0,0.0,0.0,0.0,0.0,0.0,0.0,0.0,0.0,0.0,0.0,0.0,0.0,0.0,0.0,0.0,0.0,0.0,0.0,0.0,0.0,0.0,0.0,0.0,0.0,0.0,0.0,0.0,0.0,0.0,0.0,0.0,0.0,0.0,0.0,0.0,0.0,0.0,0.0,0.0,0.0,0.0,0.0,0.0,0.0,0.0,0.0,0.0,0.0,0.0,0.0,0.0,0.0,0.0,0.0,0.0,0.0,0.0,0.0,0.0,0.0,0.0,0.0,0.0,0.0,0.0,0.0,0.0,0.0,1.5593,1.3089,1.158,1.2587,1.1795,1.1194,1.1194,1.1194,1.196,0.0,0.0,0.0,0.0,0.0,0.0,0.0,0.0,0.0,0.0,0.0,0.0,0.0,0.0,0.0,0.0,0.0,0.0,0.0,0.0,0.0,0.0,0.0,0.0,0.0,0.0,0.0,0.0,0.0,0.0,0.0,0.0,0.0,0.0,0.0,0.0,0.0,0.0,0.0,0.0,0.0,0.0,0.0,0.0,0.0,0.0,0.0,0.0,0.0,0.0,0.0,0.0,0.0,0.0,0.0,0.0,0.0,0.0,0.0,0.0,0.0,0.0,0.0,0.0,0.0,0.0,0.0,0.0,0.0,0.0,0.0,0.0,0.0,0.0,0.0,0.0,0.0,0.0,0.0,0.0,0.0,0.0,0.0,0.0,0.0,0.0,0.0,0.0,0.0,0.0,0.0,0.0,0.0,0.0,0.0,0.0,0.0,0.0,0.0,0.0,0.0,0.0,0.0,1.341,1.2082,1.1316,1.1604,1.1389,1.1194,1.1194,1.1194,1.158,1.25,0.0,0.0,0.0,0.0,0.0,0.0,0.0,0.0,0.0,0.0,0.0,0.0,0.0,0.0,0.0,0.0,0.0,0.0,0.0,0.0,0.0,0.0,0.0,0.0,0.0,0.0,0.0,0.0,0.0,0.0,0.0,0.0,0.0,0.0,0.0,0.0,0.0,0.0,0.0,0.0,0.0,0.0,0.0,0.0,0.0,0.0,0.0,0.0,0.0,0.0,0.0,0.0,0.0,0.0,0.0,0.0,0.0,0.0,0.0,0.0,0.0,0.0,0.0,0.0,0.0,0.0,0.0,0.0,0.0,0.0,0.0,0.0,0.0,0.0,0.0,0.0,0.0,0.0,0.0,0.0,0.0,0.0,0.0,0.0,0.0,0.0,0.0,0.0,0.0,0.0,0.0,0.0,0.0,0.0,0.0,0.0,0.0,0.0,0.0,0.0,0.0,0.0,1.2559,1.1855,1.1444,1.1444,1.1444,1.1444,1.1444,1.1444,1.1669,1.2218,0.0,0.0,0.0,0.0,0.0,0.0,0.0,0.0,0.0,0.0,0.0,0.0,0.0,0.0,0.0,0.0,0.0,0.0,0.0,0.0,0.0,0.0,0.0,0.0,0.0,0.0,0.0,0.0,0.0,0.0,0.0,0.0,0.0,0.0,0.0,0.0,0.0,0.0,0.0,0.0,0.0,0.0,0.0,0.0,0.0,0.0,0.0,0.0,0.0,0.0,0.0,0.0,0.0,0.0,0.0,0.0,0.0,0.0,0.0,0.0,0.0,0.0,0.0,0.0,0.0,0.0,0.0,0.0,0.0,0.0,0.0,0.0,0.0,0.0,0.0,0.0,0.0,0.0,0.0,0.0,0.0,0.0,0.0,0.0,0.0,0.0,0.0,0.0,0.0,0.0,0.0,0.0,0.0,0.0,0.0,0.0,0.0,0.0,0.0,0.0,0.0,0.0,1.253,1.2083,1.1766,1.1766,1.1791,1.1791,1.1791,1.1791,1.1998,1.2488,0.0,0.0,0.0,0.0,0.0,0.0,0.0,0.0,0.0,0.0,0.0,0.0,0.0,0.0,0.0,0.0,0.0,0.0,0.0,0.0,0.0,0.0,0.0,0.0,0.0,0.0,0.0,0.0,0.0,0.0,0.0,0.0,0.0,0.0,0.0,0.0,0.0,0.0,0.0,0.0,0.0,0.0,0.0,0.0,0.0,0.0,0.0,0.0,0.0,0.0,0.0,0.0,0.0,0.0,0.0,0.0,0.0,0.0,0.0,0.0,0.862,0.9207,0.0,0.0,0.0,0.0,0.0,0.0,0.0,0.0,0.0,0.0,0.0,0.0,0.0,0.0,0.0,0.0,0.0,0.0,0.0,0.0,0.0,0.0,0.0,0.0,0.0,0.0,0.0,0.0,0.0,0.0,0.0,0.0,0.0,0.0,0.0,0.0,0.0,0.0,0.0,0.0,1.1162,1.1298,1.1481,1.1481,1.1662,1.1791,1.1791,1.1791,1.1843,1.1972,1.2488,0.0,0.0,0.0,0.0,0.0,0.0,0.0,0.0,0.0,0.0,0.0,0.0,0.0,0.0,0.0,0.0,0.0,0.0,0.0,0.0,0.0,0.0,0.0,0.0,0.0,0.0,0.0,0.0,0.0,0.0,0.0,0.0,0.0,0.0,0.0,0.0,0.0,0.0,0.0,0.0,0.0,0.0,0.0,0.0,0.0,0.0,0.0,0.0,0.0,0.0,0.0,0.0,0.0,0.0,0.0,0.0,0.0,0.0,0.0,0.7902,0.877,0.0,0.0,0.0,0.0,0.0,0.0,0.0,0.0,0.0,0.0,0.0,0.0,0.0,0.0,0.0,0.0,0.0,0.0,0.0,0.0,0.0,0.0,0.0,0.0,0.0,0.0,0.0,0.0,0.0,0.0,0.0,0.0,0.0,0.0,0.0,0.0,0.0,0.0,0.0,0.0,1.0831,1.1186,1.1509,1.1509,1.1744,1.1903,1.1903,1.2009,1.2088,1.2088,1.2623,0.0,0.0,0.0,0.0,0.0,0.0,0.0,0.0,0.0,0.0,0.0,0.0,0.0,0.0,0.0,0.0,0.0,0.0,0.0,0.0,0.0,0.0,0.0,0.0,0.0,0.0,0.0,0.0,0.0,0.0,0.0,0.0,0.0,0.0,0.0,0.0,0.0,0.0,0.0,0.0,0.0,0.0,0.0,0.0,0.0,0.0,0.0,0.0,0.0,0.0,0.0,0.0,0.0,0.484,0.4492,0.3834,0.4555,0.4472,0.3972,0.7013,0.8095,0.7751,0.8774,0.0,0.0,0.0,0.0,0.0,0.0,0.0,0.0,0.0,0.0,0.0,0.0,0.0,0.0,0.0,0.0,0.0,0.0,0.0,0.0,0.0,0.0,1.0501,1.1284,1.0901,1.0604,1.1549,0.0,0.0,0.0,0.0,0.0,0.0,0.0,0.0,0.0,0.0,0.0,1.0853,1.1228,1.1514,1.1514,1.1759,1.1951,1.2005,1.2196,1.2355,1.2414,1.2881,1.3035,0.0,0.0,0.0,0.0,0.0,0.0,0.0,0.0,0.0,0.0,0.0,0.0,0.0,0.0,0.0,0.0,0.0,0.0,0.0,0.0,0.0,0.0,0.0,0.0,0.0,0.0,0.0,0.0,0.0,0.0,0.0,0.0,0.3509,0.3322,0.0,0.0,0.0,0.0,0.0,0.0,0.0,0.0,0.0,0.0,0.0,0.0,0.0,0.3836,0.3928,0.3848,0.386,0.3962,0.3974,0.3918,0.3815,0.3918,0.3918,0.3834,0.4304,0.0,0.6011,0.7146,0.0,0.0,0.0,0.0,0.0,0.0,0.0,0.0,0.0,0.0,0.0,0.0,0.0,0.0,0.0,0.0,0.0,0.0,0.0,0.0,0.0,0.0,0.9582,0.9697,0.9728,0.9751,0.9918,1.1173,1.2131,1.1628,1.2277,1.2414,0.0,0.0,0.0,0.0,0.0,0.0,1.0694,1.0977,1.1185,1.1185,1.1459,1.1759,1.1973,1.2032,1.2141,1.2382,1.2463,1.2508,1.248,1.2972,0.0,0.0,0.0,0.0,0.0,0.0,0.0,0.0,0.0,0.0,0.0,0.0,0.0,0.0,0.0,0.0,0.0,0.0,0.0,0.0,0.0,0.0,0.0,0.0,0.0,0.0,0.0,0.0,0.0,0.332,0.2762,0.1895,0.222,0.2529,0.0,0.0,0.0,0.0,0.0,0.0,0.0,0.0,0.0,0.2724,0.2392,0.2227,0.2227,0.238,0.2458,0.2458,0.2446,0.246,0.246,0.246,0.246,0.2482,0.3047,0.359,0.4167,0.5157,0.5605,0.5731,0.0,0.0,0.0,0.0,0.7375,0.7314,0.6958,0.7284,0.7819,0.7466,0.0,0.0,0.0,0.0,0.0,0.0,0.0,0.8502,0.9124,0.94,0.9506,0.9506,0.9644,0.977,0.977,1.0484,1.1016,1.0626,1.1032,1.1202,1.044,1.068,0.0,0.0,0.0,1.0607,1.068,1.0802,1.0884,1.0884,1.1131,1.1373,1.1482,1.181,1.206,1.2169,1.2332,1.2414,1.2414,1.2659,1.2913,0.0,0.0,0.0,0.0,0.0,0.0,0.0,0.0,0.0,0.0,0.0,0.0,0.0,0.0,0.0,0.0,0.0,0.0,0.0,0.0,0.0,0.0,0.0,0.0,0.0,0.0,0.0,0.0,0.2451,0.188,0.0731,0.1174,0.1568,0.0,0.0,0.0,0.0,0.0,0.0,0.207,0.1487,0.1172,0.1236,0.109,0.103,0.1036,0.1293,0.1417,0.1425,0.1425,0.1436,0.1436,0.1436,0.1436,0.1458,0.2209,0.2549,0.2632,0.3752,0.4278,0.4387,0.4625,0.4789,0.4927,0.5,0.5034,0.5034,0.5034,0.5539,0.621,0.621,0.6831,0.7564,0.7564,0.0,0.0,0.0,0.0,0.743,0.8248,0.8569,0.8717,0.8736,0.8885,0.905,0.905,0.9209,0.95,0.9947,1.0136,1.029,1.0442,1.0474,0.0,1.0672,1.0692,1.0692,1.0692,1.0692,1.0692,1.0692,1.0884,1.1021,1.1099,1.1509,1.181,1.1896,1.2141,1.2305,1.2305,1.2359,1.2604,1.3071,0.0,0.0,0.0,0.0,0.0,0.0,0.0,0.0,0.0,0.0,0.0,0.0,0.0,0.0,0.0,0.0,0.0,0.0,0.0,0.0,0.0,0.0,0.0,0.0,0.0,0.0,0.0,0.0,0.0,0.0609,0.0642,0.0,0.0,0.0,0.0,0.0716,-0.0493,-0.104,-0.0628,-0.0816,-0.0825,-0.058,0.0514,0.1106,0.1105,0.136,0.1491,0.1496,0.1497,0.1498,0.1498,0.1498,0.1498,0.1498,0.1545,0.1569,0.1705,0.3537,0.4299,0.4334,0.4598,0.4705,0.4743,0.5001,0.5087,0.5087,0.5087,0.5136,0.5164,0.5164,0.5351,0.5552,0.5552,0.5601,0.0,0.0,0.5685,0.5739,0.5866,0.6075,0.6282,0.6367,0.6584,0.6777,0.6777,0.6925,0.7714,0.9949,1.0385,1.045,1.0647,0.0,1.068,1.0688,1.0692,1.0692,1.0692,1.0692,1.0692,1.0692,1.0719,1.0829,1.1076,1.1126,1.1291,1.1596,1.1869,1.2028,1.2028,1.2246,1.2414,1.2441,1.3012,0.0,0.0,0.0,0.0,0.0,0.0,0.0,0.0,0.0,0.0,0.0,0.0,0.0,0.0,0.0,0.0,0.0,0.0,0.0,0.0,0.0,0.0,0.0,0.0,0.0,0.0,0.0,0.0,0.0208,0.021,0.0,-0.0622,-0.0752,-0.1037,-0.162,-0.2096,-0.2316,-0.2211,-0.2295,-0.2317,-0.2302,-0.1768,-0.1471,-0.1482,-0.1035,-0.0472,0.0214,0.0381,0.0834,0.1502,0.1502,0.1502,0.1502,0.1502,0.1502,0.1548,0.2227,0.2493,0.2517,0.2606,0.2635,0.2661,0.2753,0.2784,0.2784,0.2784,0.326,0.4,0.4685,0.4948,0.4874,0.4205,0.4128,0.4313,0.436,0.4504,0.4804,0.5517,0.5777,0.5839,0.5877,0.6042,0.6251,0.6441,0.6638,0.7076,0.8066,0.8893,0.9465,0.9519,1.0194,1.0441,0.9667,1.0194,1.0417,0.964,1.0221,1.0692,1.0692,1.0692,1.0747,1.0829,1.0989,1.1154,1.1267,1.1568,1.1814,1.2005,1.2087,1.2219,1.2414,1.2604,1.2713,0.0,0.0,0.0,0.0,0.0,0.0,0.0,0.0,0.0,0.0,0.0,0.0,0.0,0.0,0.0,0.0,0.0,0.0,0.0,0.0,0.0,0.0,0.0,0.0,0.0,-0.0613,-0.0978,-0.0978,-0.0984,-0.1232,-0.1841,-0.192,-0.2207,-0.2892,-0.3279,-0.3516,-0.3562,-0.3564,-0.361,-0.3706,-0.3185,-0.2917,-0.2933,-0.2494,-0.1926,-0.126,-0.0988,-0.047,0.0223,0.0322,0.0347,0.0347,0.0347,0.0594,0.0966,0.0966,0.1189,0.1559,0.1553,0.1541,0.1543,0.1528,0.1533,0.1533,0.1533,0.2034,0.2776,0.3485,0.374,0.3632,0.2901,0.2811,0.2959,0.3019,0.316,0.346,0.4186,0.4447,0.4507,0.4507,0.4715,0.4972,0.5219,0.5401,0.5582,0.5864,0.7196,0.8281,0.8281,0.8944,0.9361,0.8951,0.9223,0.933,0.8947,0.9585,1.0084,1.0084,1.0468,1.0692,1.0692,1.0857,1.0962,1.0962,1.1267,1.1509,1.1705,1.1891,1.2087,1.2246,1.2355,1.2414,1.2414,0.0,0.0,0.0,0.0,0.0,0.0,0.0,0.0,0.0,0.0,0.0,0.0,0.0,0.0,0.0,0.0,0.0,0.0,0.0,0.0,0.0,0.0,0.0,-0.2911,-0.2892,-0.2911,-0.2912,-0.29,-0.2915,-0.2962,-0.3014,-0.3069,-0.3092,-0.4114,-0.4754,-0.4761,-0.4761,-0.4763,-0.4769,-0.3624,-0.3061,-0.3127,-0.2845,-0.2766,-0.2866,-0.2524,-0.2339,-0.2286,-0.202,-0.1887,-0.1887,-0.1887,-0.125,-0.016,-0.016,0.0532,0.1589,0.1608,0.1599,0.1603,0.1607,0.1592,0.1593,0.1593,0.1594,0.1594,0.1594,0.1639,0.169,0.169,0.1709,0.1705,0.1705,0.1705,0.1712,0.177,0.1997,0.2198,0.218,0.2441,0.2748,0.3026,0.3081,0.3166,0.3531,0.5421,0.7,0.7027,0.7083,0.7473,0.8616,0.7836,0.0,0.8644,0.8809,0.8865,0.8892,0.9946,1.0665,1.0692,1.0692,1.0692,1.0692,1.0939,1.1099,1.1099,1.1673,1.2005,1.2005,1.2273,1.2414,1.2414,0.0,0.0,0.0,0.0,0.0,0.0,0.0,0.0,0.0,0.0,0.0,0.0,0.0,0.0,0.0,0.0,0.0,0.0,0.0,0.0,0.0,-0.3998,-0.3783,-0.3002,-0.2897,-0.2924,-0.2966,-0.2962,-0.329,-0.4132,-0.4229,-0.4524,-0.5209,-0.5544,-0.5774,-0.5935,-0.5942,-0.6019,-0.6213,-0.5905,-0.5726,-0.5758,-0.5493,-0.4992,-0.4245,-0.3719,-0.3056,-0.2286,-0.202,-0.1887,-0.1887,-0.1887,-0.1701,-0.1409,-0.1409,-0.1223,-0.0742,0.1008,0.1663,0.1661,0.1622,0.163,0.1675,0.1675,0.1663,0.168,0.168,0.1686,0.1692,0.1692,0.1698,0.1709,0.1758,0.1764,0.1772,0.1803,0.1866,0.1896,0.1905,0.1992,0.2131,0.2384,0.2439,0.2607,0.3138,0.3751,0.4557,0.5674,0.6561,0.6919,0.6424,0.6783,0.6919,0.6424,0.7088,0.7919,0.8809,0.9199,0.975,1.0637,1.0692,1.0692,1.0692,1.0774,1.1021,1.1432,1.1623,1.1896,1.2278,1.2359,1.2414,0.0,0.0,0.0,0.0,0.0,0.0,0.0,0.0,0.0,0.0,0.0,0.0,0.0,0.0,0.0,0.0,0.0,0.0,0.0,0.0,0.0,0.0,-0.5094,-0.4953,-0.4324,-0.4248,-0.4267,-0.4291,-0.4295,-0.455,-0.5223,-0.5353,-0.5647,-0.6184,-0.6328,-0.6445,-0.6558,-0.6563,-0.6628,-0.6798,-0.6801,-0.6828,-0.6877,-0.6741,-0.6358,-0.5804,-0.5318,-0.4752,-0.4126,-0.3719,-0.3531,-0.3531,-0.3424,-0.307,-0.2608,-0.2608,-0.2308,-0.1735,0.0,0.0,0.0,0.0,0.1223,0.1706,0.1706,0.169,0.1704,0.1704,0.1713,0.175,0.175,0.1732,0.1746,0.1791,0.1796,0.1801,0.1791,0.1795,0.1795,0.1795,0.1795,0.1879,0.2132,0.2188,0.2356,0.2831,0.3026,0.0,0.4283,0.5089,0.5588,0.5427,0.5534,0.5588,0.5425,0.598,0.6644,0.7368,0.7864,0.8416,0.9137,0.9192,0.0,0.0,0.0,1.0441,1.1541,1.1596,0.0,0.0,0.0,1.2414,1.2414,1.2414,0.0,0.0,1.2714,1.2862,0.0,0.0,0.0,0.0,0.0,0.0,0.0,0.0,0.0,0.0,0.0,0.0,0.0,0.0,0.0,0.0,-0.6026,-0.6132,-0.6132,-0.6153,-0.6135,-0.6134,-0.6119,-0.6132,-0.6146,-0.6322,-0.6452,-0.6452,-0.6653,-0.6806,-0.6823,-0.6823,0.0,0.0,0.0,-0.6893,-0.7029,-0.7032,-0.7081,-0.721,-0.6851,-0.6687,-0.6687,-0.61,-0.5822,-0.5794,-0.5547,-0.4817,-0.3805,-0.3805,-0.3163,-0.2176,-0.1972,-0.189,-0.1781,-0.0692,0.0373,0.1308,0.1308,0.0,0.0,0.1312,0.1353,0.1425,0.1563,0.1607,0.1627,0.1767,0.1795,0.1795,0.1795,0.1795,0.1795,0.1795,0.1795,0.1851,0.2104,0.216,0.2272,0.2637,0.2887,0.3082,0.3137,0.339,0.3949,0.5037,0.4285,0.3977,0.5065,0.5204,0.526,0.5399,0.6311,0.0,0.7083,0.711,0.711,0.711,0.814,0.9471,1.1067,1.1232,1.1564,1.2137,1.2219,1.23,1.2414,1.2414,1.2414,1.2414,1.2414,1.2414,0.0,0.0,0.0,0.0,0.0,0.0,0.0,0.0,0.0,0.0,0.0,0.0,0.0,0.0,0.0,-0.603,-0.6178,-0.6257,-0.6257,-0.6396,-0.6445,-0.6279,-0.632,-0.639,-0.6482,-0.6646,-0.6733,-0.6733,-0.6777,-0.6844,-0.6945,-0.695,-0.7018,-0.7111,-0.7114,-0.7125,-0.7149,-0.7149,-0.716,-0.721,-0.6851,0.0,-0.6687,-0.6356,-0.6049,-0.5794,-0.5738,-0.5461,-0.5043,-0.5043,-0.4903,-0.4501,-0.2572,-0.1857,-0.186,-0.1648,-0.1368,-0.1113,-0.1113,-0.1123,-0.1137,-0.1137,-0.1111,-0.092,0.0056,0.0336,0.0,0.1514,0.1795,0.1795,0.1795,0.1795,0.1795,0.1795,0.1795,0.1823,0.1879,0.1879,0.2048,0.2581,0.275,0.2945,0.3419,0.3559,0.3671,0.3923,0.3755,0.3671,0.3921,0.3949,0.4313,0.5288,0.5592,0.6091,0.7027,0.711,0.711,0.711,0.7581,0.7993,0.8352,0.9044,0.979,1.0621,1.1095,1.17,1.2414,1.2414,1.2414,1.2414,1.2414,1.2414,0.0,0.0,0.0,0.0,0.0,0.0,0.0,0.0,0.0,0.0,0.0,-0.5396,-0.5396,0.0,-0.6244,-0.6211,-0.6276,-0.6374,-0.6437,-0.6545,-0.6575,-0.6458,-0.6525,-0.6623,-0.6706,-0.6823,-0.6893,-0.6893,-0.6972,-0.7032,-0.7095,-0.7098,-0.7122,-0.721,-0.721,-0.721,-0.721,-0.721,-0.721,-0.721,-0.7015,-0.6963,-0.6935,-0.6495,-0.6219,-0.6019,-0.5742,-0.5519,-0.5409,-0.5409,-0.5409,-0.5292,-0.4078,-0.3243,-0.2754,-0.2754,-0.2359,-0.1796,-0.1796,-0.1807,-0.1791,-0.1791,-0.1791,-0.1679,-0.1092,-0.0896,-0.0644,0.0561,0.0897,0.1037,0.1655,0.1795,0.1795,0.1795,0.1795,0.1795,0.1795,0.1795,0.1879,0.2188,0.2497,0.2806,0.3085,0.3391,0.3587,0.3587,0.3587,0.3587,0.3587,0.3587,0.3851,0.4477,0.4537,0.4805,0.5384,0.5445,0.57,0.6265,0.6462,0.6889,0.7658,0.8112,0.8763,0.967,0.993,1.0421,1.1202,1.1137,1.1091,1.1091,1.1091,1.1337,0.0,0.0,0.0,0.0,0.0,0.0,0.0,-0.5131,-0.5445,-0.6018,-0.639,-0.6556,-0.6479,-0.66,-0.6752,-0.6923,-0.7038,-0.7129,-0.724,-0.7325,-0.7355,-0.7355,-0.7247,-0.7178,-0.7178,-0.7295,-0.7288,-0.7046,-0.713,-0.721,-0.721,-0.721,-0.721,-0.721,-0.721,-0.721,-0.721,-0.721,-0.721,-0.721,-0.721,-0.7154,-0.7099,-0.6604,-0.6302,-0.6161,-0.5633,-0.5409,-0.5409,-0.5409,-0.5409,-0.5409,-0.5409,-0.4817,-0.3945,-0.3945,-0.333,-0.2492,-0.2492,-0.2492,-0.2492,-0.2492,-0.2492,-0.2464,-0.2211,-0.2155,-0.1903,-0.07,-0.0336,-0.0084,0.1149,0.1458,0.1514,0.1739,0.1795,0.1795,0.1795,0.1795,0.1823,0.1879,0.2328,0.2721,0.2776,0.3225,0.3587,0.3587,0.3587,0.3591,0.3632,0.3633,0.3656,0.3718,0.3725,0.3746,0.3794,0.3799,0.4177,0.5108,0.5167,0.572,0.6973,0.7148,0.7642,0.8572,0.8721,0.9149,0.9837,0.9874,0.9867,0.9867,0.9696,1.0055,-0.5331,-0.566,-0.574,-0.5753,-0.5756,-0.5784,0.0,-0.667,-0.7152,-0.6418,-0.6997,-0.7661,-0.7781,-0.7803,-0.8142,-0.9087,-0.9426,-0.9595,-0.961,-0.9879,-1.0047,-1.0047,-0.9133,-0.8481,-0.8481,-0.8617,-0.8266,-0.7246,-0.7202,-0.721,-0.721,-0.721,-0.721,-0.721,-0.721,-0.721,-0.721,-0.721,-0.721,-0.721,-0.721,-0.7043,-0.674,-0.6687,-0.6351,-0.5849,-0.5519,-0.5409,-0.5409,-0.5409,-0.5409,-0.5409,-0.5409,-0.5326,-0.5212,-0.5212,-0.5098,-0.4987,-0.4987,-0.4987,-0.4987,-0.4987,-0.4987,-0.4789,-0.3721,-0.3413,-0.3134,-0.1931,-0.1595,-0.1316,-0.0112,0.0196,0.0477,0.1542,0.1795,0.1795,0.1795,0.1795,0.1879,0.2104,0.2441,0.2776,0.3026,0.3362,0.3587,0.3587,0.3587,0.3634,0.3689,0.3696,0.3721,0.3781,0.3788,0.3791,0.3798,0.3799,0.3857,0.3974,0.4004,0.4061,0.4237,0.4764,0.5461,0.6327,0.7452,0.8434,0.9305,0.9874,1.0155,1.0126,0.9284,0.9284,-0.771,-0.7852,-0.7922,-0.7994,-0.8015,-0.804,-0.8108,-0.8492,-0.8683,-0.829,-0.8566,-0.8854,-0.8926,-0.8941,-0.912,-0.9742,-0.992,-1.0068,-1.0252,-1.0412,-1.0784,-1.1513,-1.1149,-1.0581,-0.9934,-0.9917,-0.9739,-0.9271,-0.9244,-0.9244,-0.9244,-0.8561,-0.8177,-0.8177,-0.7543,-0.721,-0.721,-0.721,-0.721,-0.721,-0.721,-0.7127,-0.699,-0.6796,-0.6381,-0.5794,-0.5684,-0.5547,-0.5409,-0.5409,-0.5409,-0.5409,-0.5409,-0.5409,-0.5409,-0.5409,-0.5409,-0.5409,-0.5409,-0.5409,-0.5409,-0.5409,-0.5409,-0.5296,-0.4789,-0.4648,-0.4397,-0.3189,-0.2854,-0.2574,-0.1372,-0.1036,-0.0756,0.0476,0.0757,0.0953,0.1655,0.1795,0.1823,0.1936,0.2216,0.2496,0.2805,0.3111,0.3402,0.3635,0.3669,0.3678,0.3703,0.3737,0.3784,0.3845,0.3854,0.3845,0.3845,0.3845,0.3845,0.3845,0.3845,0.3845,0.3845,0.4086,0.4595,0.5339,0.583,0.6635,0.7761,0.7953,0.8238,0.8619,0.8212,0.8179,-0.9292,-0.9308,-0.9337,-0.9424,-0.9457,-0.9494,-0.9579,-0.9825,-0.9948,-0.9657,-0.9825,-1.0047,-1.0047,-1.0094,-1.027,-1.078,-1.0972,-1.1142,-1.1376,-1.146,-1.185,-1.2788,-1.2888,-1.2558,-1.1742,-1.1355,-1.1055,-1.0726,-1.0699,-1.0699,-1.0699,-0.955,-0.8892,-0.8892,-0.7789,-0.721,-0.721,-0.721,-0.721,-0.721,-0.721,-0.7099,-0.6935,-0.652,-0.6102,-0.5684,-0.5684,-0.5575,-0.5409,-0.5409,-0.5409,-0.5409,-0.5409,-0.5409,-0.5409,-0.5409,-0.5409,-0.5409,-0.5409,-0.5409,-0.5409,-0.5409,-0.5409,-0.5409,-0.5409,-0.5409,-0.5212,-0.4339,-0.4086,-0.3805,-0.2602,-0.2295,-0.1987,-0.0784,-0.0504,-0.0168,0.1037,0.1318,0.1402,0.1739,0.202,0.2272,0.2525,0.287,0.3229,0.3529,0.3678,0.3758,0.3758,0.3812,0.3837,0.388,0.3893,0.3889,0.3889,0.3889,0.3889,0.3889,0.3889,0.3889,0.3889,0.3889,0.4133,0.4621,0.4755,0.5362,0.648,0.6554,0.6963,0.7616,0.7616,0.7616,-0.9543,-0.9592,-0.9592,-0.9596,-0.96,-0.96,-0.9604,-1.0391,-1.0857,-0.9805,-1.044,-1.1146,-1.1146,-1.1315,-1.1788,-1.2849,-1.3388,-1.3693,-1.3709,-1.3923,-1.4105,-1.4137,-1.4137,-1.4137,-1.411,-1.3029,-1.1896,-1.0781,-1.0699,-1.0699,-1.0699,-0.955,-0.8892,-0.8892,-0.7789,-0.721,-0.721,-0.721,-0.721,-0.721,-0.721,-0.6879,-0.6302,-0.5717,-0.5437,-0.5409,-0.5409,-0.5409,-0.5409,-0.5409,-0.5409,-0.5409,-0.5409,-0.5409,-0.5409,-0.5409,-0.5409,-0.5409,-0.5409,-0.5409,-0.5409,-0.5409,-0.5409,-0.5409,-0.5409,-0.5409,-0.5382,-0.5354,-0.5354,-0.507,-0.3861,-0.3553,-0.3245,-0.2043,-0.1735,-0.1428,-0.0196,0.0056,0.0393,0.157,0.202,0.2216,0.2216,0.2757,0.3216,0.3217,0.3601,0.3884,0.3884,0.3907,0.3884,0.3887,0.3888,0.3889,0.3889,0.3889,0.3889,0.3889,0.3889,0.3889,0.3889,0.3889,0.392,0.3919,0.4558,0.5228,0.5933,0.6573,0.7248,0.7889,0.7889,0.7889,-1.1707,-1.1727,-1.1727,-1.1727,-1.1727,-1.1727,-1.1727,-1.1995,-1.2165,-1.18,-1.2111,-1.2455,-1.2455,-1.2652,-1.2991,-1.3478,-1.3686,-1.3852,-1.4046,-1.4143,-1.4196,-1.4196,-1.4196,-1.4196,-1.4196,-1.3829,-1.3445,-1.3061,-1.3007,-1.3007,-1.3007,-1.1168,-1.0096,-1.0096,-0.8202,-0.721,-0.721,-0.721,-0.721,-0.721,-0.721,-0.7099,-0.6879,-0.6464,-0.6161,-0.5996,-0.5768,-0.5575,-0.5409,-0.5409,-0.5409,-0.5409,-0.5409,-0.5409,-0.5409,-0.5409,-0.5409,-0.5409,-0.5409,-0.5409,-0.5409,-0.5409,-0.5409,-0.5409,-0.5409,-0.5409,-0.5409,-0.5409,-0.5409,-0.5296,-0.4901,-0.4789,-0.448,-0.3273,-0.2993,-0.2658,-0.1456,-0.056,0.0112,0.0533,0.1318,0.2083,0.2531,0.2606,0.2779,0.3253,0.3653,0.3905,0.3916,0.3907,0.3889,0.3889,0.3889,0.3889,0.3889,0.3889,0.3889,0.3889,0.3889,0.3889,0.3889,0.3889,0.3889,0.3889,0.4133,0.4561,0.5232,0.5906,0.6582,0.7258,0.7686,0.7903,-1.2813,-1.2813,-1.2813,-1.2813,-1.2813,-1.2813,-1.2813,-1.2813,-1.281,-1.2891,-1.3001,-1.313,-1.3222,-1.3437,-1.3647,-1.3772,-1.3868,-1.4008,-1.4169,-1.4196,-1.4196,-1.4196,-1.4196,-1.4196,-1.4196,-1.4196,-1.4196,-1.4196,-1.4196,-1.4196,-1.4196,-1.2372,-1.1301,-1.1301,-0.9027,-0.7817,-0.7817,-0.7401,-0.721,-0.721,-0.699,-0.6879,-0.6851,-0.6437,-0.6133,-0.5968,-0.5742,-0.5547,-0.5409,-0.5409,-0.5409,-0.5409,-0.5409,-0.5409,-0.5409,-0.5409,-0.5409,-0.5409,-0.5409,-0.5409,-0.5409,-0.5409,-0.5409,-0.5409,-0.5409,-0.5409,-0.5409,-0.5409,-0.5409,-0.5409,-0.5409,-0.5409,-0.5212,-0.4423,-0.4254,-0.3918,-0.2714,-0.1847,-0.1148,-0.0728,0.0336,0.1325,0.1889,0.2379,0.2892,0.3483,0.377,0.3907,0.3915,0.3889,0.3889,0.3889,0.3889,0.3889,0.3889,0.3889,0.3889,0.3889,0.3889,0.3889,0.3889,0.3889,0.3889,0.3889,0.3889,0.4224,0.4894,0.5324,0.5998,0.6919,0.735,0.7686,-1.2813,-1.2813,-1.2813,-1.2813,-1.2813,-1.2813,-1.2813,-1.2818,-1.287,-1.306,-1.3125,-1.3211,-1.3479,-1.3685,-1.3815,-1.3815,-1.404,-1.4196,-1.4196,-1.4196,-1.4196,-1.4196,-1.4196,-1.4196,-1.4196,-1.4196,-1.4196,-1.4196,-1.4196,-1.4196,-1.4196,-1.3056,-1.239,-1.239,-1.0178,-0.9003,-0.9003,-0.7845,-0.7293,-0.7265,-0.6634,-0.6302,-0.6274,-0.5689,-0.5409,-0.5409,-0.5409,-0.5409,-0.5409,-0.5409,-0.5409,-0.5409,-0.5409,-0.5409,-0.5409,-0.5409,-0.5409,-0.5409,-0.5409,-0.5409,-0.5409,-0.5409,-0.5409,-0.5409,-0.5409,-0.5409,-0.5409,-0.5409,-0.5409,-0.5409,-0.5409,-0.5409,-0.5409,-0.5409,-0.5409,-0.5098,-0.3945,-0.3636,-0.3273,-0.2127,-0.0841,0.0141,0.0459,0.2127,0.3519,0.3819,0.3889,0.3889,0.3889,0.3889,0.3889,0.3889,0.3889,0.3889,0.3889,0.3889,0.3889,0.3889,0.3889,0.3889,0.3889,0.3889,0.3889,0.3889,0.3889,0.4225,0.4834,0.4894,0.5569,0.6858,0.6888,0.7255,-1.2813,-1.2813,-1.2813,-1.2813,-1.2813,-1.2813,-1.2813,-1.2918,-1.3034,-1.3093,-1.3389,-1.3632,-1.3717,-1.3933,-1.4099,-1.4099,-1.4153,-1.4196,-1.4196,-1.4196,-1.4196,-1.4196,-1.4196,-1.4196,-1.4196,-1.4196,-1.4196,-1.4196,-1.4196,-1.4196,-1.4196,-1.3056,-1.239,-1.239,-1.1,-1.0233,-1.0233,-0.9054,-0.8367,-0.8168,-0.7099,-0.6495,-0.6274,-0.5882,-0.5684,-0.5684,-0.5491,-0.5409,-0.5409,-0.5409,-0.5409,-0.5409,-0.5409,-0.5409,-0.5409,-0.5409,-0.5409,-0.5409,-0.5409,-0.5409,-0.5409,-0.5409,-0.5409,-0.5409,-0.5409,-0.5409,-0.5409,-0.5409,-0.5409,-0.5409,-0.5409,-0.5409,-0.5409,-0.5409,-0.5409,-0.5326,-0.5015,-0.4226,-0.3497,-0.3189,-0.1199,0.0467,0.0504,0.2148,0.3501,0.3577,0.3765,0.3889,0.3889,0.3889,0.3889,0.3889,0.3889,0.3889,0.3889,0.3889,0.3889,0.3889,0.3889,0.3889,0.3889,0.3889,0.3889,0.3889,0.3889,0.398,0.4164,0.4651,0.5324,0.6151,0.6674,0.7255,-1.2813,-1.2813,-1.2813,-1.2813,-1.2813,-1.281,-1.2913,-1.3012,-1.3163,-1.3347,-1.3605,-1.3825,-1.3938,-1.4099,-1.4196,-1.4196,-1.4196,-1.4196,-1.4196,-1.4196,-1.4196,-1.4196,-1.4196,-1.4196,-1.4196,-1.4196,-1.4196,-1.4196,-1.4196,-1.4196,-1.4196,-1.3554,-1.3192,-1.3192,-1.2064,-1.1219,-1.0699,-1.0045,-0.9299,-0.8496,-0.8091,-0.7238,-0.6077,-0.6158,-0.5991,-0.5631,-0.5463,-0.5409,-0.5409,-0.5409,-0.5409,-0.5409,-0.5409,-0.5409,-0.5409,-0.5409,-0.5409,-0.5409,-0.5409,-0.5409,-0.5409,-0.5409,-0.5409,-0.5409,-0.5409,-0.5409,-0.5409,-0.5409,-0.5409,-0.5409,-0.5409,-0.5409,-0.5409,-0.5409,-0.5409,-0.5409,-0.5409,-0.4873,-0.4235,-0.3729,-0.2264,-0.0863,-0.006,0.1494,0.2713,0.3023,0.3548,0.3889,0.3889,0.3889,0.3889,0.3889,0.3889,0.3889,0.3889,0.3889,0.3889,0.3889,0.3889,0.3889,0.3889,0.3889,0.3889,0.3889,0.3889,0.3889,0.3889,0.4286,0.4805,0.5477,0.6154,0.6827,-1.2813,-1.2813,-1.2813,-1.2813,-1.2813,-1.2848,-1.3055,-1.313,-1.3281,-1.3702,-1.382,-1.3906,-1.4153,-1.4196,-1.4196,-1.4196,-1.4196,-1.4196,-1.4196,-1.4196,-1.4196,-1.4196,-1.4196,-1.4196,-1.4196,-1.4196,-1.4196,-1.4196,-1.4196,-1.4196,-1.4196,-1.4196,-1.4196,-1.4196,-1.3192,-1.2173,-1.1164,-1.1,-1.0257,-0.8965,-0.9275,-0.8281,-0.6237,-0.6682,-0.6409,-0.5575,-0.5575,-0.5521,-0.5409,-0.5409,-0.5409,-0.5409,-0.5409,-0.5409,-0.5409,-0.5409,-0.5409,-0.5409,-0.5409,-0.5409,-0.5409,-0.5409,-0.5409,-0.5409,-0.5409,-0.5409,-0.5409,-0.5409,-0.5409,-0.5409,-0.5409,-0.5409,-0.5409,-0.5409,-0.5409,-0.5409,-0.5409,-0.5418,-0.5113,-0.4131,-0.3623,-0.2827,-0.1056,0.0336,0.1508,0.2374,0.3208,0.3765,0.3889,0.3889,0.3889,0.3889,0.3889,0.3889,0.3889,0.3889,0.3889,0.3889,0.3889,0.3889,0.3889,0.3889,0.3889,0.3889,0.3889,0.3889,0.3889,0.3889,0.4255,0.4926,0.5508,0.6182,-1.2813,-1.2813,-1.2813,-1.2813,-1.2813,-1.2848,-1.3055,-1.3265,-1.3491,-1.376,-1.3986,-1.4143,-1.4186,-1.4196,-1.4196,-1.4196,-1.4196,-1.4196,-1.4196,-1.4196,-1.4196,-1.4196,-1.4196,-1.4196,-1.4196,-1.4196,-1.4196,-1.4196,-1.4196,-1.4196,-1.4196,-1.4196,-1.4196,-1.4196,-1.3997,-1.3775,-1.3586,-1.259,-1.1869,-1.1378,-1.0045,-0.9027,-0.8355,-0.7947,-0.729,-0.6464,-0.6464,-0.6077,-0.5409,-0.5409,-0.5409,-0.5409,-0.5409,-0.5409,-0.5409,-0.5409,-0.5409,-0.5409,-0.5409,-0.5409,-0.5409,-0.5409,-0.5409,-0.5409,-0.5409,-0.5409,-0.5409,-0.5409,-0.5409,-0.5409,-0.5409,-0.5409,-0.5409,-0.5409,-0.5409,-0.5409,-0.5409,-0.5437,-0.5455,-0.5309,-0.4427,-0.3384,-0.2325,-0.1045,0.0462,0.222,0.2652,0.3023,0.3796,0.3889,0.3889,0.3889,0.3889,0.3889,0.3889,0.3889,0.3889,0.3889,0.3889,0.3889,0.3889,0.3889,0.3889,0.3889,0.3889,0.3889,0.3889,0.3889,0.4255,0.4894,0.5017,0.5722,-1.2813,-1.2813,-1.2813,-1.2813,-1.2813,-1.288,-1.3242,-1.342,-1.3608,-1.3943,-1.411,-1.4196,-1.4196,-1.4196,-1.4196,-1.4196,-1.4196,-1.4196,-1.4196,-1.4196,-1.4196,-1.4196,-1.4196,-1.4196,-1.4196,-1.4196,-1.4196,-1.4196,-1.4196,-1.4196,-1.4196,-1.4196,-1.4196,-1.4196,-1.4196,-1.4196,-1.4196,-1.364,-1.2888,-1.1982,-1.1278,-1.0233,-0.8903,-0.8775,-0.8226,-0.7346,-0.6904,-0.6464,-0.6049,-0.5575,-0.5409,-0.5409,-0.5409,-0.5409,-0.5409,-0.5409,-0.5409,-0.5409,-0.5409,-0.5409,-0.5409,-0.5409,-0.5409,-0.5409,-0.5409,-0.5409,-0.5409,-0.5409,-0.5409,-0.5409,-0.5409,-0.5409,-0.5409,-0.5409,-0.5409,-0.5422,-0.5437,-0.5516,-0.5575,-0.5698,-0.5275,-0.455,-0.3414,-0.2279,-0.0985,0.0678,0.1819,0.2652,0.3115,0.3611,0.3889,0.3889,0.3889,0.3889,0.3889,0.3889,0.3889,0.3889,0.3889,0.3889,0.3889,0.3889,0.3889,0.3889,0.3889,0.3889,0.3889,0.3889,0.4073,0.4376,0.4742,0.5446,-1.2813,-1.2813,-1.2813,-1.2813,-1.2826,-1.2972,-1.3409,-1.3544,-1.37,-1.4105,-1.4196,-1.4196,-1.4196,-1.4196,-1.4196,-1.4196,-1.4196,-1.4196,-1.4196,-1.4196,-1.4196,-1.4196,-1.4196,-1.4196,-1.4196,-1.4196,-1.4196,-1.4196,-1.4196,-1.4196,-1.4196,-1.4196,-1.4196,-1.4196,-1.4196,-1.4196,-1.4196,-1.4196,-1.3559,-1.2286,-1.2355,-1.136,-0.9488,-0.9605,-0.9165,-0.8254,-0.7568,-0.7046,-0.6659,-0.5965,-0.5575,-0.5409,-0.5409,-0.5409,-0.5409,-0.5409,-0.5409,-0.5409,-0.5409,-0.5409,-0.5409,-0.5409,-0.5409,-0.5409,-0.5409,-0.5409,-0.5409,-0.5409,-0.5409,-0.5409,-0.5409,-0.5409,-0.5409,-0.5409,-0.5409,-0.5404,-0.549,-0.5551,-0.5642,-0.5763,-0.5855,-0.5485,-0.4129,-0.3296,-0.2278,-0.074,0.0832,0.2004,0.2436,0.3146,0.3672,0.3889,0.3889,0.3889,0.3889,0.3889,0.3889,0.3889,0.3889,0.3889,0.3889,0.3889,0.3889,0.3889,0.3889,0.3889,0.3889,0.3889,0.3889,0.392,0.4438,0.5111,-1.2813,-1.2813,-1.2813,-1.2813,-1.2945,-1.3147,-1.3441,-1.3642,-1.3842,-1.4137,-1.4196,-1.4196,-1.4196,-1.4196,-1.4196,-1.4196,-1.4196,-1.4196,-1.4196,-1.4196,-1.4196,-1.4196,-1.4196,-1.4196,-1.4196,-1.4196,-1.4196,-1.4196,-1.4196,-1.4196,-1.4196,-1.4196,-1.4196,-1.4196,-1.4196,-1.4196,-1.4196,-1.4196,-1.3862,-1.3174,-1.2659,-1.2028,-1.1318,-1.0825,-1.0107,-0.9278,-0.9196,-0.8232,-0.6687,-0.6604,-0.6102,-0.5409,-0.5409,-0.5409,-0.5409,-0.5409,-0.5409,-0.5409,-0.5409,-0.5409,-0.5409,-0.5409,-0.5409,-0.5409,-0.5409,-0.5409,-0.5409,-0.5409,-0.5409,-0.5409,-0.5409,-0.5409,-0.5409,-0.5409,-0.5409,-0.5404,-0.549,-0.5551,-0.5642,-0.5763,-0.5855,-0.5485,-0.4129,-0.382,-0.3019,-0.0832,-0.0339,0.0431,0.2251,0.259,0.2961,0.3796,0.3889,0.3889,0.3889,0.3889,0.3889,0.3889,0.3889,0.3889,0.3889,0.3889,0.3889,0.3889,0.3889,0.3889,0.3889,0.3889,0.3889,0.3889,0.395,0.4685,-1.2813,-1.2813,-1.2813,-1.2813,-1.2956,-1.3168,-1.3447,-1.3653,-1.389,-1.4143,-1.4196,-1.4196,-1.4196,-1.4196,-1.4196,-1.4196,-1.4196,-1.4196,-1.4196,-1.4196,-1.4196,-1.4196,-1.4196,-1.4196,-1.4196,-1.4196,-1.4196,-1.4196,-1.4196,-1.4196,-1.4196,-1.4196,-1.4196,-1.4196,-1.4196,-1.4029,-1.3672,-1.3672,-1.3369,-1.274,-1.2196,-1.1814,-1.1568,-1.0994,-1.0496,-1.0162,-0.9636,-0.8668,-0.7454,-0.6907,-0.6186,-0.5409,-0.5409,-0.5409,-0.5409,-0.5409,-0.5409,-0.5409,-0.5409,-0.5409,-0.5409,-0.5409,-0.5409,-0.5409,-0.5409,-0.5409,-0.5409,-0.5409,-0.5409,-0.5409,-0.5409,-0.5409,-0.5409,-0.5409,-0.542,-0.5482,-0.554,-0.5632,-0.5632,-0.5324,-0.5615,-0.5485,-0.4129,-0.3913,-0.3481,-0.2188,-0.114,-0.0216,0.0586,0.1233,0.1973,0.2961,0.3549,0.3889,0.3889,0.3889,0.3889,0.3889,0.3889,0.3889,0.3889,0.3889,0.3889,0.3889,0.3889,0.3889,0.3889,0.3889,0.3889,0.3889,0.3889,0.4409,-1.2813,-1.2813,-1.2813,-1.2813,-1.3015,-1.3265,-1.3463,-1.3712,-1.3981,-1.4159,-1.4196,-1.4196,-1.4196,-1.4196,-1.4196,-1.4196,-1.4196,-1.4196,-1.4196,-1.4196,-1.4196,-1.4196,-1.4196,-1.4196,-1.4196,-1.4196,-1.4196,-1.4196,-1.4196,-1.4196,-1.4196,-1.4196,-1.4196,-1.4196,-1.4196,-1.4002,-1.3564,-1.3396,-1.2989,-1.2382,-1.1869,-1.1514,-1.1322,-1.0884,-1.0692,-1.0665,-1.0053,-0.9251,-0.8361,-0.7762,-0.6824,-0.577,-0.577,-0.5633,-0.5409,-0.5409,-0.5409,-0.5409,-0.5409,-0.5409,-0.5409,-0.5409,-0.5409,-0.5409,-0.5409,-0.5409,-0.5409,-0.5409,-0.5409,-0.5409,-0.5409,-0.5409,-0.5416,-0.5412,-0.5465,-0.5541,-0.563,-0.5735,-0.5686,-0.5282,-0.5421,-0.5298,-0.4343,-0.3883,-0.3484,-0.3054,-0.1819,-0.0832,-0.0524,0.0123,0.0955,0.1942,0.29,0.3611,0.3889,0.3889,0.3889,0.3889,0.3889,0.3889,0.3889,0.3889,0.3889,0.3889,0.3889,0.3889,0.3889,0.3889,0.3889,0.3889,0.3889,0.4378,-1.2813,-1.2813,-1.2813,-1.2813,-1.3145,-1.3501,-1.3506,-1.3846,-1.4191,-1.4196,-1.4196,-1.4196,-1.4196,-1.4196,-1.4196,-1.4196,-1.4196,-1.4196,-1.4196,-1.4196,-1.4196,-1.4196,-1.4196,-1.4196,-1.4196,-1.4196,-1.4196,-1.4196,-1.4196,-1.4196,-1.4196,-1.4196,-1.4196,-1.4196,-1.4196,-1.4196,-1.4191,-1.3591,-1.2989,-1.2382,-1.1869,-1.1295,-1.0719,-1.0692,-1.0692,-1.0692,-1.0692,-1.0194,-0.9388,-0.9388,-0.8312,-0.6687,-0.6687,-0.6158,-0.5409,-0.5409,-0.5409,-0.5409,-0.5409,-0.5409,-0.5409,-0.5409,-0.5409,-0.5409,-0.5409,-0.5409,-0.5409,-0.5409,-0.5409,-0.5409,-0.5409,-0.5409,-0.543,-0.5486,-0.5506,-0.5557,-0.5771,-0.581,-0.5808,-0.587,-0.536,-0.4894,-0.4894,-0.3852,-0.2992,-0.2992,-0.2408,-0.1636,-0.0616,-0.0493,-0.0092,0.0894,0.1911,0.29,0.3826,0.3889,0.3889,0.3889,0.3889,0.3889,0.3889,0.3889,0.3889,0.3889,0.3889,0.3889,0.3889,0.3889,0.3889,0.3889,0.3889,0.4624,-1.2813,-1.2813,-1.2813,-1.2813,-1.315,-1.3506,-1.3506,-1.3852,-1.4196,-1.4196,-1.4196,-1.4196,-1.4196,-1.4196,-1.4196,-1.4196,-1.4196,-1.4196,-1.4196,-1.4196,-1.4196,-1.4196,-1.4196,-1.4196,-1.4196,-1.4196,-1.4196,-1.4196,-1.4196,-1.4196,-1.4196,-1.4196,-1.4196,-1.4196,-1.4196,-1.4002,-1.3591,-1.2989,-1.2414,-1.1841,-1.1267,-1.0884,-1.0692,-1.0692,-1.0692,-1.0692,-1.0692,-1.0221,-0.9388,-0.9388,-0.8699,-0.7537,-0.6935,-0.652,-0.6214,-0.5633,-0.5409,-0.5409,-0.5409,-0.5409,-0.5409,-0.5409,-0.5409,-0.5409,-0.5409,-0.5409,-0.5409,-0.5409,-0.5409,-0.5409,-0.5409,-0.5424,-0.5473,-0.5502,-0.5604,-0.571,-0.5797,-0.5831,-0.5729,-0.5293,-0.5049,-0.474,-0.4281,-0.3544,-0.2992,-0.2992,-0.2439,-0.1883,-0.1574,-0.1512,-0.1141,-0.0123,0.0247,0.114,0.2806,0.3517,0.3889,0.3889,0.3889,0.3889,0.3889,0.3889,0.3889,0.3889,0.3889,0.3889,0.3889,0.3889,0.3889,0.3889,0.3889,0.4624,-1.2813,-1.2813,-1.2813,-1.2813,-1.315,-1.3506,-1.3506,-1.3852,-1.4196,-1.4196,-1.4196,-1.4196,-1.4196,-1.4196,-1.4196,-1.4196,-1.4196,-1.4196,-1.4196,-1.4196,-1.4196,-1.4196,-1.4196,-1.4196,-1.4196,-1.4196,-1.4196,-1.4196,-1.4196,-1.4196,-1.4196,-1.4196,-1.411,-1.3862,-1.3867,-1.3672,-1.3288,-1.2495,-1.1923,-1.1596,-1.0994,-1.0692,-1.0692,-1.0692,-1.0692,-1.0692,-1.0692,-1.0386,0.0,-0.9888,-0.9137,-0.7947,-0.7399,-0.6793,-0.6133,-0.5605,-0.5409,-0.5409,-0.5409,-0.5409,-0.5409,-0.5409,-0.5409,-0.5409,-0.5409,-0.5409,-0.5409,-0.5409,-0.5409,-0.5409,-0.5409,-0.5445,-0.5516,-0.5522,-0.5671,-0.582,-0.5825,-0.5878,-0.5763,-0.536,-0.4865,-0.4466,-0.4312,-0.3361,-0.2716,-0.2961,-0.2439,-0.2008,-0.2008,-0.2008,-0.1759,-0.1141,-0.074,0.0,0.1264,0.259,0.3517,0.3889,0.3889,0.3734,0.3394,0.3363,0.3363,0.3363,0.2992,0.3177,0.3889,0.3889,0.3889,0.3889,0.3889,0.4624,0.0,-1.2813,-1.2813,-1.2813,-1.315,-1.3506,-1.3506,-1.3852,0.0,-1.4196,-1.4196,-1.4196,-1.4196,-1.4196,-1.4196,-1.4196,-1.4196,-1.4196,-1.4196,-1.4196,-1.4196,-1.4196,-1.4196,-1.4196,-1.4196,-1.4196,-1.4196,-1.4196,-1.4196,-1.4196,-1.4196,-1.4169,-1.3894,-1.3315,-1.3207,-1.3207,-1.3234,-1.2141,-1.1596,-1.1596,-1.0994,-1.0692,-1.0692,-1.0692,-1.0692,-1.0692,-1.0692,-1.0692,-1.0692,-1.0692,-0.9719,-0.8195,-0.8112,-0.7066,-0.5575,-0.5521,-0.5465,-0.5409,-0.5409,-0.5409,-0.5409,-0.5409,-0.5409,-0.5409,-0.5409,-0.5409,-0.5409,-0.5409,-0.5409,-0.5409,-0.5418,-0.5453,-0.5512,-0.5603,-0.5725,-0.5814,-0.59,-0.5886,-0.5886,-0.5824,-0.4776,-0.4097,-0.4679,-0.3237,-0.2223,-0.2838,-0.2407,-0.2008,-0.2008,-0.2008,-0.2008,-0.2008,-0.1172,-0.0586,-0.0493,0.1264,0.2775,0.3642,0.3703,0.3301,0.2436,0.2405,0.2405,0.2405,0.1541,0.2004,0.3796,0.3859,0.3889,0.3889,0.3889,0.4624,-1.2813,0.0,-1.2813,-1.2813,-1.315,-1.3506,0.0,-1.3852,-1.4196,-1.4196,-1.4196,-1.4196,-1.4196,-1.4196,-1.4196,-1.4196,-1.4196,-1.4196,-1.4196,-1.4196,-1.4196,-1.4196,-1.4196,-1.4196,-1.4196,-1.4196,-1.4196,-1.4196,-1.4196,-1.4196,-1.4196,-1.3753,-1.3456,-1.3288,-1.2441,-1.2196,-1.2604,-1.1951,-1.1596,-1.1596,-1.0994,-1.0692,-1.0692,-1.0692,-1.0692,-1.0692,-1.0692,-1.0692,-1.0692,-1.0692,-1.0441,-0.9998,-0.9333,-0.8392,-0.7315,-0.6629,-0.5965,-0.5409,-0.5409,-0.5409,-0.5409,-0.5409,-0.5409,-0.5409,-0.5409,-0.5409,-0.5409,-0.5409,-0.5409,-0.5424,-0.5461,-0.5516,-0.5605,-0.5727,-0.5818,-0.5892,-0.5882,-0.5886,-0.5763,-0.5235,-0.4466,-0.379,-0.3515,-0.2653,-0.2038,-0.2223,-0.2099,-0.2008,-0.2008,-0.2008,-0.2008,-0.2008,-0.1791,-0.1327,-0.0555,0.0647,0.1449,0.1665,0.1695,0.1572,0.1356,0.1356,0.1356,0.1356,0.188,0.2374,0.2837,0.3549,0.3889,0.3889,0.3889,0.4624,-1.2813,-1.2813,-1.281,-1.2918,-1.3226,-1.3533,-1.3615,-1.3927,-1.4196,-1.4196,-1.4196,-1.4196,-1.4196,-1.4196,-1.4196,-1.4196,-1.4196,-1.4196,-1.4196,-1.4196,-1.4196,-1.4196,-1.4196,-1.4196,-1.4196,-1.4196,-1.4196,-1.4196,-1.4196,-1.4196,-1.4196,-1.3618,-1.3179,-1.2903,-1.206,-1.1732,-1.2032,-1.1455,-1.1185,-1.1185,-1.0857,-1.0692,-1.0692,-1.0692,-1.0692,-1.0692,-1.0692,-1.0692,-1.0692,-1.0692,-1.0489,-1.0143,-0.9666,-0.8938,-0.8043,-0.7152,-0.6476,-0.5938,-0.5549,-0.5409,-0.5409,-0.5409,-0.5409,-0.5409,-0.5409,-0.5408,-0.5431,-0.542,-0.541,-0.5449,-0.5496,-0.5606,-0.572,-0.5769,-0.5851,-0.5886,-0.5886,-0.5886,-0.57,-0.5018,-0.4373,-0.3698,-0.3115,-0.2439,-0.2008,-0.2008,-0.2008,-0.2008,-0.2008,-0.2008,-0.2008,-0.2008,-0.2008,-0.1791,-0.1234,-0.0679,0.0031,0.0955,0.0986,0.0801,0.0339,0.0308,0.0092,-0.037,0.1079,0.1819,0.1819,0.2775,0.3486,0.3889,0.3889,0.4439,-1.2813,-1.2813,-1.2843,-1.305,-1.3292,-1.354,-1.3739,-1.4013,-1.4196,-1.4196,-1.4196,-1.4196,-1.4196,-1.4196,-1.4196,-1.4196,-1.4196,-1.4196,-1.4196,-1.4196,-1.4196,-1.4196,-1.4196,-1.4196,-1.4196,-1.4196,-1.4196,-1.4196,-1.4196,-1.4169,-1.4056,-1.3483,-1.2876,-1.2305,-1.1759,-1.1459,-1.1459,-1.0966,-1.0692,-1.0692,-1.0692,-1.0692,-1.0692,-1.0692,-1.0692,-1.0692,-1.0692,-1.0708,-1.0764,-1.0764,-1.0389,-0.9833,-0.9833,-0.9319,-0.8435,-0.7536,-0.7015,-0.6624,-0.5721,-0.5409,-0.5409,-0.5409,-0.5409,-0.5412,-0.5426,-0.5451,-0.5496,-0.5439,-0.5473,-0.5531,-0.5545,-0.5663,-0.5814,-0.5798,-0.5861,-0.5886,-0.5886,-0.5886,-0.5669,-0.4896,-0.4281,-0.3667,-0.2961,-0.2376,-0.2008,-0.2008,-0.2008,-0.2008,-0.2008,-0.2008,-0.2008,-0.2008,-0.2008,-0.2008,-0.2008,-0.2008,-0.1266,0.0432,0.0555,0.0154,-0.0709,-0.074,-0.1141,-0.1977,-0.0185,0.077,0.077,0.1788,0.2683,0.3455,0.3611,0.4039,-1.2813,-1.2813,-1.2843,-1.305,-1.3292,-1.354,-1.3739,-1.4013,-1.4196,-1.4196,-1.4196,-1.4196,-1.4196,-1.4196,-1.4196,-1.4196,-1.4196,-1.4196,-1.4196,-1.4196,-1.4196,-1.4196,-1.4196,-1.4196,-1.4196,-1.4196,-1.4196,-1.4196,-1.4196,-1.3975,-1.3478,-1.2881,-1.2305,-1.1732,-1.1158,-1.0829,-1.0829,-1.0747,-1.0692,-1.0692,-1.0692,-1.0692,-1.0692,-1.0692,-1.0692,-1.0692,-1.0692,-1.0809,-1.0956,-1.0956,-1.094,-1.095,-1.095,-1.0429,-0.9515,-0.8476,-0.7601,-0.6809,-0.5771,-0.5409,-0.5409,-0.5409,-0.5409,-0.5424,-0.5467,-0.5496,-0.552,-0.5557,-0.5583,-0.5612,-0.5718,-0.5789,-0.58,-0.5878,-0.5906,-0.5886,-0.5886,-0.5886,-0.5546,-0.4283,-0.3974,-0.3513,-0.2346,-0.2069,-0.2008,-0.2008,-0.2008,-0.2008,-0.2008,-0.2008,-0.2008,-0.2008,-0.2008,-0.2008,-0.2008,-0.2008,-0.1853,-0.1544,-0.1543,-0.1605,-0.1759,-0.1759,-0.1853,-0.2008,-0.0863,-0.0277,-0.0277,0.074,0.1295,0.148,0.2312,0.3052,-1.2813,-1.2813,-1.2875,-1.3242,-1.342,-1.3598,-1.3938,-1.411,-1.4196,-1.4196,-1.4196,-1.4196,-1.4196,-1.4196,-1.4196,-1.4196,-1.4196,-1.4196,-1.4196,-1.4196,-1.4196,-1.4196,-1.4196,-1.4196,-1.4196,-1.4196,-1.4196,-1.4196,-1.4196,-1.4083,-1.3807,-1.2903,-1.2305,-1.2032,-1.1185,-1.0692,-1.0692,-1.0692,-1.0692,-1.0692,-1.0692,-1.0692,-1.0692,-1.0692,-1.0692,-1.07,-1.0798,-1.0919,-1.1004,-1.107,-1.1212,-1.137,-1.137,-1.1044,-1.0404,-0.8737,-0.7598,-0.6697,-0.573,-0.5409,-0.5409,-0.5409,-0.5412,-0.5457,-0.5496,-0.5578,-0.5663,-0.5706,-0.5718,-0.5727,-0.5769,-0.5818,-0.5865,-0.5906,-0.5886,-0.5886,-0.5886,-0.5607,-0.5082,-0.4098,-0.3637,-0.3115,-0.2161,-0.2008,-0.2008,-0.2008,-0.2008,-0.2008,-0.2008,-0.2008,-0.2008,-0.2008,-0.2008,-0.2008,-0.2008,-0.2008,-0.2008,-0.2008,-0.2008,-0.2008,-0.2008,-0.2008,-0.2008,-0.2008,-0.1543,-0.1048,-0.0493,-0.0031,0.0462,0.1017,0.2035,0.2651,-1.2813,-1.2826,-1.2972,-1.3398,-1.3506,-1.363,-1.4083,-1.4196,-1.4196,-1.4196,-1.4196,-1.4196,-1.4196,-1.4196,-1.4196,-1.4196,-1.4196,-1.4196,-1.4196,-1.4196,-1.4196,-1.4196,-1.4196,-1.4196,-1.4196,-1.4196,-1.4196,-1.4196,-1.4056,-1.3921,-1.378,-1.2767,-1.2141,-1.2001,-1.1154,-1.0692,-1.0692,-1.0692,-1.0692,-1.0692,-1.0692,-1.0692,-1.0692,-1.0692,-1.0744,-1.0793,-1.0935,-1.1045,-1.1131,-1.1232,-1.1399,-1.1565,-1.1565,-1.1276,-1.0691,-0.901,-0.7677,-0.6604,-0.5938,-0.5575,-0.5414,-0.5404,-0.5455,-0.5516,-0.5559,-0.5669,-0.5816,-0.5806,-0.5812,-0.5812,-0.5812,-0.5865,-0.5886,-0.5886,-0.5886,-0.5886,-0.5886,-0.536,-0.4711,-0.4037,-0.3422,-0.2776,-0.213,-0.2008,-0.2008,-0.2008,-0.2008,-0.2008,-0.2008,-0.2008,-0.2008,-0.2008,-0.2008,-0.2008,-0.2008,-0.2008,-0.2008,-0.2008,-0.2008,-0.2008,-0.2008,-0.2008,-0.2008,-0.2008,-0.2008,-0.1636,-0.0863,-0.0863,-0.0462,0.0308,0.1326,0.1911,-1.2813,-1.2945,-1.3147,-1.3436,-1.3506,-1.363,-1.4083,-1.4196,-1.4196,-1.4196,-1.4196,-1.4196,-1.4196,-1.4196,-1.4196,-1.4196,-1.4196,-1.4196,-1.4196,-1.4196,-1.4196,-1.4196,-1.4196,-1.4196,-1.4196,-1.4196,-1.4196,-1.4196,-1.3672,-1.3125,-1.255,-1.1978,-1.1404,-1.0829,-1.0747,-1.0692,-1.0692,-1.0692,-1.0692,-1.0692,-1.0692,-1.0692,-1.0692,-1.0692,-1.0813,-1.098,-1.0992,-1.1184,-1.1459,-1.1472,-1.1589,-1.1786,-1.1786,-1.1059,-0.995,-0.9614,-0.8314,-0.6687,-0.6631,-0.6077,-0.5422,-0.5473,-0.5502,-0.5539,-0.571,-0.5799,-0.5798,-0.5884,-0.5908,-0.5908,-0.5908,-0.5882,-0.5886,-0.5886,-0.5886,-0.5886,-0.5886,-0.536,-0.4711,-0.4037,-0.3422,-0.2776,-0.213,-0.2008,-0.2008,-0.2008,-0.2008,-0.2008,-0.2008,-0.2008,-0.2008,-0.2008,-0.2008,-0.2008,-0.2008,-0.2008,-0.2008,-0.2008,-0.2008,-0.2008,-0.2008,-0.2008,-0.2008,-0.2008,-0.2008,-0.1977,-0.1883,-0.1883,-0.1853,-0.176,-0.074,0.0216,-1.2813,-1.2956,-1.3163,-1.3441,-1.3588,-1.3776,-1.4116,-1.4196,-1.4196,-1.4196,-1.4196,-1.4196,-1.4196,-1.4196,-1.4196,-1.4196,-1.4196,-1.4196,-1.4196,-1.4196,-1.4196,-1.4196,-1.4196,-1.4196,-1.4196,-1.4196,-1.4196,-1.4196,-1.3645,-1.3207,-1.2957,-1.2087,-1.1514,-1.1267,-1.0911,-1.0692,-1.0692,-1.0692,-1.0692,-1.0692,-1.0692,-1.0692,-1.0692,-1.0692,-1.0729,-1.0829,-1.0947,-1.1074,-1.1204,-1.1285,-1.137,-1.1419,-1.1346,-1.1015,-1.0498,-0.9762,-0.8998,-0.8214,-0.7152,-0.6558,-0.6181,-0.5708,-0.5631,-0.569,-0.5789,-0.5821,-0.5874,-0.5908,-0.5886,-0.5886,-0.5886,-0.5886,-0.5886,-0.5886,-0.5886,-0.5886,-0.5886,-0.5053,-0.4189,-0.3944,-0.3085,-0.2285,-0.2038,-0.2008,-0.2008,-0.2008,-0.2008,-0.2008,-0.2008,-0.2008,-0.2008,-0.2008,-0.2008,-0.2008,-0.2008,-0.2008,-0.2008,-0.2008,-0.2008,-0.2008,-0.2008,-0.2008,-0.2008,-0.2008,-0.2008,-0.2008,-0.2008,-0.2008,-0.2008,-0.1977,-0.0956,0.0277,-1.2813,-1.3015,-1.3265,-1.3463,-1.3712,-1.3954,-1.4153,-1.4196,-1.4196,-1.4196,-1.4196,-1.4196,-1.4196,-1.4196,-1.4196,-1.4196,-1.4196,-1.4196,-1.4196,-1.4196,-1.4196,-1.4196,-1.4196,-1.4196,-1.4196,-1.4029,-1.3921,-1.3921,-1.3207,-1.2772,-1.2772,-1.1841,-1.1322,-1.1322,-1.0911,-1.0692,-1.0692,-1.0692,-1.0692,-1.0692,-1.0692,-1.0692,-1.0692,-1.0692,-1.0724,-1.0813,-1.0943,-1.1029,-1.1057,-1.1175,-1.1195,-1.1175,-1.1061,-1.0996,-1.0892,-1.009,-0.9673,-0.9255,-0.7748,-0.7093,-0.6772,-0.5919,-0.5729,-0.5816,-0.5816,-0.5867,-0.5886,-0.5886,-0.5886,-0.5886,-0.5886,-0.5886,-0.5886,-0.5886,-0.5886,-0.5855,-0.5638,-0.4682,-0.3852,-0.3667,-0.2746,-0.2008,-0.2008,-0.2008,-0.2008,-0.2008,-0.2008,-0.2008,-0.2008,-0.2008,-0.2008,-0.2008,-0.2008,-0.2008,-0.2008,-0.2008,-0.2008,-0.2008,-0.2008,-0.2008,-0.2008,-0.2008,-0.2008,-0.2008,-0.2008,-0.2008,-0.2008,-0.2008,-0.2008,-0.1977,-0.1296,-0.0185,-1.2789,-1.3139,-1.3506,-1.3506,-1.3841,-1.4196,-1.4196,-1.4196,-1.4196,-1.4196,-1.4196,-1.4196,-1.4196,-1.4196,-1.4196,-1.4196,-1.4196,-1.4196,-1.4196,-1.4196,-1.4196,-1.4196,-1.4191,-1.4191,-1.4191,-1.3645,-1.3288,-1.3288,-1.225,-1.1596,-1.1596,-1.1021,-1.0692,-1.0692,-1.0692,-1.0692,-1.0692,-1.0692,-1.0692,-1.0692,-1.0692,-1.0692,-1.0692,-1.0692,-1.0821,-1.0996,-1.0996,-1.1062,-1.1191,-1.1191,-1.1191,-1.1171,-1.1061,-1.0996,-1.0976,-1.0789,-1.0251,-0.949,-0.8552,-0.7726,-0.6976,-0.6109,-0.5812,-0.5798,-0.589,-0.5886,-0.5886,-0.5886,-0.5886,-0.5886,-0.5886,-0.5886,-0.5886,-0.5886,-0.5886,-0.573,-0.5049,-0.4373,-0.3729,-0.3115,-0.2469,-0.2008,-0.2008,-0.2008,-0.2008,-0.2008,-0.2008,-0.2008,-0.2008,-0.2008,-0.2008,-0.2008,-0.2008,-0.2008,-0.2008,-0.2008,-0.2008,-0.2008,-0.2008,-0.2008,-0.2008,-0.2008,-0.2008,-0.2008,-0.2008,-0.2008,-0.2008,-0.2008,-0.2008,-0.2008,-0.2008,-0.145,-1.2958,-1.3258,-1.3518,-1.368,-1.3959,-1.4196,-1.4196,-1.4196,-1.4196,-1.4196,-1.4196,-1.4196,-1.4196,-1.4196,-1.4196,-1.4196,-1.4196,-1.4196,-1.4196,-1.4196,-1.4196,-1.4196,-1.3834,-1.3564,-1.3564,-1.3012,-1.2659,-1.2659,-1.2005,-1.1596,-1.1596,-1.1021,-1.0692,-1.0692,-1.0692,-1.0692,-1.0692,-1.0692,-1.0692,-1.0692,-1.0692,-1.0692,-1.0692,-1.0692,-1.072,-1.0801,-1.0801,-1.0802,-1.085,-1.085,-1.085,-1.0846,-1.0794,-1.0882,-1.0992,-1.0935,-1.0827,-1.0614,-0.9768,-0.8899,-0.8014,-0.72,-0.645,-0.5882,-0.5908,-0.5886,-0.5886,-0.5886,-0.5886,-0.5886,-0.5886,-0.5886,-0.5886,-0.5886,-0.5886,-0.573,-0.5049,-0.4373,-0.3729,-0.3115,-0.2469,-0.2008,-0.2008,-0.2008,-0.2008,-0.2008,-0.2008,-0.2008,-0.2008,-0.2008,-0.2008,-0.2008,-0.2008,-0.2008,-0.2008,-0.2008,-0.2008,-0.2008,-0.2008,-0.2008,-0.2008,-0.2008,-0.2008,-0.2008,-0.2008,-0.2008,-0.2008,-0.2008,-0.2008,-0.2008,-0.2008,-0.1086,-1.2956,-1.3242,-1.3538,-1.3647,-1.3943,-1.4196,-1.4196,-1.4196,-1.4196,-1.4196,-1.4196,-1.4196,-1.4196,-1.4196,-1.4196,-1.4196,-1.4196,-1.4196,-1.4196,-1.4196,-1.4196,-1.4196,-1.3672,-1.3288,-1.3288,-1.255,-1.2087,-1.2087,-1.1568,-1.124,-1.124,-1.0911,-1.0692,-1.0692,-1.0692,-1.0692,-1.0692,-1.0692,-1.0692,-1.0692,-1.0692,-1.0692,-1.0692,-1.0692,-1.0692,-1.0692,-1.0692,-1.0692,-1.0692,-1.0692,-1.0692,-1.07,-1.0801,-1.0899,-1.1004,-1.1074,-1.1179,-1.12,-1.0296,-0.9692,-0.9069,-0.7809,-0.698,-0.6434,-0.6009,-0.5886,-0.5886,-0.5886,-0.5886,-0.5886,-0.5886,-0.5886,-0.5886,-0.5886,-0.57,-0.5329,-0.465,-0.4004,-0.3361,-0.2716,-0.2285,-0.2008,-0.2008,-0.2008,-0.2008,-0.2008,-0.2008,-0.2008,-0.2008,-0.2008,-0.2008,-0.2008,-0.2008,-0.2008,-0.2008,-0.2008,-0.2008,-0.2008,-0.2008,-0.2008,-0.2008,-0.2008,-0.2008,-0.2008,-0.2008,-0.2008,-0.2008,-0.2008,-0.192,-0.1806,-0.1806,-0.1067,-1.2843,-1.3172,-1.3517,-1.356,-1.3868,-1.4196,-1.4196,-1.4196,-1.4196,-1.4196,-1.4196,-1.4196,-1.4196,-1.4196,-1.4196,-1.4196,-1.4196,-1.4196,-1.4196,-1.4137,-1.411,-1.411,-1.3537,-1.3152,-1.3152,-1.2169,-1.1514,-1.1514,-1.1021,-1.0692,-1.0692,-1.0692,-1.0692,-1.0692,-1.0692,-1.0692,-1.0692,-1.0692,-1.0692,-1.0692,-1.0692,-1.0692,-1.0692,-1.0692,-1.0692,-1.0692,-1.0692,-1.0692,-1.0692,-1.0692,-1.0704,-1.0764,-1.0931,-1.1017,-1.1065,-1.1191,-1.1337,-1.1406,-1.0473,-1.0213,-0.9997,-0.8136,-0.7464,-0.7222,-0.6191,-0.5886,-0.5886,-0.5886,-0.5886,-0.5886,-0.5886,-0.5886,-0.5886,-0.5824,-0.5329,-0.4711,-0.4037,-0.3422,-0.2807,-0.213,-0.2008,-0.2008,-0.2008,-0.2008,-0.2008,-0.2008,-0.2008,-0.2008,-0.2008,-0.2008,-0.2008,-0.2008,-0.2008,-0.2008,-0.2008,-0.2008,-0.2008,-0.2008,-0.2008,-0.2008,-0.2008,-0.2008,-0.2008,-0.2008,-0.2008,-0.2009,-0.2011,-0.2011,-0.1839,-0.1485,-0.1485,-0.1306,-1.3247,-1.3425,-1.3598,-1.397,-1.4116,-1.4196,-1.4196,-1.4196,-1.4196,-1.4196,-1.4196,-1.4196,-1.4196,-1.4196,-1.4196,-1.4196,-1.4196,-1.4196,-1.4196,-1.378,-1.3483,-1.3483,-1.2577,-1.1978,-1.1978,-1.1322,-1.0884,-1.0884,-1.0774,-1.0692,-1.0692,-1.0692,-1.0692,-1.0692,-1.0692,-1.0692,-1.0692,-1.0692,-1.0692,-1.0692,-1.0692,-1.0692,-1.0692,-1.0692,-1.0692,-1.0692,-1.0692,-1.0692,-1.0692,-1.0692,-1.0777,-1.0943,-1.0984,-1.1167,-1.139,-1.1427,-1.1557,-1.1685,-1.1501,-1.0918,-1.0092,-0.8897,-0.8014,-0.7222,-0.6191,-0.5886,-0.5886,-0.5886,-0.5886,-0.5886,-0.5886,-0.5886,-0.5763,-0.5235,-0.5018,-0.4711,-0.4037,-0.3422,-0.2807,-0.213,-0.2008,-0.2008,-0.2008,-0.2008,-0.2008,-0.2008,-0.2008,-0.2008,-0.2008,-0.2008,-0.2008,-0.2008,-0.2008,-0.2008,-0.2008,-0.2008,-0.2008,-0.2008,-0.2008,-0.2008,-0.2008,-0.2008,-0.2008,-0.2008,-0.2008,-0.1988,-0.2009,-0.2009,-0.1835,-0.1508,-0.1508,-0.1164,-1.3231,-1.3414,-1.3619,-1.4073,-1.4196,-1.4196,-1.4196,-1.4196,-1.4196,-1.4196,-1.4196,-1.4196,-1.4196,-1.4196,-1.4196,-1.4196,-1.4196,-1.4196,-1.4196,-1.3672,-1.3288,-1.3288,-1.2278,-1.1596,-1.1596,-1.1048,-1.0692,-1.0692,-1.0692,-1.0692,-1.0692,-1.0692,-1.0692,-1.0692,-1.0692,-1.0692,-1.0692,-1.0692,-1.0692,-1.0692,-1.0692,-1.0692,-1.0692,-1.0692,-1.0692,-1.0692,-1.0692,-1.0692,-1.0692,-1.0692,-1.0829,-1.1004,-1.1057,-1.1256,-1.1508,-1.1602,-1.1725,-1.1806,-1.1806,-1.147,-1.0857,-0.9846,-0.8867,-0.7892,-0.6921,-0.628,-0.5886,-0.5886,-0.5886,-0.5886,-0.5886,-0.5669,-0.5327,-0.4988,-0.4648,-0.425,-0.3606,-0.2961,-0.2408,-0.2069,-0.2008,-0.2008,-0.2008,-0.2008,-0.2008,-0.2008,-0.2008,-0.2008,-0.2008,-0.2008,-0.2008,-0.2008,-0.2008,-0.2008,-0.2008,-0.2008,-0.2008,-0.2008,-0.2008,-0.2008,-0.2008,-0.2008,-0.2008,-0.2008,-0.199,-0.2004,-0.1987,-0.2033,-0.1767,-0.127,-0.127,-0.0886,-1.3093,-1.3378,-1.3722,-1.4094,-1.4196,-1.4196,-1.4196,-1.4196,-1.4196,-1.4196,-1.4196,-1.4196,-1.4196,-1.4196,-1.4196,-1.4196,-1.4196,-1.4196,-1.4196,-1.3591,-1.3152,-1.3152,-1.2141,-1.1432,-1.1432,-1.0994,-1.0692,-1.0692,-1.0692,-1.0692,-1.0692,-1.0692,-1.0692,-1.0692,-1.0692,-1.0692,-1.0692,-1.0692,-1.0692,-1.0692,-1.0692,-1.0692,-1.0692,-1.0692,-1.0692,-1.0692,-1.0692,-1.0692,-1.0692,-1.0752,-1.0846,-1.1057,-1.1204,-1.1382,-1.1565,-1.1749,-1.1806,-1.1806,-1.1806,-1.1806,-1.1621,-1.0641,-0.9724,-0.8836,-0.7739,-0.6827,-0.6131,-0.5947,-0.5824,-0.573,-0.573,-0.5235,-0.4711,-0.4588,-0.4158,-0.3606,-0.3115,-0.2469,-0.2008,-0.2008,-0.2008,-0.2008,-0.2008,-0.2008,-0.2008,-0.2008,-0.2008,-0.2008,-0.2008,-0.2008,-0.2008,-0.2008,-0.2008,-0.2008,-0.2008,-0.2008,-0.2008,-0.2008,-0.2008,-0.2008,-0.2008,-0.2012,-0.2015,-0.2015,-0.2007,-0.1992,-0.2002,-0.2059,-0.1729,-0.1025,-0.1025,-0.0666,-1.3333,-1.3781,-1.4116,-1.4175,-1.4196,-1.4196,-1.4196,-1.4196,-1.4196,-1.4196,-1.4196,-1.4196,-1.4196,-1.4196,-1.4196,-1.4196,-1.4196,-1.4196,-1.4196,-1.3234,-1.2523,-1.2523,-1.1509,-1.0829,-1.0829,-1.0747,-1.0692,-1.0692,-1.0692,-1.0692,-1.0692,-1.0692,-1.0692,-1.0692,-1.0692,-1.0692,-1.0692,-1.0692,-1.0692,-1.0692,-1.0692,-1.0692,-1.0692,-1.0692,-1.0692,-1.0692,-1.0692,-1.0692,-1.0704,-1.0894,-1.1033,-1.1179,-1.139,-1.1577,-1.1774,-1.1798,-1.1806,-1.1806,-1.1806,-1.1806,-1.1621,-1.0641,-1.0213,-0.9754,-0.7953,-0.7314,-0.7011,-0.616,-0.5483,-0.5049,-0.5049,-0.4527,-0.3913,-0.3391,-0.3176,-0.3085,-0.3023,-0.2469,-0.2008,-0.2008,-0.2008,-0.2008,-0.2008,-0.2008,-0.2008,-0.2008,-0.2008,-0.2008,-0.2008,-0.2008,-0.2008,-0.2008,-0.2008,-0.2008,-0.2008,-0.2008,-0.2008,-0.2008,-0.2008,-0.2008,-0.2008,-0.2,-0.2013,-0.2013,-0.1985,-0.2044,-0.2097,-0.2101,-0.1754,-0.1074,-0.1074,-0.0706,-1.3371,-1.383,-1.4196,-1.4196,-1.4196,-1.4196,-1.4196,-1.4196,-1.4196,-1.4196,-1.4196,-1.4196,-1.4196,-1.4196,-1.4196,-1.4196,-1.4196,-1.4196,-1.4196,-1.3152,-1.2414,-1.2414,-1.1404,-1.0692,-1.0692,-1.0692,-1.0692,-1.0692,-1.0692,-1.0692,-1.0692,-1.0692,-1.0692,-1.0692,-1.0692,-1.0692,-1.0692,-1.0692,-1.0692,-1.0692,-1.0692,-1.0692,-1.0692,-1.0692,-1.0692,-1.0692,-1.0692,-1.0692,-1.0708,-1.0919,-1.107,-1.1211,-1.1427,-1.1614,-1.1806,-1.1806,-1.1806,-1.1806,-1.1806,-1.1806,-1.1716,-1.1285,-1.0766,-1.0031,-0.8623,-0.7556,-0.6639,-0.5632,-0.4867,-0.4343,-0.4343,-0.3883,-0.333,-0.3054,-0.2716,-0.2439,-0.2439,-0.2223,-0.2008,-0.2008,-0.2008,-0.2008,-0.2008,-0.2008,-0.2008,-0.2008,-0.2008,-0.2008,-0.2008,-0.2008,-0.2008,-0.2008,-0.2008,-0.2008,-0.2008,-0.2008,-0.2008,-0.2008,-0.2008,-0.2015,-0.1999,-0.2011,-0.2003,-0.2069,-0.2069,-0.2082,-0.2109,-0.1927,-0.1572,-0.1111,-0.0875,-0.0505,-1.32,-1.3751,-1.4196,-1.4196,-1.4196,-1.4196,-1.4196,-1.4196,-1.4196,-1.4196,-1.4196,-1.4196,-1.4196,-1.4196,-1.4196,-1.4196,-1.4056,-1.3975,-1.3975,-1.2962,-1.2196,-1.2196,-1.1322,-1.0692,-1.0692,-1.0692,-1.0692,-1.0692,-1.0692,-1.0692,-1.0692,-1.0692,-1.0692,-1.0692,-1.0692,-1.0692,-1.0692,-1.0692,-1.0692,-1.0692,-1.0692,-1.0692,-1.0692,-1.0692,-1.0692,-1.0692,-1.0692,-1.0692,-1.0708,-1.094,-1.111,-1.1215,-1.148,-1.1654,-1.1806,-1.1806,-1.1806,-1.1806,-1.1806,-1.1806,-1.1806,-1.1806,-1.1285,-1.049,-0.939,-0.798,-0.6545,-0.5477,-0.4435,-0.3667,-0.3667,-0.3207,-0.2746,-0.2746,-0.2376,-0.2008,-0.2008,-0.2008,-0.2008,-0.2008,-0.2008,-0.2008,-0.2008,-0.2008,-0.2008,-0.2008,-0.2008,-0.2008,-0.2008,-0.2008,-0.2008,-0.2008,-0.2008,-0.2008,-0.2008,-0.2008,-0.2008,-0.2008,-0.2014,-0.1996,-0.1986,-0.2002,-0.2063,-0.2108,-0.2117,-0.2121,-0.2121,-0.1775,-0.1414,-0.1077,-0.0673,-0.0337,-1.2725,-1.3456,-1.4196,-1.4196,-1.4196,-1.4196,-1.4196,-1.4196,-1.4196,-1.4196,-1.4196,-1.4196,-1.4196,-1.4196,-1.4196,-1.4196,-1.3726,-1.3342,-1.3342,-1.2359,-1.165,-1.165,-1.1076,-1.0692,-1.0692,-1.0692,-1.0692,-1.0692,-1.0692,-1.0692,-1.0692,-1.0692,-1.0692,-1.0692,-1.0692,-1.0692,-1.0692,-1.0692,-1.0692,-1.0692,-1.0692,-1.0692,-1.0692,-1.0692,-1.0692,-1.0692,-1.0692,-1.0692,-1.072,-1.1037,-1.1183,-1.1228,-1.1622,-1.1798,-1.1806,-1.1806,-1.1806,-1.1806,-1.1806,-1.1806,-1.1806,-1.1806,-1.1776,-1.147,-1.0156,-0.8839,-0.7553,-0.6211,-0.4496,-0.3053,-0.3053,-0.2561,-0.2038,-0.2038,-0.2038,-0.2008,-0.2008,-0.2008,-0.2008,-0.2008,-0.2008,-0.2008,-0.2008,-0.2008,-0.2008,-0.2008,-0.2008,-0.2008,-0.2008,-0.2008,-0.2008,-0.2008,-0.2008,-0.2008,-0.2008,-0.2008,-0.2008,-0.2008,-0.2002,-0.1985,-0.1987,-0.2074,-0.2106,-0.2109,-0.2171,-0.2186,-0.2186,-0.1783,-0.1414,-0.1077,-0.0673,-0.0337,-1.2663,-1.2971,-1.3234,-1.4002,-1.3921,-1.3726,-1.411,-1.4196,-1.4196,-1.4196,-1.4196,-1.4196,-1.4196,-1.4196,-1.4056,-1.3699,-1.3456,-1.3152,-1.2767,-1.206,-1.1596,-1.1596,-1.1076,-1.0692,-1.0692,-1.0692,-1.0692,-1.0692,-1.0692,-1.0692,-1.0692,-1.0692,-1.0692,-1.0692,-1.0692,-1.0692,-1.0692,-1.0692,-1.0692,-1.0692,-1.0692,-1.0692,-1.0692,-1.0692,-1.0692,-1.0692,-1.0692,-1.0692,-1.072,-1.1045,-1.1195,-1.1228,-1.163,-1.1806,-1.1806,-1.1806,-1.1806,-1.1806,-1.1806,-1.1806,-1.1806,-1.1806,-1.1651,-1.1281,-1.0156,-0.9019,-0.7761,-0.5812,-0.4433,-0.3388,-0.2561,-0.2192,-0.2008,-0.2008,-0.2008,-0.2008,-0.2008,-0.2008,-0.2008,-0.2008,-0.2008,-0.2008,-0.2008,-0.2008,-0.2008,-0.2008,-0.2008,-0.2008,-0.2008,-0.2008,-0.2008,-0.2008,-0.2008,-0.2008,-0.2008,-0.2008,-0.2008,-0.2008,-0.2003,-0.2027,-0.2047,-0.2087,-0.2119,-0.2171,-0.1947,-0.1818,-0.1818,-0.1447,-0.1077,-0.0707,-0.0337,-0.0101,-1.2169,-1.241,-1.2631,-1.3645,-1.3456,-1.3207,-1.4029,-1.4029,-1.3894,-1.3894,-1.3894,-1.3894,-1.3894,-1.3726,-1.3591,-1.3591,-1.3261,-1.2849,-1.2468,-1.1755,-1.1295,-1.1295,-1.0939,-1.0692,-1.0692,-1.0692,-1.0692,-1.0692,-1.0692,-1.0692,-1.0692,-1.0692,-1.0692,-1.0692,-1.0692,-1.0692,-1.0692,-1.0692,-1.0692,-1.0692,-1.0692,-1.0692,-1.0692,-1.0692,-1.0692,-1.0692,-1.0692,-1.0692,-1.072,-1.1045,-1.1195,-1.1228,-1.163,-1.1806,-1.1806,-1.1806,-1.1806,-1.1806,-1.1806,-1.1806,-1.1776,-1.1682,-1.1492,-1.1122,-1.0243,-0.9201,-0.7881,-0.5808,-0.4584,-0.3601,-0.2346,-0.2008,-0.2008,-0.2008,-0.2008,-0.2008,-0.2008,-0.2008,-0.2008,-0.2008,-0.2008,-0.2008,-0.2008,-0.2008,-0.2008,-0.2008,-0.2008,-0.2008,-0.2008,-0.2008,-0.2008,-0.2008,-0.2008,-0.2008,-0.2008,-0.2008,-0.2012,-0.199,-0.2018,-0.2048,-0.211,-0.2108,-0.2168,-0.2188,-0.1818,-0.1548,-0.1447,-0.1077,-0.0774,-0.0505,-0.0168,0.0,0.0,0.0,0.0,-1.3125,-1.2822,-1.2686,-1.3894,-1.3699,-1.3261,-1.3261,-1.3261,-1.3261,-1.3261,-1.2794,-1.2767,-1.3975,-1.3152,-1.2359,-1.2355,-1.1404,-1.0692,-1.0692,-1.0692,-1.0692,-1.0692,-1.0692,-1.0692,-1.0692,-1.0692,-1.0692,-1.0692,-1.0692,-1.0692,-1.0692,-1.0692,-1.0692,-1.0692,-1.0692,-1.0692,-1.0692,-1.0692,-1.0692,-1.0692,-1.0692,-1.0692,-1.0692,-1.0692,-1.0692,-1.072,-1.1045,-1.1195,-1.1228,-1.163,-1.1806,-1.1806,-1.1806,-1.1806,-1.1806,-1.1806,-1.1806,-1.1742,-1.1398,-1.1303,-1.1152,-1.0486,-0.9383,-0.8003,-0.6416,-0.4977,-0.3662,-0.2346,-0.2008,-0.2008,-0.2008,-0.2008,-0.2008,-0.2008,-0.2008,-0.2008,-0.2008,-0.2008,-0.2008,-0.2008,-0.2008,-0.2008,-0.2008,-0.2008,-0.2008,-0.2008,-0.2008,-0.2008,-0.2008,-0.2008,-0.2008,-0.2008,-0.2008,-0.1988,-0.1985,-0.2047,-0.211,-0.2108,-0.2172,-0.2188,-0.2188,-0.1784,-0.1414,-0.1111,-0.0707,-0.0505,-0.0471,-0.0168,0.0,-1.1355,0.0,0.0,0.0,0.0,0.0,-1.274,-1.2767,-1.2659,-1.2659,-1.2659,-1.2659,-1.2659,-1.2518,-1.2523,-1.2849,-1.2305,-1.1678,-1.124,-1.0911,-1.0692,-1.0692,-1.0692,-1.0692,-1.0692,-1.0692,-1.0692,-1.0692,-1.0692,-1.0692,-1.0692,-1.0692,-1.0692,-1.0692,-1.0692,-1.0692,-1.0692,-1.0692,-1.0692,-1.0692,-1.0692,-1.0692,-1.0692,-1.0692,-1.0692,-1.0692,-1.0692,-1.0692,-1.072,-1.1045,-1.1195,-1.1228,-1.163,-1.1806,-1.1806,-1.1806,-1.1806,-1.1806,-1.1806,-1.1806,-1.1742,-1.1398,-1.1152,-1.0849,-1.0425,-0.9876,-0.9113,-0.7734,-0.6385,-0.4826,-0.2591,-0.2008,-0.2008,-0.2008,-0.2008,-0.2008,-0.2008,-0.2008,-0.2008,-0.2008,-0.2008,-0.2008,-0.2008,-0.2008,-0.2008,-0.2008,-0.2008,-0.2008,-0.2008,-0.2008,-0.2008,-0.2008,-0.2008,-0.2008,-0.2008,-0.2008,-0.1988,-0.1985,-0.2047,-0.211,-0.2108,-0.2172,-0.2188,-0.2188,-0.1582,-0.1178,-0.1111,-0.0707,-0.037,-0.0135,-0.0034,0.0,0.0,-1.0966,-1.0911,-1.1841,0.0,0.0,-1.2219,-1.2219,-1.206,-1.206,-1.206,-1.206,-1.206,-1.1869,-1.1755,-1.2032,-1.1596,-1.1185,-1.1103,-1.0857,-1.0692,-1.0692,-1.0692,-1.0692,-1.0692,-1.0692,-1.0692,-1.0692,-1.0692,-1.0692,-1.0692,-1.0692,-1.0692,-1.0692,-1.0692,-1.0692,-1.0692,-1.0692,-1.0692,-1.0692,-1.0692,-1.0692,-1.0692,-1.0692,-1.0692,-1.0692,-1.0692,-1.0692,-1.0712,-1.1001,-1.1159,-1.1224,-1.1545,-1.1737,-1.1806,-1.1806,-1.1806,-1.1806,-1.1806,-1.1712,-1.1553,-1.1212,-1.0849,-1.0516,-1.0183,-0.9943,-0.9545,-0.8255,-0.654,-0.4703,-0.3173,-0.2406,-0.2008,-0.2008,-0.2008,-0.2008,-0.2008,-0.2008,-0.2008,-0.2008,-0.2008,-0.2008,-0.2008,-0.2008,-0.2008,-0.2008,-0.2008,-0.2008,-0.2008,-0.2008,-0.2008,-0.2008,-0.2008,-0.2008,-0.2008,-0.2008,-0.2025,-0.2035,-0.2086,-0.2116,-0.2126,-0.2179,-0.2121,-0.1953,-0.138,-0.0942,-0.0639,-0.0404,-0.0202,0.0,0.0,0.0,0.0,0.0,0.0,-1.1377,-1.1103,0.0,-1.1973,-1.1841,-1.1514,-1.1514,-1.1514,-1.1514,-1.1514,-1.1048,-1.0884,-1.1404,-1.1048,-1.0884,-1.1432,-1.1048,-1.0692,-1.0692,-1.0692,-1.0692,-1.0692,-1.0692,-1.0692,-1.0692,-1.0692,-1.0692,-1.0692,-1.0692,-1.0692,-1.0692,-1.0692,-1.0692,-1.0692,-1.0692,-1.0692,-1.0692,-1.0692,-1.0692,-1.0692,-1.0692,-1.0692,-1.0692,-1.0692,-1.0692,-1.0704,-1.0899,-1.1049,-1.1211,-1.1427,-1.1614,-1.1806,-1.1776,-1.1742,-1.1742,-1.1716,-1.1492,-1.1182,-1.0849,-1.0547,-1.0243,-0.9913,-0.9792,-0.9545,-0.8255,-0.6171,-0.4274,-0.3967,-0.305,-0.2161,-0.2038,-0.2008,-0.2008,-0.2008,-0.2008,-0.2008,-0.2008,-0.2008,-0.2008,-0.2008,-0.2008,-0.2008,-0.2008,-0.2008,-0.2008,-0.2008,-0.2008,-0.2008,-0.2008,-0.2008,-0.2008,-0.2008,-0.2008,-0.2033,-0.2092,-0.2096,-0.2124,-0.2186,-0.2188,-0.202,-0.1616,-0.1212,-0.0707,0.0,0.0,0.0,0.0,0.0,0.0,-1.0684,-1.0692,-1.0719,-1.0857,-1.0802,0.0,-1.0994,-1.0939,-1.0884,-1.0884,-1.0884,-1.0884,-1.0884,-1.0774,-1.0747,-1.0857,-1.0774,-1.0747,-1.0857,-1.0774,-1.0692,-1.0692,-1.0692,-1.0692,-1.0692,-1.0692,-1.0692,-1.0692,-1.0692,-1.0692,-1.0692,-1.0692,-1.0692,-1.0692,-1.0692,-1.0692,-1.0692,-1.0692,-1.0692,-1.0692,-1.0692,-1.0692,-1.0692,-1.0692,-1.0692,-1.0692,-1.0692,-1.0692,-1.0692,-1.0729,-1.0936,-1.1211,-1.1427,-1.1614,-1.1776,-1.1492,-1.1398,-1.1367,-1.1095,-1.094,-1.0849,-1.0516,-1.0334,-1.0243,-0.9913,-0.9792,-0.9545,-0.8255,-0.752,-0.6632,-0.4458,-0.3722,-0.3265,-0.2253,-0.2008,-0.2008,-0.2008,-0.2008,-0.2008,-0.2008,-0.2008,-0.2008,-0.2008,-0.2008,-0.2008,-0.2008,-0.2008,-0.2008,-0.2008,-0.2008,-0.2008,-0.2008,-0.2008,-0.2008,-0.2008,-0.2008,-0.2033,-0.2092,-0.2096,-0.2124,-0.2186,-0.2188,-0.202,-0.1616,-0.0942,-0.0404,0.0,0.0,0.0,0.0,0.0,0.0,-1.0692,-1.0692,-1.0692,-1.0692,-1.0692,0.0,0.0,-1.0692,-1.0692,-1.0692,-1.0692,-1.0692,-1.0692,-1.0692,-1.0692,-1.0692,-1.0692,-1.0692,-1.0692,-1.0692,-1.0692,-1.0692,-1.0692,-1.0692,-1.0692,-1.0692,-1.0692,-1.0692,-1.0692,-1.0692,-1.0692,-1.0692,-1.0692,-1.0692,-1.0692,-1.0692,-1.0692,-1.0692,-1.0692,-1.0692,-1.0692,-1.0692,-1.0692,-1.0692,-1.0692,-1.0692,-1.0692,-1.0692,-1.0692,-1.0559,-1.0628,-1.0886,-1.1235,-1.1354,-1.1377,-1.1336,-1.1182,-1.1031,-1.0849,-1.0698,-1.0516,-1.0334,-1.0183,-1.0035,-0.9852,-0.9792,-0.9667,-0.9022,-0.8379,-0.7429,-0.5406,-0.4396,-0.357,-0.2315,-0.2008,-0.2008,-0.2008,-0.2008,-0.2008,-0.2008,-0.2008,-0.2008,-0.2008,-0.2008,-0.2008,-0.2008,-0.2008,-0.2008,-0.2008,-0.2008,-0.2008,-0.2008,-0.2008,-0.2008,-0.2008,-0.2008,-0.2033,-0.2092,-0.2096,-0.2124,-0.2186,-0.202,-0.1649,-0.1077,-0.0538,-0.0168,0.0,0.0,0.0,0.0,0.0,0.0,-1.0692,-1.0692,-1.0692,-1.0692,-1.0692,-1.0692,0.0,0.0,0.0,-1.0692,-1.0692,-1.0692,-1.0692,-1.0692,-1.068,-1.0647,-1.0672,-1.068,-1.0647,-1.0672,-1.0692,-1.0692,-1.0692,-1.0692,-1.0692,-1.0692,-1.0692,-1.0692,-1.0692,-1.0692,-1.0692,-1.0692,-1.0692,-1.0692,-1.0692,-1.0692,-1.0692,-1.0692,-1.0692,-1.0692,-1.0692,-1.0692,-1.0692,-1.0692,-1.0692,-1.0692,-1.0692,-1.0665,-1.061,-1.0394,-1.0338,-1.0402,-1.0857,-1.0984,-1.0928,-1.106,-1.094,-1.0698,-1.0637,-1.0425,-1.0213,-1.0213,-1.0035,-0.9792,-0.9792,-0.9792,-0.9792,-0.9792,-0.9052,-0.7889,-0.6324,-0.51,-0.3907,-0.2376,-0.2008,-0.2008,-0.2008,-0.2008,-0.2008,-0.2008,-0.2008,-0.2008,-0.2008,-0.2008,-0.2008,-0.2008,-0.2008,-0.2008,-0.2008,-0.2008,-0.2008,-0.2008,-0.2008,-0.2008,-0.2008,-0.2008,-0.2033,-0.2092,-0.2096,-0.2091,-0.2085,-0.1649,-0.1111,-0.0505,-0.0168,0.0,0.0,0.0,0.0,0.0,0.0,0.0,-1.0692,-1.0692,-1.0692,-1.0692,-1.0692,-1.0692,-1.0692,0.0,-1.0692,-1.0692,0.0,-1.0692,-1.0692,0.0,0.0,-1.0462,-1.059,-1.0639,-1.0458,-1.0595,-1.0692,-1.0692,-1.0692,-1.0692,-1.0692,-1.0692,-1.0692,-1.0692,-1.0692,-1.0692,-1.0692,-1.0692,-1.0692,-1.0692,-1.0692,-1.0692,-1.0692,-1.0692,-1.0692,-1.0692,-1.0692,-1.0692,-1.0692,-1.0692,-1.0692,-1.0692,-1.0692,-1.0582,-1.0339,-1.0312,-1.0131,-0.9904,-1.0267,-1.0493,-1.0632,-1.0462,-1.0395,-1.0304,-1.0035,-0.9879,-0.9852,-0.9852,-0.9819,-0.9792,-0.9792,-0.9792,-0.9792,-0.9792,-0.9697,-0.9022,-0.6538,-0.5774,-0.504,-0.2591,-0.2008,-0.2008,-0.2008,-0.2008,-0.2008,-0.2008,-0.2008,-0.2008,-0.2008,-0.2008,-0.2008,-0.2008,-0.2008,-0.2008,-0.2008,-0.2008,-0.2008,-0.2008,-0.2008,-0.2008,-0.2008,-0.2008,-0.2033,-0.2092,-0.2096,-0.1961,-0.1681,-0.101,-0.0572,-0.0505,-0.0168,0.0,0.0,0.0,0.0,0.0,0.0,0.0,-1.0692,-1.0692,-1.0692,-1.0692,-1.0692,-1.0692,-1.0692,-1.0692,-1.0692,-1.0692,0.0,0.0,0.0,0.0,0.0,0.0,-1.0643,-1.0668,-1.0595,-1.0647,-1.0692,-1.0692,-1.0692,-1.0692,-1.0692,-1.0692,-1.0692,-1.0692,-1.0692,-1.0692,-1.0692,-1.0692,-1.0692,-1.0692,-1.0692,-1.0692,-1.0692,-1.0692,-1.0692,-1.0692,-1.0692,-1.0692,-1.0692,-1.0692,-1.0692,-1.0692,-1.0527,-1.039,-1.0257,-0.9926,-0.9706,-0.9566,-0.9645,-0.986,-1.0138,-1.0179,-1.0109,-1.0001,-0.9852,-0.9792,-0.9792,-0.9792,-0.9792,-0.9792,-0.9792,-0.9792,-0.9792,-0.9792,-0.9792,-0.939,-0.7551,-0.6477,-0.5439,-0.3541,-0.253,-0.2008,-0.2008,-0.2008,-0.2008,-0.2008,-0.2008,-0.2008,-0.2008,-0.2008,-0.2008,-0.2008,-0.2008,-0.2008,-0.2008,-0.2008,-0.2008,-0.2008,-0.2008,-0.2008,-0.2008,-0.2008,-0.2033,-0.2092,-0.1933,-0.1562,-0.0976,-0.0673,-0.0404,-0.0202,-0.0067,0.0,0.0,0.0,0.0,0.0,0.0,0.0,-1.0692,-1.0692,-1.0692,-1.0692,-1.0692,-1.0692,-1.0692,-1.0692,-1.0692,-1.0692,-1.0692,0.0,0.0,0.0,-1.0676,-1.0631,0.0,-1.0676,-1.0627,-1.0664,-1.0692,-1.0692,-1.0692,-1.0692,-1.0692,-1.0692,-1.0692,-1.0692,-1.0692,-1.0692,-1.0692,-1.0692,-1.0692,-1.0692,-1.0692,-1.0692,-1.0692,-1.0692,-1.0692,-1.0692,-1.0692,-1.0692,-1.0692,-1.0692,-1.0692,-1.0692,-1.0421,-1.0257,-1.0119,-0.9599,-0.9351,-0.9251,-0.9164,-0.9326,-0.9658,-0.9891,-0.9882,-0.9737,-0.9775,-0.9792,-0.9792,-0.9792,-0.9792,-0.9792,-0.9792,-0.9792,-0.9792,-0.9792,-0.9792,-0.9515,-0.8224,-0.7182,-0.6018,-0.4304,-0.3203,-0.2437,-0.2069,-0.2008,-0.2008,-0.2008,-0.2008,-0.2008,-0.2008,-0.2008,-0.2008,-0.2008,-0.2008,-0.2008,-0.2008,-0.2008,-0.2008,-0.2008,-0.2008,-0.2008,-0.2008,-0.2008,-0.1971,-0.1931,-0.1624,-0.1178,-0.0538,-0.0404,-0.0236,0.0,0.0,0.0,0.0,0.0,0.0,0.0,0.0,0.0,-1.0692,-1.0692,-1.0692,-1.0692,-1.0692,-1.0692,-1.0692,-1.0692,-1.0692,-1.0692,-1.0692,-1.0692,-1.0692,-1.0692,0.0,0.0,-1.0582,0.0,0.0,-1.0586,-1.0692,-1.0692,-1.0692,-1.0692,-1.0692,-1.0692,-1.0692,-1.0692,-1.0692,-1.0692,-1.0692,-1.0692,-1.0692,-1.0692,-1.0692,-1.0692,-1.0692,-1.0692,-1.0692,-1.0692,-1.0692,-1.0692,-1.0692,-1.0692,-1.0692,-1.0692,-1.0421,-1.0119,-0.9789,-0.9517,-0.9213,-0.8912,-0.8916,-0.9032,-0.9255,-0.9526,-0.9612,-0.9635,-0.9744,-0.9792,-0.9792,-0.9792,-0.9792,-0.9792,-0.9792,-0.9792,-0.9792,-0.9792,-0.9792,-0.9515,-0.8224,-0.7856,-0.7182,-0.4519,-0.3875,-0.3509,-0.2253,-0.2008,-0.2008,-0.2008,-0.2008,-0.2008,-0.2008,-0.2008,-0.2008,-0.2008,-0.2008,-0.2008,-0.2008,-0.2008,-0.2008,-0.2008,-0.2008,-0.2008,-0.2008,-0.2008,-0.1876,-0.1545,-0.1259,-0.0942,-0.0505,-0.0202,0.0,0.0,0.0,0.0,0.0,0.0,0.0,0.0,0.0,0.0,-1.0692,-1.0692,-1.0692,-1.0692,-1.0692,-1.0692,-1.0692,-1.0692,-1.0692,-1.0692,-1.0692,-1.0692,-1.0692,-1.0692,0.0,0.0,0.0,-1.0672,0.0,-1.0655,-1.0692,-1.0692,-1.0692,-1.0692,-1.0692,-1.0692,-1.0692,-1.0692,-1.0692,-1.0692,-1.0692,-1.0692,-1.0692,-1.0692,-1.0692,-1.0692,-1.0692,-1.0692,-1.0692,-1.0692,-1.0692,-1.0692,-1.0692,-1.0692,-1.061,-1.0421,-1.0091,-0.9816,-0.9517,-0.9185,-0.8992,-0.8912,-0.8912,-0.894,-0.9049,-0.9347,-0.952,-0.9632,-0.9741,-0.9792,-0.9792,-0.9792,-0.9792,-0.9792,-0.9792,-0.9792,-0.9792,-0.9792,-0.9792,-0.9697,-0.9268,-0.8532,-0.7459,-0.5651,-0.455,-0.3539,-0.2284,-0.2008,-0.2008,-0.2008,-0.2008,-0.2008,-0.2008,-0.2008,-0.2008,-0.2008,-0.2008,-0.2008,-0.2008,-0.2008,-0.2008,-0.2008,-0.2008,-0.2008,-0.2008,-0.2044,-0.1819,-0.1192,-0.1126,-0.0808,-0.0202,-0.0067,0.0,0.0,0.0,0.0,0.0,0.0,0.0,0.0,0.0,0.0,-1.0802,-1.0692,-1.0692,-1.0692,-1.0692,-1.0692,-1.0692,-1.0692,-1.0692,-1.0692,-1.0692,-1.0692,-1.0692,-1.0692,-1.0692,0.0,0.0,0.0,0.0,-1.0692,-1.0692,-1.0692,-1.0692,-1.0692,-1.0692,-1.0692,-1.0692,-1.0692,-1.0692,-1.0692,-1.0692,-1.0692,-1.0692,-1.0692,-1.0692,-1.0692,-1.0692,-1.0692,-1.0692,-1.0692,-1.0692,-1.0692,-1.0692,-1.0692,-1.061,-1.0421,-0.9981,-0.9706,-0.9517,-0.9075,-0.8912,-0.8912,-0.8912,-0.8912,-0.894,-0.9211,-0.9432,-0.9632,-0.9741,-0.9792,-0.9792,-0.9792,-0.9792,-0.9792,-0.9792,-0.9792,-0.9781,-0.9727,-0.9751,-0.9778,-0.9727,-0.9142,-0.8133,-0.6324,-0.5253,-0.4122,-0.2376,-0.2008,-0.2008,-0.2008,-0.2008,-0.2008,-0.2008,-0.2008,-0.2008,-0.2008,-0.2008,-0.2008,-0.2008,-0.2008,-0.2008,-0.2008,-0.2008,-0.2008,-0.2008,-0.1926,-0.1635,-0.1031,-0.0923,-0.0636,-0.0034,0.0,0.0,0.0,0.0,0.0,0.0,0.0,0.0,0.0,0.0,0.0]},{"header":{"parameterUnit":"m.s-1","parameterCategory":1,"la1":30.6,"la2":29.2853,"lo1":-89.7004,"lo2":-87.6739,"dy":0.0162,"dx":0.0183,"nx":112,"ny":82,"refTime":"2023-09-16T00:00:00:Z","depth":0,"parameterNumber":3,"parameterNumberName":"V-component_of_WINDS"},"data":[0.0,0.0,0.0,0.0,0.0,0.0,0.0,0.0,0.0,0.0,0.0,0.0,0.0,0.0,0.0,0.0,0.0,0.0,0.0,0.0,0.0,0.0,0.0,0.0,0.0,0.0,0.0,0.0,0.0,0.0,0.0,0.0,0.0,0.0,0.0,0.0,0.0,0.0,0.0,0.0,0.0,0.0,0.0,0.0,0.0,0.0,0.0,0.0,0.0,0.0,0.0,0.0,0.0,0.0,0.0,0.0,0.0,0.0,0.0,0.0,0.0,0.0,0.0,0.0,0.0,0.0,0.0,0.0,0.0,0.0,0.0,0.0,0.0,0.0,0.0,0.0,0.0,0.0,0.0,0.0,0.0,0.0,0.0,0.0,0.0,0.0,0.0,0.0,0.0,0.0,3.8255,3.8363,3.849,3.8519,3.8406,3.8302,3.851,3.9056,0.0,0.0,0.0,0.0,0.0,0.0,0.0,0.0,0.0,0.0,0.0,0.0,0.0,0.0,0.0,0.0,0.0,0.0,0.0,0.0,0.0,0.0,0.0,0.0,0.0,0.0,0.0,0.0,0.0,0.0,0.0,0.0,0.0,0.0,0.0,0.0,0.0,0.0,0.0,0.0,0.0,0.0,0.0,0.0,0.0,0.0,0.0,0.0,0.0,0.0,0.0,0.0,0.0,0.0,0.0,0.0,0.0,0.0,0.0,0.0,0.0,0.0,0.0,0.0,0.0,0.0,0.0,0.0,0.0,0.0,0.0,0.0,0.0,0.0,0.0,0.0,0.0,0.0,0.0,0.0,0.0,0.0,0.0,0.0,0.0,0.0,0.0,0.0,0.0,0.0,0.0,0.0,0.0,0.0,0.0,0.0,0.0,0.0,0.0,0.0,0.0,0.0,0.0,0.0,3.8454,3.9142,3.9786,4.013,4.0121,3.995,3.9894,3.9992,0.0,0.0,0.0,0.0,0.0,0.0,0.0,0.0,0.0,0.0,0.0,0.0,0.0,0.0,0.0,0.0,0.0,0.0,0.0,0.0,0.0,0.0,0.0,0.0,0.0,0.0,0.0,0.0,0.0,0.0,0.0,0.0,0.0,0.0,0.0,0.0,0.0,0.0,0.0,0.0,0.0,0.0,0.0,0.0,0.0,0.0,0.0,0.0,0.0,0.0,0.0,0.0,0.0,0.0,0.0,0.0,0.0,0.0,0.0,0.0,0.0,0.0,0.0,0.0,0.0,0.0,0.0,0.0,0.0,0.0,0.0,0.0,0.0,0.0,0.0,0.0,0.0,0.0,0.0,0.0,0.0,0.0,0.0,0.0,0.0,0.0,0.0,0.0,0.0,0.0,0.0,0.0,0.0,0.0,0.0,0.0,0.0,0.0,0.0,0.0,0.0,0.0,0.0,3.9206,3.9586,3.9967,4.0302,4.0572,4.076,4.058,4.0655,4.1089,3.9869,0.0,0.0,0.0,0.0,0.0,0.0,0.0,0.0,0.0,0.0,0.0,0.0,0.0,0.0,0.0,0.0,0.0,0.0,0.0,0.0,0.0,0.0,0.0,0.0,0.0,0.0,0.0,0.0,0.0,0.0,0.0,0.0,0.0,0.0,0.0,0.0,0.0,0.0,0.0,0.0,0.0,0.0,0.0,0.0,0.0,0.0,0.0,0.0,0.0,0.0,0.0,0.0,0.0,0.0,0.0,0.0,0.0,0.0,0.0,0.0,0.0,0.0,0.0,0.0,0.0,0.0,0.0,0.0,0.0,0.0,0.0,0.0,0.0,0.0,0.0,0.0,0.0,0.0,0.0,0.0,0.0,0.0,0.0,0.0,0.0,0.0,0.0,0.0,0.0,0.0,0.0,0.0,0.0,0.0,0.0,0.0,0.0,0.0,0.0,0.0,0.0,0.0,4.045,4.0993,4.0906,4.1139,4.1411,4.1664,4.1531,4.1644,4.2157,4.1443,0.0,0.0,0.0,0.0,0.0,0.0,0.0,0.0,0.0,0.0,0.0,0.0,0.0,0.0,0.0,0.0,0.0,0.0,0.0,0.0,0.0,0.0,0.0,0.0,0.0,0.0,0.0,0.0,0.0,0.0,0.0,0.0,0.0,0.0,0.0,0.0,0.0,0.0,0.0,0.0,0.0,0.0,0.0,0.0,0.0,0.0,0.0,0.0,0.0,0.0,0.0,0.0,0.0,0.0,0.0,0.0,0.0,0.0,0.0,0.0,0.0,0.0,0.0,0.0,0.0,0.0,0.0,0.0,0.0,0.0,0.0,0.0,0.0,0.0,0.0,0.0,0.0,0.0,0.0,0.0,0.0,0.0,0.0,0.0,0.0,0.0,0.0,0.0,0.0,0.0,0.0,0.0,0.0,0.0,0.0,0.0,0.0,0.0,0.0,0.0,0.0,0.0,4.1673,4.2424,4.2119,4.3028,4.3674,4.3687,4.3627,4.3418,4.3041,4.2896,0.0,0.0,0.0,0.0,0.0,0.0,0.0,0.0,0.0,0.0,0.0,0.0,0.0,0.0,0.0,0.0,0.0,0.0,0.0,0.0,0.0,0.0,0.0,0.0,0.0,0.0,0.0,0.0,0.0,0.0,0.0,0.0,0.0,0.0,0.0,0.0,0.0,0.0,0.0,0.0,0.0,0.0,0.0,0.0,0.0,0.0,0.0,0.0,0.0,0.0,0.0,0.0,0.0,0.0,0.0,0.0,0.0,0.0,0.0,0.0,0.0,0.0,0.0,0.0,0.0,0.0,0.0,0.0,0.0,0.0,0.0,0.0,0.0,0.0,0.0,0.0,0.0,0.0,0.0,0.0,0.0,0.0,0.0,0.0,0.0,0.0,0.0,0.0,0.0,0.0,0.0,0.0,0.0,0.0,0.0,0.0,0.0,0.0,0.0,0.0,0.0,0.0,4.2672,4.3401,4.3275,4.3648,4.3989,4.4198,4.4121,4.3935,4.3668,0.0,0.0,0.0,0.0,0.0,0.0,0.0,0.0,0.0,0.0,0.0,0.0,0.0,0.0,0.0,0.0,0.0,0.0,0.0,0.0,0.0,0.0,0.0,0.0,0.0,0.0,0.0,0.0,0.0,0.0,0.0,0.0,0.0,0.0,0.0,0.0,0.0,0.0,0.0,0.0,0.0,0.0,0.0,0.0,0.0,0.0,0.0,0.0,0.0,0.0,0.0,0.0,0.0,0.0,0.0,0.0,0.0,0.0,0.0,0.0,0.0,0.0,0.0,0.0,0.0,0.0,0.0,0.0,0.0,0.0,0.0,0.0,0.0,0.0,0.0,0.0,0.0,0.0,0.0,0.0,0.0,0.0,0.0,0.0,0.0,0.0,0.0,0.0,0.0,0.0,0.0,0.0,0.0,0.0,0.0,0.0,0.0,0.0,0.0,0.0,0.0,0.0,4.255,4.3544,4.4176,4.4072,4.4154,4.4318,4.4544,4.4469,4.4296,4.4024,0.0,0.0,0.0,0.0,0.0,0.0,0.0,0.0,0.0,0.0,0.0,0.0,0.0,0.0,0.0,0.0,0.0,0.0,0.0,0.0,0.0,0.0,0.0,0.0,0.0,0.0,0.0,0.0,0.0,0.0,0.0,0.0,0.0,0.0,0.0,0.0,0.0,0.0,0.0,0.0,0.0,0.0,0.0,0.0,0.0,0.0,0.0,0.0,0.0,0.0,0.0,0.0,0.0,0.0,0.0,0.0,0.0,0.0,0.0,0.0,0.0,0.0,0.0,0.0,0.0,0.0,0.0,0.0,0.0,0.0,0.0,0.0,0.0,0.0,0.0,0.0,0.0,0.0,0.0,0.0,0.0,0.0,0.0,0.0,0.0,0.0,0.0,0.0,0.0,0.0,0.0,0.0,0.0,0.0,0.0,0.0,0.0,0.0,0.0,0.0,0.0,0.0,4.3355,4.4278,4.4777,4.4443,4.47,4.4895,4.4895,4.4895,4.4636,0.0,0.0,0.0,0.0,0.0,0.0,0.0,0.0,0.0,0.0,0.0,0.0,0.0,0.0,0.0,0.0,0.0,0.0,0.0,0.0,0.0,0.0,0.0,0.0,0.0,0.0,0.0,0.0,0.0,0.0,0.0,0.0,0.0,0.0,0.0,0.0,0.0,0.0,0.0,0.0,0.0,0.0,0.0,0.0,0.0,0.0,0.0,0.0,0.0,0.0,0.0,0.0,0.0,0.0,0.0,0.0,0.0,0.0,0.0,0.0,0.0,0.0,0.0,0.0,0.0,0.0,0.0,0.0,0.0,0.0,0.0,0.0,0.0,0.0,0.0,0.0,0.0,0.0,0.0,0.0,0.0,0.0,0.0,0.0,0.0,0.0,0.0,0.0,0.0,0.0,0.0,0.0,0.0,0.0,0.0,0.0,0.0,0.0,0.0,0.0,0.0,0.0,0.0,4.412,4.4603,4.4864,4.477,4.4846,4.4895,4.4895,4.4895,4.4777,4.4508,0.0,0.0,0.0,0.0,0.0,0.0,0.0,0.0,0.0,0.0,0.0,0.0,0.0,0.0,0.0,0.0,0.0,0.0,0.0,0.0,0.0,0.0,0.0,0.0,0.0,0.0,0.0,0.0,0.0,0.0,0.0,0.0,0.0,0.0,0.0,0.0,0.0,0.0,0.0,0.0,0.0,0.0,0.0,0.0,0.0,0.0,0.0,0.0,0.0,0.0,0.0,0.0,0.0,0.0,0.0,0.0,0.0,0.0,0.0,0.0,0.0,0.0,0.0,0.0,0.0,0.0,0.0,0.0,0.0,0.0,0.0,0.0,0.0,0.0,0.0,0.0,0.0,0.0,0.0,0.0,0.0,0.0,0.0,0.0,0.0,0.0,0.0,0.0,0.0,0.0,0.0,0.0,0.0,0.0,0.0,0.0,0.0,0.0,0.0,0.0,0.0,0.0,4.4999,4.5533,4.5899,4.5899,4.5899,4.5899,4.5899,4.5899,4.5843,4.5699,0.0,0.0,0.0,0.0,0.0,0.0,0.0,0.0,0.0,0.0,0.0,0.0,0.0,0.0,0.0,0.0,0.0,0.0,0.0,0.0,0.0,0.0,0.0,0.0,0.0,0.0,0.0,0.0,0.0,0.0,0.0,0.0,0.0,0.0,0.0,0.0,0.0,0.0,0.0,0.0,0.0,0.0,0.0,0.0,0.0,0.0,0.0,0.0,0.0,0.0,0.0,0.0,0.0,0.0,0.0,0.0,0.0,0.0,0.0,0.0,0.0,0.0,0.0,0.0,0.0,0.0,0.0,0.0,0.0,0.0,0.0,0.0,0.0,0.0,0.0,0.0,0.0,0.0,0.0,0.0,0.0,0.0,0.0,0.0,0.0,0.0,0.0,0.0,0.0,0.0,0.0,0.0,0.0,0.0,0.0,0.0,0.0,0.0,0.0,0.0,0.0,0.0,4.5959,4.6826,4.7409,4.7409,4.7403,4.7403,4.7403,4.7403,4.7351,4.7224,0.0,0.0,0.0,0.0,0.0,0.0,0.0,0.0,0.0,0.0,0.0,0.0,0.0,0.0,0.0,0.0,0.0,0.0,0.0,0.0,0.0,0.0,0.0,0.0,0.0,0.0,0.0,0.0,0.0,0.0,0.0,0.0,0.0,0.0,0.0,0.0,0.0,0.0,0.0,0.0,0.0,0.0,0.0,0.0,0.0,0.0,0.0,0.0,0.0,0.0,0.0,0.0,0.0,0.0,0.0,0.0,0.0,0.0,0.0,0.0,3.2812,3.2043,0.0,0.0,0.0,0.0,0.0,0.0,0.0,0.0,0.0,0.0,0.0,0.0,0.0,0.0,0.0,0.0,0.0,0.0,0.0,0.0,0.0,0.0,0.0,0.0,0.0,0.0,0.0,0.0,0.0,0.0,0.0,0.0,0.0,0.0,0.0,0.0,0.0,0.0,0.0,0.0,4.7174,4.7402,4.7479,4.7479,4.7435,4.7403,4.7403,4.7403,4.739,4.7358,4.7224,0.0,0.0,0.0,0.0,0.0,0.0,0.0,0.0,0.0,0.0,0.0,0.0,0.0,0.0,0.0,0.0,0.0,0.0,0.0,0.0,0.0,0.0,0.0,0.0,0.0,0.0,0.0,0.0,0.0,0.0,0.0,0.0,0.0,0.0,0.0,0.0,0.0,0.0,0.0,0.0,0.0,0.0,0.0,0.0,0.0,0.0,0.0,0.0,0.0,0.0,0.0,0.0,0.0,0.0,0.0,0.0,0.0,0.0,0.0,3.4397,3.3459,0.0,0.0,0.0,0.0,0.0,0.0,0.0,0.0,0.0,0.0,0.0,0.0,0.0,0.0,0.0,0.0,0.0,0.0,0.0,0.0,0.0,0.0,0.0,0.0,0.0,0.0,0.0,0.0,0.0,0.0,0.0,0.0,0.0,0.0,0.0,0.0,0.0,0.0,0.0,0.0,4.8232,4.8572,4.8758,4.8758,4.8682,4.8643,4.8643,4.8617,4.8597,4.8597,4.8481,0.0,0.0,0.0,0.0,0.0,0.0,0.0,0.0,0.0,0.0,0.0,0.0,0.0,0.0,0.0,0.0,0.0,0.0,0.0,0.0,0.0,0.0,0.0,0.0,0.0,0.0,0.0,0.0,0.0,0.0,0.0,0.0,0.0,0.0,0.0,0.0,0.0,0.0,0.0,0.0,0.0,0.0,0.0,0.0,0.0,0.0,0.0,0.0,0.0,0.0,0.0,0.0,0.0,3.7718,3.8135,3.8285,3.8127,3.8137,3.8192,3.6182,3.5415,3.5512,3.5273,0.0,0.0,0.0,0.0,0.0,0.0,0.0,0.0,0.0,0.0,0.0,0.0,0.0,0.0,0.0,0.0,0.0,0.0,0.0,0.0,0.0,0.0,4.2612,4.2391,4.2632,4.2828,4.2542,0.0,0.0,0.0,0.0,0.0,0.0,0.0,0.0,0.0,0.0,0.0,4.9208,4.9745,5.012,5.012,5.0063,5.0018,5.0005,4.9959,4.9899,4.9905,4.9807,4.9403,0.0,0.0,0.0,0.0,0.0,0.0,0.0,0.0,0.0,0.0,0.0,0.0,0.0,0.0,0.0,0.0,0.0,0.0,0.0,0.0,0.0,0.0,0.0,0.0,0.0,0.0,0.0,0.0,0.0,0.0,0.0,0.0,3.3037,3.3174,0.0,0.0,0.0,0.0,0.0,0.0,0.0,0.0,0.0,0.0,0.0,0.0,0.0,3.7892,3.7765,3.8009,3.8125,3.8095,3.8212,3.8277,3.8306,3.8277,3.8277,3.8285,3.796,0.0,3.7688,3.7529,0.0,0.0,0.0,0.0,0.0,0.0,0.0,0.0,0.0,0.0,0.0,0.0,0.0,0.0,0.0,0.0,0.0,0.0,0.0,0.0,0.0,0.0,4.3788,4.3743,4.4336,4.4911,4.4854,4.3893,4.3557,4.5369,4.5522,4.5829,0.0,0.0,0.0,0.0,0.0,0.0,5.0042,5.0161,5.0194,5.0194,5.0133,5.0063,4.9992,4.9998,4.9972,4.9893,4.9872,4.9821,4.9707,4.9601,0.0,0.0,0.0,0.0,0.0,0.0,0.0,0.0,0.0,0.0,0.0,0.0,0.0,0.0,0.0,0.0,0.0,0.0,0.0,0.0,0.0,0.0,0.0,0.0,0.0,0.0,0.0,0.0,0.0,3.39,3.4146,3.4714,3.4734,3.5065,0.0,0.0,0.0,0.0,0.0,0.0,0.0,0.0,0.0,3.836,3.8422,3.8471,3.8471,3.8912,3.9142,3.9142,3.9632,3.9865,3.9865,3.9865,3.9865,3.9864,3.9825,3.978,3.9645,3.8523,3.8362,3.8778,0.0,0.0,0.0,0.0,3.9076,3.9107,3.9212,3.9788,4.0462,4.0529,0.0,0.0,0.0,0.0,0.0,0.0,0.0,4.3612,4.3507,4.4107,4.4723,4.4723,4.5373,4.5965,4.5965,4.5868,4.5884,4.6256,4.6623,4.7225,4.8338,4.8426,0.0,0.0,0.0,4.9901,5.0245,5.0278,5.0261,5.0261,5.0207,5.0132,5.0107,5.0031,4.9992,4.9965,4.9925,4.9905,4.9905,4.9843,4.9596,0.0,0.0,0.0,0.0,0.0,0.0,0.0,0.0,0.0,0.0,0.0,0.0,0.0,0.0,0.0,0.0,0.0,0.0,0.0,0.0,0.0,0.0,0.0,0.0,0.0,0.0,0.0,0.0,3.5051,3.5497,3.6243,3.6485,3.6842,0.0,0.0,0.0,0.0,0.0,0.0,3.8695,3.8936,3.9064,3.9062,3.9184,3.9342,3.9576,4.0174,4.0581,4.0815,4.146,4.1772,4.1772,4.1772,4.1772,4.1752,4.1719,4.168,4.1538,3.9647,3.926,3.9857,4.0007,4.046,4.1053,4.128,4.1374,4.1374,4.1374,4.1724,4.2182,4.2182,4.2679,4.3309,4.3309,0.0,0.0,0.0,0.0,4.4699,4.4774,4.527,4.5779,4.6014,4.6522,4.6968,4.6968,4.7653,4.8034,4.7305,4.7685,4.8411,4.9257,4.941,0.0,5.0206,5.0302,5.0302,5.0302,5.0302,5.0302,5.0302,5.0261,5.0231,5.0194,5.0101,5.0031,5.0031,4.9972,4.9932,4.9932,4.9918,4.9857,4.9757,0.0,0.0,0.0,0.0,0.0,0.0,0.0,0.0,0.0,0.0,0.0,0.0,0.0,0.0,0.0,0.0,0.0,0.0,0.0,0.0,0.0,0.0,0.0,0.0,0.0,0.0,0.0,0.0,0.0,3.7221,3.7963,0.0,0.0,0.0,0.0,3.8587,3.9294,3.9732,3.9721,4.0441,4.087,4.0875,4.0934,4.1372,4.2192,4.2244,4.2689,4.3509,4.3548,4.3568,4.3568,4.3568,4.3568,4.3568,4.3566,4.3565,4.3404,4.147,4.0691,4.0806,4.1563,4.1905,4.2038,4.2854,4.3178,4.3178,4.3178,4.3192,4.3228,4.3228,4.3776,4.442,4.442,4.5004,0.0,0.0,4.5683,4.5912,4.6723,4.6933,4.7122,4.7958,4.8185,4.8217,4.8217,4.8887,4.9401,4.904,4.8989,4.9295,5.0092,0.0,5.0245,5.0283,5.0302,5.0302,5.0302,5.0302,5.0302,5.0302,5.0296,5.0273,5.0219,5.0188,5.0151,5.0101,5.0037,4.9979,4.9979,4.9926,4.9905,4.9898,4.9752,0.0,0.0,0.0,0.0,0.0,0.0,0.0,0.0,0.0,0.0,0.0,0.0,0.0,0.0,0.0,0.0,0.0,0.0,0.0,0.0,0.0,0.0,0.0,0.0,0.0,0.0,0.0,0.0,3.8144,3.8417,0.0,3.9311,3.9368,3.9596,4.0104,4.0414,4.0794,4.1328,4.1616,4.2026,4.2594,4.2639,4.2787,4.3099,4.3112,4.3298,4.3632,4.3631,4.3664,4.3705,4.3705,4.3705,4.3705,4.3705,4.3705,4.3644,4.295,4.2662,4.268,4.2987,4.3083,4.3121,4.3448,4.3563,4.3563,4.3563,4.3863,4.4331,4.4814,4.5179,4.5423,4.549,4.5751,4.6107,4.6613,4.6776,4.6942,4.7729,4.7915,4.7986,4.8296,4.8768,4.9135,4.913,4.9794,5.0345,5.0216,5.0115,5.015,5.0438,5.0385,5.0335,5.0469,5.0385,5.0359,5.0474,5.038,5.0302,5.0302,5.0302,5.029,5.0273,5.0218,5.0182,5.0176,5.0108,5.005,5.0005,4.9985,4.9933,4.9905,4.9857,4.983,0.0,0.0,0.0,0.0,0.0,0.0,0.0,0.0,0.0,0.0,0.0,0.0,0.0,0.0,0.0,0.0,0.0,0.0,0.0,0.0,0.0,0.0,0.0,0.0,0.0,3.8765,3.8972,3.8972,3.9226,3.9629,4.0153,4.0443,4.0839,4.1364,4.1668,4.2041,4.2586,4.2605,4.2876,4.3455,4.3497,4.377,4.4376,4.4344,4.4665,4.5295,4.5302,4.5349,4.539,4.5389,4.5389,4.5389,4.5389,4.5406,4.5419,4.5419,4.5414,4.5344,4.4465,4.4133,4.4172,4.4466,4.4583,4.4583,4.4583,4.4895,4.5384,4.5883,4.6236,4.6479,4.6589,4.6791,4.7114,4.7658,4.7806,4.7981,4.8766,4.8978,4.9051,4.9345,4.9816,5.0203,5.0178,5.0591,5.0965,5.0972,5.0801,5.0675,5.0675,5.0563,5.0507,5.0601,5.0532,5.0493,5.0582,5.0485,5.0407,5.0407,5.0329,5.0302,5.0302,5.0267,5.0224,5.0224,5.0176,5.0101,5.0076,5.0012,4.9985,4.9926,4.9899,4.9905,4.9905,0.0,0.0,0.0,0.0,0.0,0.0,0.0,0.0,0.0,0.0,0.0,0.0,0.0,0.0,0.0,0.0,0.0,0.0,0.0,0.0,0.0,0.0,0.0,3.8601,3.921,3.9757,3.9776,4.0521,4.1049,4.1065,4.1786,4.2232,4.2231,4.2967,4.3412,4.347,4.347,4.349,4.3548,4.3619,4.4465,4.6164,4.6104,4.6911,4.8607,4.8665,4.8694,4.8696,4.8708,4.8694,4.8694,4.8694,4.8734,4.8808,4.8808,4.8806,4.8548,4.6046,4.5089,4.5186,4.6007,4.632,4.634,4.634,4.6359,4.6379,4.6379,4.6944,4.7646,4.7646,4.8173,4.8818,4.8837,4.8837,4.9032,4.991,5.0136,5.0343,5.1204,5.1407,5.1372,5.1317,5.1294,5.1309,5.1304,5.1041,5.0809,5.0805,5.0798,5.0761,5.0639,5.0726,0.0,5.0635,5.0606,5.0596,5.0592,5.0435,5.0308,5.0302,5.0302,5.0302,5.0302,5.0249,5.0194,5.0194,5.0063,5.0005,5.0005,4.992,4.9905,4.9905,0.0,0.0,0.0,0.0,0.0,0.0,0.0,0.0,0.0,0.0,0.0,0.0,0.0,0.0,0.0,0.0,0.0,0.0,0.0,0.0,0.0,4.1056,4.1174,4.0396,4.0482,4.0852,4.1437,4.1711,4.2098,4.2671,4.2937,4.3044,4.3006,4.32,4.386,4.508,4.5138,4.5719,4.6993,4.7033,4.7272,4.7759,4.7751,4.8003,4.8525,4.8608,4.8654,4.8696,4.8708,4.8694,4.8694,4.8694,4.8701,4.873,4.873,4.8735,4.8608,4.7372,4.6884,4.6845,4.6436,4.669,4.7236,4.7236,4.7627,4.8115,4.8115,4.8271,4.8466,4.8466,4.8623,4.8935,4.9559,4.9734,4.9949,5.0827,5.104,5.1098,5.1332,5.1407,5.1381,5.139,5.1368,5.136,5.131,5.123,5.1125,5.1033,5.0907,5.084,5.0944,5.0878,5.084,5.0944,5.0836,5.0713,5.0606,5.0557,5.0453,5.0314,5.0302,5.0302,5.0302,5.0284,5.0231,5.0139,5.0095,5.0031,4.9939,4.9918,4.9905,0.0,0.0,0.0,0.0,0.0,0.0,0.0,0.0,0.0,0.0,0.0,0.0,0.0,0.0,0.0,0.0,0.0,0.0,0.0,0.0,0.0,0.0,4.2056,4.2446,4.2024,4.1953,4.2148,4.2616,4.2655,4.2845,4.3319,4.3992,4.4388,4.4356,4.5026,4.5858,4.6848,4.6886,4.7351,4.8372,4.8392,4.8585,4.8933,4.8932,4.9121,4.9505,4.9559,4.9636,4.9653,4.9685,4.9718,4.9718,4.9745,4.9749,4.9756,4.9756,4.9751,4.9677,0.0,0.0,0.0,0.0,4.768,4.8095,4.8095,4.8408,4.8798,4.8798,4.9052,4.9344,4.9344,4.9599,4.9989,5.0495,5.0632,5.0769,5.1277,5.1394,5.1394,5.1394,5.1394,5.1391,5.1401,5.1399,5.1391,5.1348,5.1317,0.0,5.1208,5.1095,5.1023,5.1099,5.1048,5.1023,5.108,5.0998,5.0896,5.0816,5.0722,5.0633,5.0528,5.0518,0.0,0.0,0.0,5.0335,5.0114,5.0101,0.0,0.0,0.0,4.9905,4.9905,4.9905,0.0,0.0,4.9607,4.9509,0.0,0.0,0.0,0.0,0.0,0.0,0.0,0.0,0.0,0.0,0.0,0.0,0.0,0.0,0.0,0.0,4.2879,4.3456,4.3456,4.3611,4.3653,4.3476,4.3537,4.3634,4.373,4.5165,4.6093,4.6093,4.7525,4.843,4.8546,4.8546,0.0,0.0,0.0,4.9049,4.9819,4.9838,5.0186,5.0898,5.0967,5.1009,5.1009,5.1063,5.1095,5.1098,5.1165,5.12,5.1206,5.1206,5.125,5.1125,4.9492,4.8791,4.8717,4.8765,4.8846,4.8947,4.8947,0.0,0.0,4.9084,4.961,5.0234,5.0249,5.0795,5.14,5.1395,5.1394,5.1394,5.1394,5.1394,5.1394,5.1394,5.1394,5.1392,5.1402,5.14,5.1395,5.1397,5.1345,5.1314,5.1291,5.1294,5.1254,5.1139,5.1227,5.1252,5.1136,5.1122,5.1117,5.1102,5.0939,0.0,5.0798,5.0794,5.0794,5.0794,5.0678,5.0486,5.0181,5.0144,5.0089,4.9953,4.9933,4.9913,4.9905,4.9905,4.9905,4.9905,4.9905,4.9905,0.0,0.0,0.0,0.0,0.0,0.0,0.0,0.0,0.0,0.0,0.0,0.0,0.0,0.0,0.0,4.3076,4.3785,4.4346,4.4346,4.551,4.5858,4.4501,4.4968,4.5649,4.6306,4.7289,4.7908,4.7908,4.8217,4.8701,4.9417,4.9455,4.9742,5.0399,5.0418,5.0496,5.067,5.067,5.0747,5.0898,5.0967,0.0,5.1009,5.1071,5.1108,5.1098,5.1105,5.1155,5.1197,5.1197,5.1211,5.113,5.0129,4.932,4.8695,4.8702,4.9161,4.9773,4.9773,5.0222,5.0827,5.0827,5.0925,5.1085,5.1133,5.1268,0.0,5.1403,5.1394,5.1394,5.1394,5.1394,5.1394,5.1394,5.1394,5.1393,5.1391,5.1391,5.1404,5.14,5.1391,5.1361,5.1312,5.1302,5.1294,5.1276,5.1288,5.1294,5.1256,5.1254,5.1225,5.1114,5.1062,5.0985,5.0805,5.0794,5.0794,5.0794,5.0726,5.0643,5.0585,5.0485,5.0366,5.0237,5.0175,5.0057,4.9905,4.9905,4.9905,4.9905,4.9905,4.9905,0.0,0.0,0.0,0.0,0.0,0.0,0.0,0.0,0.0,0.0,0.0,4.3357,4.3357,0.0,4.4427,4.4017,4.4659,4.5355,4.58,4.6573,4.6786,4.5955,4.6616,4.7312,4.7715,4.8546,4.9049,4.9049,4.9413,4.9838,5.0283,5.0302,5.0476,5.0898,5.0898,5.0898,5.0898,5.0898,5.0898,5.0898,5.0925,5.0952,5.0956,5.1053,5.1107,5.1092,5.1143,5.1168,5.1199,5.1199,5.1199,5.1153,5.0754,5.0325,4.9944,4.9944,5.0257,5.0652,5.0652,5.0944,5.1297,5.1297,5.1297,5.1301,5.1336,5.1359,5.1363,5.1384,5.1398,5.1396,5.1399,5.1394,5.1394,5.1394,5.1394,5.1394,5.1394,5.1394,5.1391,5.1399,5.1404,5.1388,5.1353,5.1314,5.13,5.13,5.13,5.13,5.13,5.13,5.1438,5.1819,5.1853,5.1985,5.2321,5.2354,5.2307,5.2203,5.216,5.2105,5.2017,5.1949,5.1843,5.1701,5.1234,5.0937,5.0791,5.0365,5.0156,5.0156,5.0156,5.01,0.0,0.0,0.0,0.0,0.0,0.0,0.0,4.335,4.337,4.3511,4.407,4.4362,4.384,4.4829,4.5517,4.482,4.5395,4.6152,4.6866,4.7248,4.7441,4.7441,4.8129,4.8574,4.8574,4.9366,4.988,4.9935,5.0534,5.0898,5.0898,5.0898,5.0898,5.0898,5.0898,5.0898,5.0898,5.0898,5.0898,5.0898,5.0898,5.0906,5.0914,5.102,5.1097,5.1095,5.1175,5.1199,5.1199,5.1199,5.1199,5.1199,5.1199,5.12,5.1196,5.1196,5.1239,5.1287,5.1287,5.1287,5.1287,5.1287,5.1287,5.1288,5.128,5.1283,5.1293,5.1362,5.1386,5.1387,5.1393,5.1405,5.1403,5.1396,5.1394,5.1394,5.1394,5.1394,5.1393,5.1391,5.1392,5.1393,5.137,5.1344,5.13,5.13,5.13,5.1359,5.1532,5.1552,5.1883,5.276,5.2857,5.3149,5.3831,5.3909,5.3822,5.3664,5.3658,5.3582,5.3414,5.3391,5.3322,5.3181,5.2464,5.2054,5.1968,5.1245,5.0908,5.0908,5.0921,5.0692,4.1908,4.2456,4.3056,4.3153,4.3173,4.3208,0.0,4.3179,4.332,4.4264,4.4334,4.4442,4.5135,4.5409,4.5448,4.5169,4.5818,4.6381,4.6458,4.7758,4.8701,4.8701,4.898,4.9196,4.9196,4.9985,5.0579,5.0755,5.084,5.0898,5.0898,5.0898,5.0898,5.0898,5.0898,5.0898,5.0898,5.0898,5.0898,5.0898,5.0898,5.0921,5.0982,5.1009,5.1032,5.1092,5.1168,5.1199,5.1199,5.1199,5.1199,5.1199,5.1199,5.1208,5.12,5.12,5.1192,5.1203,5.1203,5.1203,5.1203,5.1203,5.1203,5.1202,5.1213,5.1214,5.1232,5.1292,5.1303,5.1311,5.1386,5.1406,5.1404,5.1403,5.1394,5.1394,5.1394,5.1394,5.1391,5.1402,5.1407,5.137,5.1317,5.1296,5.13,5.13,5.13,5.1571,5.2351,5.2448,5.2799,5.3656,5.3753,5.3792,5.389,5.3909,5.3885,5.3877,5.3875,5.3851,5.3837,5.3774,5.3648,5.3455,5.3231,5.3064,5.2938,5.2795,5.2702,5.2708,5.2823,5.199,4.2371,4.2623,4.3007,4.353,4.3645,4.3779,4.4283,4.4331,4.4413,4.4865,4.4853,4.4897,4.5261,4.5338,4.5461,4.5831,4.6173,4.674,4.772,4.8464,4.9023,4.9378,4.9522,4.9647,4.98,5.0142,5.0396,5.0484,5.0489,5.0489,5.0489,5.0649,5.0732,5.0732,5.085,5.0898,5.0898,5.0898,5.0898,5.0898,5.0898,5.091,5.0948,5.0975,5.1048,5.1098,5.113,5.1165,5.1199,5.1199,5.1199,5.1199,5.1199,5.1199,5.1199,5.1199,5.1199,5.1199,5.1199,5.1199,5.1199,5.1199,5.1199,5.1192,5.1202,5.1196,5.1218,5.1229,5.1249,5.1263,5.1329,5.1337,5.1342,5.1384,5.1401,5.1397,5.1399,5.1394,5.1393,5.1409,5.1397,5.1385,5.1369,5.1331,5.147,5.1982,5.2058,5.2195,5.2545,5.3032,5.3695,5.4552,5.5119,5.5414,5.5414,5.5414,5.5414,5.5414,5.5414,5.5414,5.5414,5.5396,5.5298,5.5133,5.4611,5.4283,5.4154,5.3612,5.3332,5.3292,5.3356,5.2946,4.3251,4.3328,4.3461,4.4102,4.4255,4.4427,4.5067,4.5134,4.5107,4.5191,4.5134,4.5085,4.5085,4.5295,4.5616,4.612,4.6597,4.7319,4.8548,4.891,4.9239,4.9669,4.9724,4.9788,4.9987,5.0056,5.0123,5.0195,5.0201,5.0201,5.0201,5.0452,5.0592,5.0592,5.0793,5.0898,5.0898,5.0898,5.0898,5.0898,5.0898,5.0914,5.0956,5.103,5.1082,5.113,5.113,5.1162,5.1199,5.1199,5.1199,5.1199,5.1199,5.1199,5.1199,5.1199,5.1199,5.1199,5.1199,5.1199,5.1199,5.1199,5.1199,5.1199,5.1199,5.1199,5.12,5.1203,5.1204,5.1206,5.1262,5.1277,5.129,5.1361,5.1365,5.1386,5.1396,5.1409,5.1407,5.1396,5.1406,5.1395,5.1403,5.1541,5.1872,5.2518,5.3017,5.3325,5.3325,5.4084,5.4866,5.5489,5.6115,5.6507,5.6507,5.6507,5.6507,5.6507,5.6507,5.6507,5.6507,5.6507,5.645,5.6354,5.5754,5.5366,5.5266,5.4608,5.4262,5.4194,5.4194,5.4194,4.4895,4.5125,4.5125,4.5144,4.5163,4.5163,4.5182,4.5007,4.4897,4.5159,4.4996,4.4806,4.4806,4.5489,4.5994,4.5749,4.7078,4.8149,4.8206,4.8957,4.9494,4.9505,4.9505,4.9505,4.9513,4.9707,4.991,5.0183,5.0201,5.0201,5.0201,5.0452,5.0592,5.0592,5.0793,5.0898,5.0898,5.0898,5.0898,5.0898,5.0898,5.0963,5.1097,5.1166,5.1196,5.1199,5.1199,5.1199,5.1199,5.1199,5.1199,5.1199,5.1199,5.1199,5.1199,5.1199,5.1199,5.1199,5.1199,5.1199,5.1199,5.1199,5.1199,5.1199,5.1199,5.1199,5.1202,5.1205,5.1205,5.1195,5.1202,5.1205,5.1225,5.1287,5.1299,5.1328,5.1386,5.1406,5.1405,5.1402,5.1406,5.1397,5.1397,5.2056,5.2577,5.2597,5.404,5.5117,5.5117,5.5879,5.6429,5.6468,5.6487,5.6507,5.6507,5.6507,5.6507,5.6507,5.6507,5.6507,5.6507,5.6507,5.6505,5.6485,5.6339,5.6222,5.6152,5.6061,5.5998,5.5911,5.5911,5.5911,4.4663,4.4739,4.4739,4.4739,4.4739,4.4739,4.4739,4.4667,4.4621,4.4719,4.5101,4.5392,4.5392,4.6108,4.6845,4.7297,4.7826,4.8408,4.8983,4.9321,4.9509,4.9509,4.9509,4.9509,4.9509,4.9552,4.9637,4.9719,4.9733,4.9733,4.9733,5.0118,5.0325,5.0325,5.0708,5.0898,5.0898,5.0898,5.0898,5.0898,5.0898,5.0914,5.0963,5.1037,5.1095,5.1134,5.1121,5.1162,5.1199,5.1199,5.1199,5.1199,5.1199,5.1199,5.1199,5.1199,5.1199,5.1199,5.1199,5.1199,5.1199,5.1199,5.1199,5.1199,5.1199,5.1199,5.1199,5.1199,5.1199,5.1192,5.1192,5.1202,5.1211,5.1224,5.1221,5.1259,5.1327,5.1364,5.1406,5.1403,5.1409,5.1579,5.2106,5.2455,5.3033,5.416,5.482,5.5409,5.5996,5.631,5.6507,5.6507,5.6507,5.6507,5.6507,5.6507,5.6507,5.6507,5.6507,5.6507,5.6507,5.6507,5.6507,5.6507,5.645,5.6378,5.6261,5.6194,5.6139,5.6075,5.6018,5.6008,4.4501,4.4501,4.4501,4.4501,4.4501,4.4501,4.4501,4.4501,4.4583,4.4864,4.5341,4.5791,4.611,4.6861,4.7594,4.8127,4.8465,4.8852,4.9415,4.9509,4.9509,4.9509,4.9509,4.9509,4.9509,4.9509,4.9509,4.9509,4.9509,4.9509,4.9509,4.9855,5.0069,5.0069,5.0548,5.0789,5.0789,5.0851,5.0898,5.0898,5.0948,5.0963,5.0967,5.1041,5.1098,5.1137,5.1143,5.1165,5.1199,5.1199,5.1199,5.1199,5.1199,5.1199,5.1199,5.1199,5.1199,5.1199,5.1199,5.1199,5.1199,5.1199,5.1199,5.1199,5.1199,5.1199,5.1199,5.1199,5.1199,5.1199,5.1199,5.1199,5.12,5.1196,5.1191,5.1217,5.1256,5.1295,5.1335,5.1362,5.1386,5.1663,5.2466,5.315,5.4063,5.5457,5.5654,5.5879,5.6427,5.6507,5.6507,5.6507,5.6507,5.6507,5.6507,5.6507,5.6507,5.6507,5.6507,5.6507,5.6507,5.6507,5.6507,5.6507,5.6507,5.6424,5.6291,5.6252,5.6185,5.6098,5.6063,5.6018,4.4501,4.4501,4.4501,4.4501,4.4501,4.4501,4.4501,4.4519,4.4789,4.5547,4.5772,4.6073,4.691,4.7725,4.8277,4.8277,4.8964,4.9509,4.9509,4.9509,4.9509,4.9509,4.9509,4.9509,4.9509,4.9509,4.9509,4.9509,4.9509,4.9509,4.9509,4.97,4.981,4.981,5.0309,5.0572,5.0572,5.0784,5.0886,5.089,5.1035,5.1097,5.1101,5.1169,5.1199,5.1199,5.1199,5.1199,5.1199,5.1199,5.1199,5.1199,5.1199,5.1199,5.1199,5.1199,5.1199,5.1199,5.1199,5.1199,5.1199,5.1199,5.1199,5.1199,5.1199,5.1199,5.1199,5.1199,5.1199,5.1199,5.1199,5.1199,5.1199,5.1199,5.1199,5.1192,5.1196,5.1199,5.1224,5.1284,5.1419,5.1777,5.2596,5.4138,5.5553,5.6375,5.6507,5.6507,5.6507,5.6507,5.6507,5.6507,5.6507,5.6507,5.6507,5.6507,5.6507,5.6507,5.6507,5.6507,5.6507,5.6507,5.6507,5.6507,5.6507,5.6443,5.6316,5.6291,5.6229,5.6106,5.6102,5.6056,4.4501,4.4501,4.4501,4.4501,4.4501,4.4501,4.4501,4.4958,4.5453,4.566,4.6692,4.7639,4.7838,4.8589,4.9171,4.9171,4.9358,4.9509,4.9509,4.9509,4.9509,4.9509,4.9509,4.9509,4.9509,4.9509,4.9509,4.9509,4.9509,4.9509,4.9509,4.97,4.981,4.981,5.0135,5.0298,5.0298,5.0543,5.0681,5.0674,5.0914,5.1053,5.1101,5.1128,5.113,5.113,5.1171,5.1199,5.1199,5.1199,5.1199,5.1199,5.1199,5.1199,5.1199,5.1199,5.1199,5.1199,5.1199,5.1199,5.1199,5.1199,5.1199,5.1199,5.1199,5.1199,5.1199,5.1199,5.1199,5.1199,5.1199,5.1199,5.1199,5.1199,5.1199,5.1208,5.12,5.1193,5.1209,5.1229,5.233,5.3533,5.4392,5.5447,5.6239,5.6469,5.6496,5.6507,5.6507,5.6507,5.6507,5.6507,5.6507,5.6507,5.6507,5.6507,5.6507,5.6507,5.6507,5.6507,5.6507,5.6507,5.6507,5.6507,5.6507,5.6481,5.6448,5.6351,5.6252,5.6168,5.6128,5.6056,4.4501,4.4501,4.4501,4.4501,4.4501,4.4583,4.4939,4.5378,4.5904,4.6643,4.7545,4.8315,4.8709,4.9171,4.9509,4.9509,4.9509,4.9509,4.9509,4.9509,4.9509,4.9509,4.9509,4.9509,4.9509,4.9509,4.9509,4.9509,4.9509,4.9509,4.9509,4.9607,4.9665,4.9665,4.989,5.0087,5.0201,5.0355,5.0479,5.06,5.0726,5.0894,5.1105,5.1075,5.1095,5.1156,5.1174,5.1199,5.1199,5.1199,5.1199,5.1199,5.1199,5.1199,5.1199,5.1199,5.1199,5.1199,5.1199,5.1199,5.1199,5.1199,5.1199,5.1199,5.1199,5.1199,5.1199,5.1199,5.1199,5.1199,5.1199,5.1199,5.1199,5.1199,5.1199,5.1199,5.1199,5.1194,5.131,5.1702,5.3174,5.4563,5.5117,5.5898,5.6478,5.6501,5.649,5.6507,5.6507,5.6507,5.6507,5.6507,5.6507,5.6507,5.6507,5.6507,5.6507,5.6507,5.6507,5.6507,5.6507,5.6507,5.6507,5.6507,5.6507,5.6507,5.6507,5.6419,5.6338,5.6238,5.6187,5.6109,4.4501,4.4501,4.4501,4.4501,4.4501,4.4714,4.5528,4.5791,4.6317,4.7883,4.8296,4.8596,4.9358,4.9509,4.9509,4.9509,4.9509,4.9509,4.9509,4.9509,4.9509,4.9509,4.9509,4.9509,4.9509,4.9509,4.9509,4.9509,4.9509,4.9509,4.9509,4.9509,4.9509,4.9509,4.9665,4.9864,5.0099,5.0135,5.0273,5.0519,5.0503,5.0675,5.1026,5.097,5.1044,5.1162,5.1162,5.1187,5.1199,5.1199,5.1199,5.1199,5.1199,5.1199,5.1199,5.1199,5.1199,5.1199,5.1199,5.1199,5.1199,5.1199,5.1199,5.1199,5.1199,5.1199,5.1199,5.1199,5.1199,5.1199,5.1199,5.1199,5.1199,5.1199,5.1199,5.1199,5.1199,5.1277,5.1622,5.2494,5.3921,5.5084,5.5322,5.5956,5.6425,5.6493,5.6491,5.6496,5.6507,5.6507,5.6507,5.6507,5.6507,5.6507,5.6507,5.6507,5.6507,5.6507,5.6507,5.6507,5.6507,5.6507,5.6507,5.6507,5.6507,5.6507,5.6507,5.6507,5.6422,5.6308,5.6235,5.6165,4.4501,4.4501,4.4501,4.4501,4.4501,4.4714,4.5528,4.6261,4.7049,4.7988,4.8776,4.9321,4.9471,4.9509,4.9509,4.9509,4.9509,4.9509,4.9509,4.9509,4.9509,4.9509,4.9509,4.9509,4.9509,4.9509,4.9509,4.9509,4.9509,4.9509,4.9509,4.9509,4.9509,4.9509,4.9525,4.9567,4.9619,4.98,4.9917,5.0031,5.0355,5.0548,5.0604,5.0709,5.0867,5.1037,5.1037,5.1105,5.1199,5.1199,5.1199,5.1199,5.1199,5.1199,5.1199,5.1199,5.1199,5.1199,5.1199,5.1199,5.1199,5.1199,5.1199,5.1199,5.1199,5.1199,5.1199,5.1199,5.1199,5.1199,5.1199,5.1199,5.1199,5.1199,5.1199,5.1199,5.1199,5.1727,5.2451,5.331,5.4351,5.5326,5.6065,5.6357,5.6482,5.6499,5.65,5.6501,5.6494,5.6507,5.6507,5.6507,5.6507,5.6507,5.6507,5.6507,5.6507,5.6507,5.6507,5.6507,5.6507,5.6507,5.6507,5.6507,5.6507,5.6507,5.6507,5.6507,5.6422,5.6291,5.6281,5.6213,4.4501,4.4501,4.4501,4.4501,4.4501,4.4827,4.6084,4.6704,4.7361,4.8626,4.9208,4.9509,4.9509,4.9509,4.9509,4.9509,4.9509,4.9509,4.9509,4.9509,4.9509,4.9509,4.9509,4.9509,4.9509,4.9509,4.9509,4.9509,4.9509,4.9509,4.9509,4.9509,4.9509,4.9509,4.9509,4.9509,4.9509,4.9604,4.9724,4.991,5.0094,5.0298,5.0491,5.0572,5.0684,5.0859,5.094,5.1037,5.1108,5.1162,5.1199,5.1199,5.1199,5.1199,5.1199,5.1199,5.1199,5.1199,5.1199,5.1199,5.1199,5.1199,5.1199,5.1199,5.1199,5.1199,5.1199,5.1199,5.1199,5.1199,5.1199,5.1199,5.1199,5.1199,5.1199,5.1316,5.1727,5.2484,5.3323,5.4213,5.5099,5.587,5.6322,5.6438,5.6456,5.65,5.6494,5.65,5.6496,5.6506,5.6507,5.6507,5.6507,5.6507,5.6507,5.6507,5.6507,5.6507,5.6507,5.6507,5.6507,5.6507,5.6507,5.6507,5.6507,5.6507,5.6507,5.6507,5.6474,5.6393,5.6324,5.6241,4.4501,4.4501,4.4501,4.4501,4.4639,4.5146,4.6666,4.7136,4.768,4.9189,4.9509,4.9509,4.9509,4.9509,4.9509,4.9509,4.9509,4.9509,4.9509,4.9509,4.9509,4.9509,4.9509,4.9509,4.9509,4.9509,4.9509,4.9509,4.9509,4.9509,4.9509,4.9509,4.9509,4.9509,4.9509,4.9509,4.9509,4.9509,4.9626,4.9856,4.9899,5.0075,5.0424,5.0441,5.0523,5.068,5.0826,5.0941,5.1012,5.1118,5.1162,5.1199,5.1199,5.1199,5.1199,5.1199,5.1199,5.1199,5.1199,5.1199,5.1199,5.1199,5.1199,5.1199,5.1199,5.1199,5.1199,5.1199,5.1199,5.1199,5.1199,5.1199,5.1199,5.1199,5.1199,5.1416,5.2232,5.3089,5.3964,5.4835,5.5709,5.6315,5.6392,5.6408,5.6419,5.6499,5.6498,5.6507,5.651,5.6494,5.6502,5.6507,5.6507,5.6507,5.6507,5.6507,5.6507,5.6507,5.6507,5.6507,5.6507,5.6507,5.6507,5.6507,5.6507,5.6507,5.6507,5.6507,5.6507,5.6505,5.6388,5.6292,4.4501,4.4501,4.4501,4.4501,4.5052,4.5848,4.6779,4.7575,4.8371,4.9302,4.9509,4.9509,4.9509,4.9509,4.9509,4.9509,4.9509,4.9509,4.9509,4.9509,4.9509,4.9509,4.9509,4.9509,4.9509,4.9509,4.9509,4.9509,4.9509,4.9509,4.9509,4.9509,4.9509,4.9509,4.9509,4.9509,4.9509,4.9509,4.9563,4.9709,4.9843,4.9979,5.0145,5.0253,5.0383,5.0522,5.0537,5.0723,5.1009,5.102,5.1082,5.1199,5.1199,5.1199,5.1199,5.1199,5.1199,5.1199,5.1199,5.1199,5.1199,5.1199,5.1199,5.1199,5.1199,5.1199,5.1199,5.1199,5.1199,5.1199,5.1199,5.1199,5.1199,5.1199,5.1199,5.1416,5.2232,5.3089,5.3964,5.4835,5.5709,5.6315,5.6392,5.6394,5.6423,5.6498,5.6503,5.6502,5.6498,5.6503,5.6504,5.6494,5.6507,5.6507,5.6507,5.6507,5.6507,5.6507,5.6507,5.6507,5.6507,5.6507,5.6507,5.6507,5.6507,5.6507,5.6507,5.6507,5.6507,5.6507,5.6483,5.6388,4.4501,4.4501,4.4501,4.4501,4.509,4.5923,4.6798,4.7612,4.8438,4.9321,4.9509,4.9509,4.9509,4.9509,4.9509,4.9509,4.9509,4.9509,4.9509,4.9509,4.9509,4.9509,4.9509,4.9509,4.9509,4.9509,4.9509,4.9509,4.9509,4.9509,4.9509,4.9509,4.9509,4.9509,4.9509,4.9536,4.9615,4.9615,4.9678,4.9823,4.9959,5.005,5.0108,5.0237,5.0323,5.0372,5.0455,5.0611,5.0823,5.096,5.1072,5.1199,5.1199,5.1199,5.1199,5.1199,5.1199,5.1199,5.1199,5.1199,5.1199,5.1199,5.1199,5.1199,5.1199,5.1199,5.1199,5.1199,5.1199,5.1199,5.1199,5.1199,5.1199,5.1199,5.1571,5.2154,5.2992,5.3866,5.473,5.5605,5.6067,5.6315,5.6392,5.6407,5.6416,5.6481,5.6492,5.6503,5.6501,5.649,5.6508,5.6504,5.651,5.6507,5.6507,5.6507,5.6507,5.6507,5.6507,5.6507,5.6507,5.6507,5.6507,5.6507,5.6507,5.6507,5.6507,5.6507,5.6507,5.6507,5.6507,5.641,4.4501,4.4501,4.4501,4.4501,4.5296,4.6261,4.6854,4.7819,4.8758,4.9377,4.9509,4.9509,4.9509,4.9509,4.9509,4.9509,4.9509,4.9509,4.9509,4.9509,4.9509,4.9509,4.9509,4.9509,4.9509,4.9509,4.9509,4.9509,4.9509,4.9509,4.9509,4.9509,4.9509,4.9509,4.9509,4.9544,4.9645,4.967,4.9778,4.9893,5.0037,5.012,5.0164,5.0261,5.0302,5.0308,5.0394,5.0527,5.0642,5.0797,5.0971,5.114,5.114,5.1175,5.1199,5.1199,5.1199,5.1199,5.1199,5.1199,5.1199,5.1199,5.1199,5.1199,5.1199,5.1199,5.1199,5.1199,5.1199,5.1199,5.1199,5.1199,5.1258,5.1494,5.1999,5.2717,5.3847,5.4563,5.5255,5.6139,5.6302,5.6314,5.6356,5.6409,5.6455,5.6499,5.6514,5.6517,5.6501,5.6504,5.6496,5.6509,5.6508,5.6506,5.6507,5.6507,5.6507,5.6507,5.6507,5.6507,5.6507,5.6507,5.6507,5.6507,5.6507,5.6507,5.6507,5.6507,5.6507,5.6507,5.6507,5.6412,4.4501,4.4501,4.4501,4.4501,4.5747,4.6985,4.7004,4.8288,4.949,4.9509,4.9509,4.9509,4.9509,4.9509,4.9509,4.9509,4.9509,4.9509,4.9509,4.9509,4.9509,4.9509,4.9509,4.9509,4.9509,4.9509,4.9509,4.9509,4.9509,4.9509,4.9509,4.9509,4.9509,4.9509,4.9509,4.9509,4.949,4.9638,4.9778,4.9893,5.0037,5.017,5.0296,5.0302,5.0302,5.0302,5.0302,5.0385,5.0502,5.0502,5.069,5.1009,5.1009,5.1075,5.1199,5.1199,5.1199,5.1199,5.1199,5.1199,5.1199,5.1199,5.1199,5.1199,5.1199,5.1199,5.1199,5.1199,5.1199,5.1199,5.1199,5.1199,5.1394,5.2193,5.2387,5.2873,5.4618,5.4987,5.5262,5.6139,5.6308,5.6291,5.6291,5.6411,5.6503,5.6503,5.657,5.6578,5.65,5.6502,5.6504,5.6497,5.6491,5.6508,5.6492,5.6507,5.6507,5.6507,5.6507,5.6507,5.6507,5.6507,5.6507,5.6507,5.6507,5.6507,5.6507,5.6507,5.6507,5.6507,5.6507,5.6393,4.4501,4.4501,4.4501,4.4501,4.5765,4.7004,4.7004,4.8307,4.9509,4.9509,4.9509,4.9509,4.9509,4.9509,4.9509,4.9509,4.9509,4.9509,4.9509,4.9509,4.9509,4.9509,4.9509,4.9509,4.9509,4.9509,4.9509,4.9509,4.9509,4.9509,4.9509,4.9509,4.9509,4.9509,4.9509,4.9544,4.9638,4.9778,4.9905,5.0044,5.0176,5.0261,5.0302,5.0302,5.0302,5.0302,5.0302,5.038,5.0502,5.0502,5.0625,5.0811,5.0956,5.103,5.1069,5.1175,5.1199,5.1199,5.1199,5.1199,5.1199,5.1199,5.1199,5.1199,5.1199,5.1199,5.1199,5.1199,5.1199,5.1199,5.1199,5.161,5.2076,5.2348,5.3319,5.433,5.487,5.5476,5.5977,5.6255,5.6297,5.6305,5.6361,5.6432,5.6503,5.6503,5.6568,5.659,5.656,5.6562,5.6551,5.6504,5.6503,5.6492,5.6493,5.6492,5.6507,5.6507,5.6507,5.6507,5.6507,5.6507,5.6507,5.6507,5.6507,5.6507,5.6507,5.6507,5.6507,5.6507,5.6507,5.6393,4.4501,4.4501,4.4501,4.4501,4.5765,4.7004,4.7004,4.8307,4.9509,4.9509,4.9509,4.9509,4.9509,4.9509,4.9509,4.9509,4.9509,4.9509,4.9509,4.9509,4.9509,4.9509,4.9509,4.9509,4.9509,4.9509,4.9509,4.9509,4.9509,4.9509,4.9509,4.9509,4.9513,4.9563,4.9582,4.9615,4.9699,4.9885,5.0024,5.0101,5.0237,5.0302,5.0302,5.0302,5.0302,5.0302,5.0302,5.0346,0.0,5.0426,5.0528,5.0709,5.0831,5.0955,5.1098,5.1178,5.1199,5.1199,5.1199,5.1199,5.1199,5.1199,5.1199,5.1199,5.1199,5.1199,5.1199,5.1199,5.1199,5.1199,5.1199,5.1804,5.2484,5.2817,5.396,5.5084,5.5417,5.5922,5.6307,5.6308,5.6314,5.6347,5.6359,5.6462,5.6536,5.6504,5.6568,5.6605,5.6605,5.6605,5.6574,5.6531,5.6518,5.6504,5.6509,5.6503,5.6492,5.6507,5.6507,5.6498,5.65,5.6501,5.6501,5.6501,5.6503,5.6493,5.6507,5.6507,5.6507,5.6507,5.6507,5.6393,0.0,4.4501,4.4501,4.4501,4.5765,4.7004,4.7004,4.8307,0.0,4.9509,4.9509,4.9509,4.9509,4.9509,4.9509,4.9509,4.9509,4.9509,4.9509,4.9509,4.9509,4.9509,4.9509,4.9509,4.9509,4.9509,4.9509,4.9509,4.9509,4.9509,4.9509,4.9516,4.9574,4.9692,4.9721,4.9721,4.9714,4.9972,5.0101,5.0101,5.0237,5.0302,5.0302,5.0302,5.0302,5.0302,5.0302,5.0302,5.0302,5.0302,5.0439,5.067,5.0683,5.0879,5.1162,5.1187,5.1193,5.1199,5.1199,5.1199,5.1199,5.1199,5.1199,5.1199,5.1199,5.1199,5.1199,5.1199,5.1199,5.1199,5.1277,5.1882,5.272,5.3594,5.4465,5.532,5.6136,5.6295,5.6295,5.6301,5.636,5.6375,5.631,5.647,5.6577,5.6511,5.655,5.6605,5.6605,5.6605,5.6605,5.6605,5.6531,5.6501,5.6502,5.6509,5.6494,5.6504,5.65,5.6505,5.649,5.6492,5.6492,5.6492,5.6502,5.6507,5.6494,5.6509,5.6507,5.6507,5.6507,5.6393,4.4501,0.0,4.4501,4.4501,4.5765,4.7004,0.0,4.8307,4.9509,4.9509,4.9509,4.9509,4.9509,4.9509,4.9509,4.9509,4.9509,4.9509,4.9509,4.9509,4.9509,4.9509,4.9509,4.9509,4.9509,4.9509,4.9509,4.9509,4.9509,4.9509,4.9509,4.9593,4.9675,4.9699,4.9898,4.9959,4.9857,5.0018,5.0101,5.0101,5.0237,5.0302,5.0302,5.0302,5.0302,5.0302,5.0302,5.0302,5.0302,5.0302,5.0335,5.0405,5.0512,5.0657,5.0844,5.0997,5.1118,5.1199,5.1199,5.1199,5.1199,5.1199,5.1199,5.1199,5.1199,5.1199,5.1199,5.1199,5.1199,5.1335,5.196,5.2759,5.3614,5.4485,5.5359,5.6058,5.6256,5.6295,5.6307,5.63,5.6347,5.6416,5.6453,5.652,5.6584,5.6577,5.6582,5.6605,5.6605,5.6605,5.6605,5.6605,5.6593,5.6566,5.6501,5.65,5.6505,5.6499,5.6498,5.6501,5.6507,5.6507,5.6507,5.6507,5.6492,5.6493,5.6491,5.651,5.6507,5.6507,5.6507,5.6393,4.4501,4.4501,4.4583,4.4958,4.6028,4.7098,4.7481,4.857,4.9509,4.9509,4.9509,4.9509,4.9509,4.9509,4.9509,4.9509,4.9509,4.9509,4.9509,4.9509,4.9509,4.9509,4.9509,4.9509,4.9509,4.9509,4.9509,4.9509,4.9509,4.9509,4.9509,4.963,4.9728,4.9781,4.9992,5.007,4.9998,5.0114,5.0194,5.0194,5.0267,5.0302,5.0302,5.0302,5.0302,5.0302,5.0302,5.0302,5.0302,5.0302,5.0564,5.0993,5.1066,5.1178,5.1327,5.1498,5.1351,5.1121,5.1184,5.1199,5.1199,5.1199,5.1199,5.1199,5.1199,5.1455,5.1668,5.1296,5.1474,5.1843,5.229,5.3339,5.4427,5.4893,5.567,5.6295,5.6295,5.6295,5.6294,5.63,5.6354,5.6422,5.6496,5.6568,5.6605,5.6605,5.6605,5.6605,5.6605,5.6605,5.6605,5.6605,5.6605,5.6593,5.6549,5.6558,5.6523,5.6496,5.6495,5.6498,5.6503,5.6503,5.6504,5.6542,5.6513,5.6494,5.6494,5.6494,5.6494,5.6507,5.6507,5.6407,4.4501,4.4501,4.4695,4.551,4.6354,4.7218,4.8014,4.887,4.9509,4.9509,4.9509,4.9509,4.9509,4.9509,4.9509,4.9509,4.9509,4.9509,4.9509,4.9509,4.9509,4.9509,4.9509,4.9509,4.9509,4.9509,4.9509,4.9509,4.9509,4.9516,4.9528,4.9667,4.9788,4.9932,5.0063,5.0133,5.0133,5.0243,5.0302,5.0302,5.0302,5.0302,5.0302,5.0302,5.0302,5.0302,5.0302,5.0378,5.0506,5.0506,5.1063,5.1948,5.1948,5.2023,5.2154,5.2173,5.1753,5.1175,5.1205,5.1199,5.1199,5.1199,5.1199,5.1219,5.1355,5.1863,5.229,5.1746,5.2076,5.262,5.2756,5.3883,5.5026,5.5165,5.5767,5.6295,5.6295,5.6295,5.6297,5.6311,5.6361,5.6424,5.6504,5.6552,5.6605,5.6605,5.6605,5.6605,5.6605,5.6605,5.6605,5.6605,5.6605,5.6605,5.6605,5.6605,5.6587,5.6522,5.6521,5.6523,5.6519,5.6518,5.6531,5.6606,5.6523,5.6499,5.6499,5.6495,5.6499,5.6496,5.6506,5.6438,4.4501,4.4501,4.4695,4.551,4.6354,4.7218,4.8014,4.887,4.9509,4.9509,4.9509,4.9509,4.9509,4.9509,4.9509,4.9509,4.9509,4.9509,4.9509,4.9509,4.9509,4.9509,4.9509,4.9509,4.9509,4.9509,4.9509,4.9509,4.9509,4.9551,4.9648,4.9807,4.9932,5.007,5.0201,5.0273,5.0273,5.029,5.0302,5.0302,5.0302,5.0302,5.0302,5.0302,5.0302,5.0302,5.0302,5.0716,5.1404,5.1404,5.1886,5.2643,5.2643,5.2728,5.2782,5.2227,5.2026,5.1938,5.1396,5.1199,5.1199,5.1199,5.1199,5.1335,5.2018,5.229,5.2523,5.3148,5.34,5.3672,5.4407,5.4793,5.5184,5.5922,5.6194,5.6295,5.6295,5.6295,5.6309,5.638,5.6383,5.6434,5.6553,5.6583,5.6605,5.6605,5.6605,5.6605,5.6605,5.6605,5.6605,5.6605,5.6605,5.6605,5.6605,5.6605,5.6591,5.66,5.658,5.6579,5.6574,5.6574,5.6591,5.6605,5.6536,5.6503,5.6503,5.6499,5.6508,5.6504,5.6496,5.646,4.4501,4.4501,4.4808,4.6084,4.6704,4.7323,4.8607,4.9208,4.9509,4.9509,4.9509,4.9509,4.9509,4.9509,4.9509,4.9509,4.9509,4.9509,4.9509,4.9509,4.9509,4.9509,4.9509,4.9509,4.9509,4.9509,4.9509,4.9509,4.9509,4.9521,4.9578,4.9781,4.9932,4.9998,5.0194,5.0302,5.0302,5.0302,5.0302,5.0302,5.0302,5.0302,5.0302,5.0302,5.0302,5.034,5.0799,5.1232,5.1633,5.2079,5.2747,5.3492,5.3492,5.3242,5.2753,5.1689,5.1414,5.152,5.1282,5.1199,5.1199,5.1199,5.1494,5.1921,5.229,5.3067,5.3883,5.4291,5.4407,5.4485,5.4893,5.5359,5.5806,5.6194,5.6295,5.6295,5.6295,5.6303,5.6314,5.6394,5.6426,5.6496,5.658,5.6605,5.6605,5.6605,5.6605,5.6605,5.6605,5.6605,5.6605,5.6605,5.6605,5.6605,5.6605,5.6605,5.6605,5.6605,5.6605,5.6605,5.6605,5.6605,5.6605,5.6605,5.6561,5.6533,5.6502,5.6504,5.6502,5.6495,5.6506,5.6481,4.4501,4.4639,4.5146,4.6629,4.7004,4.7436,4.9114,4.9509,4.9509,4.9509,4.9509,4.9509,4.9509,4.9509,4.9509,4.9509,4.9509,4.9509,4.9509,4.9509,4.9509,4.9509,4.9509,4.9509,4.9509,4.9509,4.9509,4.9509,4.9528,4.9567,4.9585,4.9816,4.9972,4.9986,5.0182,5.0302,5.0302,5.0302,5.0302,5.0302,5.0302,5.0302,5.0302,5.0302,5.0411,5.064,5.1308,5.1824,5.2225,5.2843,5.3626,5.4409,5.4409,5.3772,5.2696,5.1424,5.0988,5.102,5.1121,5.1162,5.1238,5.1416,5.1901,5.2484,5.2892,5.3941,5.5045,5.5242,5.5301,5.5301,5.5301,5.5806,5.6295,5.6295,5.6295,5.6295,5.6295,5.6308,5.6327,5.6399,5.6459,5.6514,5.6581,5.6605,5.6605,5.6605,5.6605,5.6605,5.6605,5.6605,5.6605,5.6605,5.6605,5.6605,5.6605,5.6605,5.6605,5.6605,5.6605,5.6605,5.6605,5.6605,5.6605,5.6605,5.6605,5.6578,5.6517,5.6517,5.6521,5.6522,5.6508,5.6491,4.4501,4.5052,4.5848,4.676,4.7004,4.7436,4.9114,4.9509,4.9509,4.9509,4.9509,4.9509,4.9509,4.9509,4.9509,4.9509,4.9509,4.9509,4.9509,4.9509,4.9509,4.9509,4.9509,4.9509,4.9509,4.9509,4.9509,4.9509,4.9615,4.9743,4.9871,5.0011,5.0145,5.0273,5.029,5.0302,5.0302,5.0302,5.0302,5.0302,5.0302,5.0302,5.0302,5.0302,5.0735,5.1519,5.1576,5.2474,5.3913,5.397,5.4524,5.5301,5.5301,5.4355,5.2881,5.2029,5.1402,5.1009,5.1016,5.1105,5.1316,5.2076,5.2348,5.2698,5.433,5.489,5.5165,5.5981,5.6214,5.6214,5.6214,5.6256,5.6295,5.6295,5.6295,5.6295,5.6295,5.6308,5.6327,5.6399,5.6459,5.6514,5.6581,5.6605,5.6605,5.6605,5.6605,5.6605,5.6605,5.6605,5.6605,5.6605,5.6605,5.6605,5.6605,5.6605,5.6605,5.6605,5.6605,5.6605,5.6605,5.6605,5.6605,5.6605,5.6605,5.6606,5.659,5.659,5.6591,5.6594,5.6538,5.6503,4.4501,4.509,4.5904,4.6779,4.7387,4.8044,4.9227,4.9509,4.9509,4.9509,4.9509,4.9509,4.9509,4.9509,4.9509,4.9509,4.9509,4.9509,4.9509,4.9509,4.9509,4.9509,4.9509,4.9509,4.9509,4.9509,4.9509,4.9509,4.9623,4.9721,4.9767,4.9985,5.012,5.0176,5.0255,5.0302,5.0302,5.0302,5.0302,5.0302,5.0302,5.0302,5.0302,5.0302,5.0474,5.0812,5.1366,5.1958,5.2569,5.3091,5.3492,5.3722,5.3238,5.2669,5.2037,5.1266,5.087,5.0785,5.1498,5.1774,5.1977,5.2916,5.3572,5.4135,5.4793,5.5378,5.5883,5.6214,5.6295,5.6295,5.6295,5.6295,5.6295,5.6295,5.6295,5.6295,5.6295,5.6336,5.6368,5.6405,5.6498,5.6575,5.6604,5.6605,5.6605,5.6605,5.6605,5.6605,5.6605,5.6605,5.6605,5.6605,5.6605,5.6605,5.6605,5.6605,5.6605,5.6605,5.6605,5.6605,5.6605,5.6605,5.6605,5.6605,5.6605,5.6605,5.6605,5.6605,5.6605,5.6606,5.6535,5.6484,4.4501,4.5296,4.6261,4.6854,4.7819,4.8765,4.9358,4.9509,4.9509,4.9509,4.9509,4.9509,4.9509,4.9509,4.9509,4.9509,4.9509,4.9509,4.9509,4.9509,4.9509,4.9509,4.9509,4.9509,4.9509,4.9536,4.9567,4.9567,4.9721,4.9835,4.9835,5.0044,5.0164,5.0164,5.0255,5.0302,5.0302,5.0302,5.0302,5.0302,5.0302,5.0302,5.0302,5.0302,5.0455,5.0735,5.1347,5.1748,5.2021,5.2575,5.2811,5.2715,5.1901,5.1595,5.1517,5.0725,5.0647,5.1023,5.1846,5.2334,5.277,5.3777,5.4504,5.5045,5.534,5.5825,5.6295,5.6295,5.6295,5.6295,5.6295,5.6295,5.6295,5.6295,5.6295,5.6298,5.63,5.6349,5.6411,5.6424,5.6515,5.6605,5.6605,5.6605,5.6605,5.6605,5.6605,5.6605,5.6605,5.6605,5.6605,5.6605,5.6605,5.6605,5.6605,5.6605,5.6605,5.6605,5.6605,5.6605,5.6605,5.6605,5.6605,5.6605,5.6605,5.6605,5.6605,5.6605,5.6605,5.6606,5.6548,5.6503,4.4508,4.5728,4.7004,4.7004,4.8269,4.9509,4.9509,4.9509,4.9509,4.9509,4.9509,4.9509,4.9509,4.9509,4.9509,4.9509,4.9509,4.9509,4.9509,4.9509,4.9509,4.9509,4.949,4.949,4.949,4.9623,4.9699,4.9699,4.9945,5.0101,5.0101,5.0231,5.0302,5.0302,5.0302,5.0302,5.0302,5.0302,5.0302,5.0302,5.0302,5.0302,5.0302,5.0302,5.0774,5.1595,5.1595,5.204,5.2792,5.2792,5.2792,5.2696,5.1901,5.1595,5.1499,5.0621,5.0952,5.1834,5.1977,5.2679,5.3669,5.4679,5.5006,5.5165,5.6039,5.6295,5.6295,5.6295,5.6295,5.6295,5.6295,5.6295,5.6295,5.6295,5.6295,5.6291,5.6297,5.6354,5.642,5.6496,5.6548,5.6605,5.6605,5.6605,5.6605,5.6605,5.6605,5.6605,5.6605,5.6605,5.6605,5.6605,5.6605,5.6605,5.6605,5.6605,5.6605,5.6605,5.6605,5.6605,5.6605,5.6605,5.6605,5.6605,5.6605,5.6605,5.6605,5.6605,5.6605,5.6605,5.6605,5.6563,4.519,4.6141,4.7143,4.7706,4.8683,4.9509,4.9509,4.9509,4.9509,4.9509,4.9509,4.9509,4.9509,4.9509,4.9509,4.9509,4.9509,4.9509,4.9509,4.9509,4.9509,4.9509,4.957,4.9645,4.9645,4.9752,4.9843,4.9843,5.0005,5.0101,5.0101,5.0231,5.0302,5.0302,5.0302,5.0302,5.0302,5.0302,5.0302,5.0302,5.0302,5.0302,5.0302,5.0302,5.0436,5.0678,5.0678,5.0818,5.1047,5.1047,5.1047,5.1028,5.0779,5.106,5.1576,5.1308,5.177,5.2612,5.3351,5.3899,5.4433,5.5393,5.58,5.5961,5.6214,5.6295,5.6295,5.6295,5.6295,5.6295,5.6295,5.6295,5.6295,5.6295,5.6295,5.6291,5.6297,5.6354,5.642,5.6496,5.6548,5.6605,5.6605,5.6605,5.6605,5.6605,5.6605,5.6605,5.6605,5.6605,5.6605,5.6605,5.6605,5.6605,5.6605,5.6605,5.6605,5.6605,5.6605,5.6605,5.6605,5.6605,5.6605,5.6605,5.6605,5.6605,5.6605,5.6605,5.6605,5.6605,5.6605,5.6865,4.509,4.6084,4.7117,4.7594,4.8626,4.9509,4.9509,4.9509,4.9509,4.9509,4.9509,4.9509,4.9509,4.9509,4.9509,4.9509,4.9509,4.9509,4.9509,4.9509,4.9509,4.9509,4.9615,4.9699,4.9699,4.9871,4.9985,4.9985,5.0108,5.0182,5.0182,5.0255,5.0302,5.0302,5.0302,5.0302,5.0302,5.0302,5.0302,5.0302,5.0302,5.0302,5.0302,5.0302,5.0302,5.0302,5.0302,5.0302,5.0302,5.0302,5.0302,5.034,5.0678,5.1137,5.1633,5.1958,5.2594,5.3408,5.4067,5.4615,5.5118,5.5784,5.6091,5.6195,5.6282,5.6295,5.6295,5.6295,5.6295,5.6295,5.6295,5.6295,5.6295,5.6295,5.6294,5.6311,5.6332,5.6381,5.6462,5.6536,5.6575,5.6605,5.6605,5.6605,5.6605,5.6605,5.6605,5.6605,5.6605,5.6605,5.6605,5.6605,5.6605,5.6605,5.6605,5.6605,5.6605,5.6605,5.6605,5.6605,5.6605,5.6605,5.6605,5.6605,5.6605,5.6605,5.6605,5.6605,5.6764,5.7081,5.7081,5.751,4.4695,4.584,4.7042,4.7192,4.8363,4.9509,4.9509,4.9509,4.9509,4.9509,4.9509,4.9509,4.9509,4.9509,4.9509,4.9509,4.9509,4.9509,4.9509,4.9505,4.9513,4.9513,4.9653,4.9736,4.9736,4.9965,5.012,5.012,5.0231,5.0302,5.0302,5.0302,5.0302,5.0302,5.0302,5.0302,5.0302,5.0302,5.0302,5.0302,5.0302,5.0302,5.0302,5.0302,5.0302,5.0302,5.0302,5.0302,5.0302,5.0302,5.0359,5.0506,5.1289,5.1691,5.192,5.2652,5.3479,5.4243,5.4352,5.4938,5.5632,5.5895,5.5989,5.604,5.6242,5.6295,5.6295,5.6295,5.6295,5.6295,5.6295,5.6295,5.6295,5.6301,5.6311,5.6327,5.6399,5.6459,5.6512,5.6581,5.6605,5.6605,5.6605,5.6605,5.6605,5.6605,5.6605,5.6605,5.6605,5.6605,5.6605,5.6605,5.6605,5.6605,5.6605,5.6605,5.6605,5.6605,5.6605,5.6605,5.6605,5.6605,5.6605,5.6605,5.6605,5.6644,5.6702,5.6702,5.7138,5.7911,5.7911,5.8384,4.6103,4.6723,4.7323,4.8619,4.9227,4.9509,4.9509,4.9509,4.9509,4.9509,4.9509,4.9509,4.9509,4.9509,4.9509,4.9509,4.9509,4.9509,4.9509,4.9585,4.9667,4.9667,4.9864,5.0011,5.0011,5.0164,5.0261,5.0261,5.0284,5.0302,5.0302,5.0302,5.0302,5.0302,5.0302,5.0302,5.0302,5.0302,5.0302,5.0302,5.0302,5.0302,5.0302,5.0302,5.0302,5.0302,5.0302,5.0302,5.0302,5.0302,5.0703,5.1347,5.1538,5.2397,5.3588,5.376,5.4371,5.5123,5.5141,5.5359,5.5635,5.5779,5.5913,5.604,5.6242,5.6295,5.6295,5.6295,5.6295,5.6295,5.6295,5.6295,5.6307,5.63,5.63,5.6327,5.6399,5.6459,5.6512,5.6581,5.6605,5.6605,5.6605,5.6605,5.6605,5.6605,5.6605,5.6605,5.6605,5.6605,5.6605,5.6605,5.6605,5.6605,5.6605,5.6605,5.6605,5.6605,5.6605,5.6605,5.6605,5.6605,5.6605,5.6605,5.6605,5.6918,5.7543,5.7543,5.7979,5.8828,5.8828,5.9285,4.6047,4.6685,4.7398,4.9077,4.9509,4.9509,4.9509,4.9509,4.9509,4.9509,4.9509,4.9509,4.9509,4.9509,4.9509,4.9509,4.9509,4.9509,4.9509,4.9615,4.9699,4.9699,4.9939,5.0101,5.0101,5.0225,5.0302,5.0302,5.0302,5.0302,5.0302,5.0302,5.0302,5.0302,5.0302,5.0302,5.0302,5.0302,5.0302,5.0302,5.0302,5.0302,5.0302,5.0302,5.0302,5.0302,5.0302,5.0302,5.0302,5.0302,5.0812,5.1633,5.2021,5.2957,5.4142,5.4581,5.5014,5.5396,5.5396,5.5447,5.5531,5.5659,5.5784,5.593,5.6118,5.6213,5.6295,5.6295,5.6295,5.6295,5.6295,5.6297,5.6291,5.6303,5.6312,5.6363,5.6428,5.6504,5.657,5.6583,5.6605,5.6605,5.6605,5.6605,5.6605,5.6605,5.6605,5.6605,5.6605,5.6605,5.6605,5.6605,5.6605,5.6605,5.6605,5.6605,5.6605,5.6605,5.6605,5.6605,5.6605,5.6605,5.6605,5.6605,5.6977,5.7387,5.7798,5.8226,5.888,5.9713,5.9713,6.0189,4.566,4.6655,4.7755,4.9152,4.9509,4.9509,4.9509,4.9509,4.9509,4.9509,4.9509,4.9509,4.9509,4.9509,4.9509,4.9509,4.9509,4.9509,4.9509,4.9638,4.9736,4.9736,4.9972,5.0139,5.0139,5.0237,5.0302,5.0302,5.0302,5.0302,5.0302,5.0302,5.0302,5.0302,5.0302,5.0302,5.0302,5.0302,5.0302,5.0302,5.0302,5.0302,5.0302,5.0302,5.0302,5.0302,5.0302,5.0302,5.0302,5.0449,5.1028,5.1882,5.2709,5.355,5.4409,5.5129,5.5396,5.5396,5.5396,5.5396,5.5416,5.5552,5.5681,5.5789,5.5952,5.6109,5.6268,5.6288,5.6301,5.6291,5.6291,5.63,5.6327,5.6337,5.637,5.6428,5.6496,5.6548,5.6605,5.6605,5.6605,5.6605,5.6605,5.6605,5.6605,5.6605,5.6605,5.6605,5.6605,5.6605,5.6605,5.6605,5.6605,5.6605,5.6605,5.6605,5.6605,5.6605,5.6605,5.6605,5.6605,5.6722,5.68,5.68,5.7465,5.7954,5.8247,5.8968,5.978,6.0616,6.0616,6.1012,4.6404,4.7962,4.9227,4.9434,4.9509,4.9509,4.9509,4.9509,4.9509,4.9509,4.9509,4.9509,4.9509,4.9509,4.9509,4.9509,4.9509,4.9509,4.9509,4.9714,4.9878,4.9878,5.0101,5.0273,5.0273,5.029,5.0302,5.0302,5.0302,5.0302,5.0302,5.0302,5.0302,5.0302,5.0302,5.0302,5.0302,5.0302,5.0302,5.0302,5.0302,5.0302,5.0302,5.0302,5.0302,5.0302,5.0302,5.0302,5.0359,5.1117,5.1907,5.2734,5.3588,5.4467,5.5244,5.5358,5.5396,5.5396,5.5396,5.5396,5.5416,5.5552,5.5613,5.5675,5.5922,5.6028,5.6087,5.6246,5.6296,5.6297,5.6297,5.6342,5.6407,5.6461,5.6473,5.6498,5.6501,5.6548,5.6605,5.6605,5.6605,5.6605,5.6605,5.6605,5.6605,5.6605,5.6605,5.6605,5.6605,5.6605,5.6605,5.6605,5.6605,5.6605,5.6605,5.6605,5.6605,5.6605,5.6605,5.6605,5.6605,5.727,5.7641,5.7641,5.7759,5.8538,6.0041,6.0178,6.0678,6.1533,6.1533,6.1597,4.6535,4.8232,4.9509,4.9509,4.9509,4.9509,4.9509,4.9509,4.9509,4.9509,4.9509,4.9509,4.9509,4.9509,4.9509,4.9509,4.9509,4.9509,4.9509,4.9736,4.9905,4.9905,5.0145,5.0302,5.0302,5.0302,5.0302,5.0302,5.0302,5.0302,5.0302,5.0302,5.0302,5.0302,5.0302,5.0302,5.0302,5.0302,5.0302,5.0302,5.0302,5.0302,5.0302,5.0302,5.0302,5.0302,5.0302,5.0302,5.0378,5.1232,5.2079,5.2887,5.376,5.4639,5.5396,5.5396,5.5396,5.5396,5.5396,5.5396,5.5416,5.5465,5.5548,5.5646,5.5822,5.5977,5.6093,5.6242,5.6333,5.6356,5.6356,5.6409,5.6464,5.6499,5.6536,5.6568,5.6568,5.6577,5.6605,5.6605,5.6605,5.6605,5.6605,5.6605,5.6605,5.6605,5.6605,5.6605,5.6605,5.6605,5.6605,5.6605,5.6605,5.6605,5.6605,5.6605,5.6605,5.6605,5.6605,5.68,5.725,5.7601,5.8266,5.9241,5.9261,5.9631,6.0393,6.0887,6.1327,6.1709,6.1693,6.1697,4.6706,4.8255,4.9509,4.9509,4.9509,4.9509,4.9509,4.9509,4.9509,4.9509,4.9509,4.9509,4.9509,4.9509,4.9509,4.9509,4.9528,4.9551,4.9551,4.9785,4.9959,4.9959,5.0164,5.0302,5.0302,5.0302,5.0302,5.0302,5.0302,5.0302,5.0302,5.0302,5.0302,5.0302,5.0302,5.0302,5.0302,5.0302,5.0302,5.0302,5.0302,5.0302,5.0302,5.0302,5.0302,5.0302,5.0302,5.0302,5.0378,5.1467,5.227,5.2906,5.4008,5.483,5.5396,5.5396,5.5396,5.5396,5.5396,5.5396,5.5396,5.5396,5.5465,5.5581,5.5738,5.5898,5.6084,5.6238,5.6349,5.6424,5.6424,5.6471,5.6535,5.6535,5.6552,5.6605,5.6605,5.6605,5.6605,5.6605,5.6605,5.6605,5.6605,5.6605,5.6605,5.6605,5.6605,5.6605,5.6605,5.6605,5.6605,5.6605,5.6605,5.6605,5.6605,5.6605,5.6605,5.6605,5.6781,5.7172,5.7778,5.8227,5.9065,6.0373,6.0627,6.0725,6.0725,6.138,6.1702,6.1709,6.1695,6.1698,4.7181,4.8317,4.9509,4.9509,4.9509,4.9509,4.9509,4.9509,4.9509,4.9509,4.9509,4.9509,4.9509,4.9509,4.9509,4.9509,4.96,4.9685,4.9685,4.9918,5.0089,5.0089,5.0219,5.0302,5.0302,5.0302,5.0302,5.0302,5.0302,5.0302,5.0302,5.0302,5.0302,5.0302,5.0302,5.0302,5.0302,5.0302,5.0302,5.0302,5.0302,5.0302,5.0302,5.0302,5.0302,5.0302,5.0302,5.0302,5.0436,5.2066,5.2753,5.2964,5.4677,5.5358,5.5396,5.5396,5.5396,5.5396,5.5396,5.5396,5.5396,5.5396,5.5403,5.5447,5.5643,5.5808,5.5957,5.6142,5.6344,5.648,5.648,5.6543,5.6584,5.6584,5.6604,5.6605,5.6605,5.6605,5.6605,5.6605,5.6605,5.6605,5.6605,5.6605,5.6605,5.6605,5.6605,5.6605,5.6605,5.6605,5.6605,5.6605,5.6605,5.6605,5.6605,5.6605,5.6605,5.6605,5.7328,5.7759,5.7798,5.9397,6.0315,6.0393,6.1211,6.1621,6.1621,6.1673,6.1702,6.1709,6.1695,6.1698,4.7885,4.8834,4.9714,4.9544,4.9567,4.96,4.9513,4.9509,4.9509,4.9509,4.9509,4.9509,4.9509,4.9509,4.9528,4.9608,4.9675,4.9736,4.9816,4.9992,5.0101,5.0101,5.0219,5.0302,5.0302,5.0302,5.0302,5.0302,5.0302,5.0302,5.0302,5.0302,5.0302,5.0302,5.0302,5.0302,5.0302,5.0302,5.0302,5.0302,5.0302,5.0302,5.0302,5.0302,5.0302,5.0302,5.0302,5.0302,5.0436,5.2104,5.2811,5.2964,5.4715,5.5396,5.5396,5.5396,5.5396,5.5396,5.5396,5.5396,5.5396,5.5396,5.5409,5.5446,5.5643,5.576,5.5889,5.6184,5.633,5.6402,5.6524,5.6579,5.6605,5.6605,5.6605,5.6605,5.6605,5.6605,5.6605,5.6605,5.6605,5.6605,5.6605,5.6605,5.6605,5.6605,5.6605,5.6605,5.6605,5.6605,5.6605,5.6605,5.6605,5.6605,5.6605,5.6605,5.6605,5.6605,5.7367,5.805,5.8616,5.9768,6.0666,6.1211,6.1532,6.1692,6.1692,6.1702,6.1709,6.1695,6.1698,6.1699,4.8356,4.9201,4.985,4.9623,4.9675,4.9721,4.9536,4.9536,4.9574,4.9574,4.9574,4.9574,4.9574,4.96,4.9638,4.9638,4.9707,4.9795,4.9891,5.0044,5.017,5.017,5.0249,5.0302,5.0302,5.0302,5.0302,5.0302,5.0302,5.0302,5.0302,5.0302,5.0302,5.0302,5.0302,5.0302,5.0302,5.0302,5.0302,5.0302,5.0302,5.0302,5.0302,5.0302,5.0302,5.0302,5.0302,5.0302,5.0436,5.2104,5.2811,5.2964,5.4715,5.5396,5.5396,5.5396,5.5396,5.5396,5.5396,5.5396,5.5403,5.5403,5.5403,5.5438,5.5607,5.573,5.5853,5.6146,5.6278,5.635,5.6553,5.6605,5.6605,5.6605,5.6605,5.6605,5.6605,5.6605,5.6605,5.6605,5.6605,5.6605,5.6605,5.6605,5.6605,5.6605,5.6605,5.6605,5.6605,5.6605,5.6605,5.6605,5.6605,5.6605,5.6605,5.6605,5.6722,5.6996,5.7777,5.8636,5.9494,6.0373,6.1114,6.1699,6.1692,6.1699,6.1702,6.1709,6.1694,6.1697,6.1699,6.1699,0.0,0.0,0.0,4.9743,4.9802,4.9836,4.9574,4.9608,4.9707,4.9707,4.9707,4.9707,4.9707,4.9809,4.9816,4.9551,4.9736,4.9918,4.9899,5.0145,5.0302,5.0302,5.0302,5.0302,5.0302,5.0302,5.0302,5.0302,5.0302,5.0302,5.0302,5.0302,5.0302,5.0302,5.0302,5.0302,5.0302,5.0302,5.0302,5.0302,5.0302,5.0302,5.0302,5.0302,5.0302,5.0302,5.0302,5.0302,5.0436,5.2104,5.2811,5.2964,5.4715,5.5396,5.5396,5.5396,5.5396,5.5396,5.5396,5.5396,5.539,5.5402,5.5402,5.5432,5.5562,5.5699,5.5836,5.604,5.6186,5.6346,5.6553,5.6605,5.6605,5.6605,5.6605,5.6605,5.6605,5.6605,5.6605,5.6605,5.6605,5.6605,5.6605,5.6605,5.6605,5.6605,5.6605,5.6605,5.6605,5.6605,5.6605,5.6605,5.6605,5.6605,5.6605,5.6605,5.6938,5.7759,5.8616,5.9494,6.0354,6.1231,6.1699,6.1699,6.1693,6.1702,6.1709,6.1695,6.1697,6.1697,6.1699,6.1699,4.9555,0.0,0.0,0.0,0.0,0.0,4.9823,4.9816,4.9843,4.9843,4.9843,4.9843,4.9843,4.9859,4.9878,4.9795,4.9932,5.0082,5.0182,5.0255,5.0302,5.0302,5.0302,5.0302,5.0302,5.0302,5.0302,5.0302,5.0302,5.0302,5.0302,5.0302,5.0302,5.0302,5.0302,5.0302,5.0302,5.0302,5.0302,5.0302,5.0302,5.0302,5.0302,5.0302,5.0302,5.0302,5.0302,5.0302,5.0436,5.2104,5.2811,5.2964,5.4715,5.5396,5.5396,5.5396,5.5396,5.5396,5.5396,5.5396,5.539,5.5402,5.5432,5.5492,5.5573,5.5654,5.5764,5.5913,5.6044,5.6219,5.6523,5.6605,5.6605,5.6605,5.6605,5.6605,5.6605,5.6605,5.6605,5.6605,5.6605,5.6605,5.6605,5.6605,5.6605,5.6605,5.6605,5.6605,5.6605,5.6605,5.6605,5.6605,5.6605,5.6605,5.6605,5.6605,5.6938,5.7759,5.8616,5.9494,6.0354,6.1231,6.1699,6.1699,6.1698,6.1707,6.1709,6.1695,6.1698,6.1699,6.1699,6.1699,0.0,5.0243,5.0255,5.0044,0.0,0.0,4.9933,4.9933,4.9992,4.9992,4.9992,4.9992,4.9992,5.0037,5.0044,4.9998,5.0101,5.0194,5.0213,5.0267,5.0302,5.0302,5.0302,5.0302,5.0302,5.0302,5.0302,5.0302,5.0302,5.0302,5.0302,5.0302,5.0302,5.0302,5.0302,5.0302,5.0302,5.0302,5.0302,5.0302,5.0302,5.0302,5.0302,5.0302,5.0302,5.0302,5.0302,5.0302,5.0397,5.1754,5.2499,5.2944,5.4314,5.5072,5.5396,5.5396,5.5396,5.5396,5.5396,5.5396,5.539,5.542,5.5492,5.5556,5.5618,5.5682,5.5731,5.5858,5.6045,5.6229,5.6415,5.6531,5.6605,5.6605,5.6605,5.6605,5.6605,5.6605,5.6605,5.6605,5.6605,5.6605,5.6605,5.6605,5.6605,5.6605,5.6605,5.6605,5.6605,5.6605,5.6605,5.6605,5.6605,5.6605,5.6605,5.6605,5.7093,5.8265,5.8811,5.965,6.0881,6.1426,6.1702,6.1707,6.1703,6.1692,6.1696,6.1698,6.1699,6.1699,6.1699,6.1699,0.0,0.0,0.0,5.0151,5.0213,0.0,4.9992,5.0044,5.012,5.012,5.012,5.012,5.012,5.0225,5.0261,5.0145,5.0225,5.0261,5.0139,5.0225,5.0302,5.0302,5.0302,5.0302,5.0302,5.0302,5.0302,5.0302,5.0302,5.0302,5.0302,5.0302,5.0302,5.0302,5.0302,5.0302,5.0302,5.0302,5.0302,5.0302,5.0302,5.0302,5.0302,5.0302,5.0302,5.0302,5.0302,5.0302,5.0359,5.1137,5.1983,5.2887,5.376,5.4639,5.5396,5.5403,5.539,5.539,5.5416,5.5403,5.5426,5.5492,5.5551,5.5607,5.5687,5.5708,5.5731,5.5858,5.6068,5.6264,5.6286,5.6421,5.658,5.6584,5.6605,5.6605,5.6605,5.6605,5.6605,5.6605,5.6605,5.6605,5.6605,5.6605,5.6605,5.6605,5.6605,5.6605,5.6605,5.6605,5.6605,5.6605,5.6605,5.6605,5.6605,5.6605,5.7327,5.8986,5.9103,5.9884,6.1621,6.1699,6.1705,6.1697,6.1707,6.1695,6.1699,6.1699,6.1699,6.1699,6.1699,6.1699,5.0264,5.0302,5.0296,5.0267,5.0278,0.0,5.0237,5.0249,5.0261,5.0261,5.0261,5.0261,5.0261,5.0284,5.029,5.0267,5.0284,5.029,5.0267,5.0284,5.0302,5.0302,5.0302,5.0302,5.0302,5.0302,5.0302,5.0302,5.0302,5.0302,5.0302,5.0302,5.0302,5.0302,5.0302,5.0302,5.0302,5.0302,5.0302,5.0302,5.0302,5.0302,5.0302,5.0302,5.0302,5.0302,5.0302,5.0302,5.0302,5.0474,5.1448,5.2887,5.376,5.4639,5.5403,5.5403,5.5402,5.5408,5.5463,5.5474,5.5492,5.5556,5.559,5.5607,5.5687,5.5708,5.5731,5.5858,5.5942,5.6035,5.6249,5.6322,5.6409,5.6557,5.6605,5.6605,5.6605,5.6605,5.6605,5.6605,5.6605,5.6605,5.6605,5.6605,5.6605,5.6605,5.6605,5.6605,5.6605,5.6605,5.6605,5.6605,5.6605,5.6605,5.6605,5.6605,5.7327,5.8986,5.9103,5.9884,6.1621,6.1699,6.1705,6.1697,6.1692,6.1698,6.1699,6.1699,6.1699,6.1699,6.1699,6.1699,5.0302,5.0302,5.0302,5.0302,5.0302,0.0,0.0,5.0302,5.0302,5.0302,5.0302,5.0302,5.0302,5.0302,5.0302,5.0302,5.0302,5.0302,5.0302,5.0302,5.0302,5.0302,5.0302,5.0302,5.0302,5.0302,5.0302,5.0302,5.0302,5.0302,5.0302,5.0302,5.0302,5.0302,5.0302,5.0302,5.0302,5.0302,5.0302,5.0302,5.0302,5.0302,5.0302,5.0302,5.0302,5.0302,5.0302,5.0302,5.0302,5.035,5.1094,5.2337,5.3142,5.3995,5.4848,5.5255,5.5426,5.5456,5.5492,5.5522,5.5556,5.559,5.5618,5.5665,5.5698,5.5708,5.571,5.5779,5.5859,5.5954,5.6146,5.6254,5.6352,5.6554,5.6605,5.6605,5.6605,5.6605,5.6605,5.6605,5.6605,5.6605,5.6605,5.6605,5.6605,5.6605,5.6605,5.6605,5.6605,5.6605,5.6605,5.6605,5.6605,5.6605,5.6605,5.6605,5.7327,5.8986,5.9103,5.9884,6.1621,6.1705,6.1697,6.1709,6.1697,6.1699,6.1699,6.1699,6.1699,6.1699,6.1699,6.1699,5.0302,5.0302,5.0302,5.0302,5.0302,5.0302,0.0,0.0,0.0,5.0302,5.0302,5.0302,5.0302,5.0302,5.0245,5.0092,5.0206,5.0245,5.0092,5.0206,5.0302,5.0302,5.0302,5.0302,5.0302,5.0302,5.0302,5.0302,5.0302,5.0302,5.0302,5.0302,5.0302,5.0302,5.0302,5.0302,5.0302,5.0302,5.0302,5.0302,5.0302,5.0302,5.0302,5.0302,5.0302,5.0302,5.0302,5.0308,5.0319,5.0384,5.0814,5.1559,5.2482,5.3393,5.4322,5.5132,5.5474,5.5522,5.5533,5.5573,5.5613,5.5613,5.5665,5.5708,5.5708,5.5708,5.5708,5.5708,5.5774,5.5911,5.605,5.6175,5.631,5.6552,5.6605,5.6605,5.6605,5.6605,5.6605,5.6605,5.6605,5.6605,5.6605,5.6605,5.6605,5.6605,5.6605,5.6605,5.6605,5.6605,5.6605,5.6605,5.6605,5.6605,5.6605,5.6605,5.7327,5.8986,5.9103,5.9885,6.1625,6.1697,6.1709,6.1697,6.1699,6.1699,6.1699,6.1699,6.1699,6.1699,6.1699,6.1699,5.0302,5.0302,5.0302,5.0302,5.0302,5.0302,5.0302,0.0,5.0302,5.0302,0.0,5.0302,5.0302,0.0,0.0,4.9352,4.9824,5.0054,4.9333,4.9843,5.0302,5.0302,5.0302,5.0302,5.0302,5.0302,5.0302,5.0302,5.0302,5.0302,5.0302,5.0302,5.0302,5.0302,5.0302,5.0302,5.0302,5.0302,5.0302,5.0302,5.0302,5.0302,5.0302,5.0302,5.0302,5.0302,5.0302,5.0325,5.0396,5.0401,5.0498,5.0801,5.2362,5.3512,5.438,5.5268,5.5579,5.5596,5.5665,5.5673,5.5698,5.5698,5.5684,5.5708,5.5708,5.5708,5.5708,5.5708,5.5705,5.5779,5.6026,5.611,5.62,5.6523,5.6605,5.6605,5.6605,5.6605,5.6605,5.6605,5.6605,5.6605,5.6605,5.6605,5.6605,5.6605,5.6605,5.6605,5.6605,5.6605,5.6605,5.6605,5.6605,5.6605,5.6605,5.6605,5.7327,5.8986,5.9103,5.989,6.1637,6.1691,6.1696,6.1697,6.1699,6.1699,6.1699,6.1699,6.1699,6.1699,6.1699,6.1699,5.0302,5.0302,5.0302,5.0302,5.0302,5.0302,5.0302,5.0302,5.0302,5.0302,0.0,0.0,0.0,0.0,0.0,0.0,5.0073,5.0187,4.9843,5.0092,5.0302,5.0302,5.0302,5.0302,5.0302,5.0302,5.0302,5.0302,5.0302,5.0302,5.0302,5.0302,5.0302,5.0302,5.0302,5.0302,5.0302,5.0302,5.0302,5.0302,5.0302,5.0302,5.0302,5.0302,5.0302,5.0302,5.0337,5.0365,5.0412,5.0478,5.0521,5.0687,5.1884,5.2878,5.372,5.4586,5.5215,5.5651,5.5698,5.5708,5.5708,5.5708,5.5708,5.5708,5.5708,5.5708,5.5708,5.5708,5.5708,5.5738,5.5938,5.6033,5.6163,5.6373,5.6525,5.6605,5.6605,5.6605,5.6605,5.6605,5.6605,5.6605,5.6605,5.6605,5.6605,5.6605,5.6605,5.6605,5.6605,5.6605,5.6605,5.6605,5.6605,5.6605,5.6605,5.6605,5.7327,5.8986,6.0047,6.0937,6.1672,6.1695,6.1698,6.1699,6.1699,6.1699,6.1699,6.1699,6.1699,6.1699,6.1699,6.1699,5.0302,5.0302,5.0302,5.0302,5.0302,5.0302,5.0302,5.0302,5.0302,5.0302,5.0302,0.0,0.0,0.0,5.0225,5.0015,0.0,5.0225,4.9996,5.0168,5.0302,5.0302,5.0302,5.0302,5.0302,5.0302,5.0302,5.0302,5.0302,5.0302,5.0302,5.0302,5.0302,5.0302,5.0302,5.0302,5.0302,5.0302,5.0302,5.0302,5.0302,5.0302,5.0302,5.0302,5.0302,5.0302,5.0379,5.0412,5.044,5.0562,5.0608,5.0686,5.1317,5.2062,5.2915,5.4024,5.4819,5.5401,5.5612,5.5708,5.5708,5.5708,5.5708,5.5708,5.5708,5.5708,5.5708,5.5708,5.5708,5.5737,5.5863,5.5967,5.6084,5.6261,5.6413,5.6529,5.6583,5.6605,5.6605,5.6605,5.6605,5.6605,5.6605,5.6605,5.6605,5.6605,5.6605,5.6605,5.6605,5.6605,5.6605,5.6605,5.6605,5.6605,5.6605,5.6605,5.7329,5.8992,6.074,6.1707,6.1697,6.1698,6.1699,6.1699,6.1699,6.1699,6.1699,6.1699,6.1699,6.1699,6.1699,6.1699,5.0302,5.0302,5.0302,5.0302,5.0302,5.0302,5.0302,5.0302,5.0302,5.0302,5.0302,5.0302,5.0302,5.0302,0.0,0.0,4.9786,0.0,0.0,4.9805,5.0302,5.0302,5.0302,5.0302,5.0302,5.0302,5.0302,5.0302,5.0302,5.0302,5.0302,5.0302,5.0302,5.0302,5.0302,5.0302,5.0302,5.0302,5.0302,5.0302,5.0302,5.0302,5.0302,5.0302,5.0302,5.0302,5.0379,5.044,5.0505,5.0577,5.0633,5.0707,5.0726,5.1221,5.2154,5.3851,5.4511,5.4645,5.5439,5.5708,5.5708,5.5708,5.5708,5.5708,5.5708,5.5708,5.5708,5.5708,5.5708,5.5737,5.5863,5.5896,5.5967,5.6244,5.6292,5.6356,5.6557,5.6605,5.6605,5.6605,5.6605,5.6605,5.6605,5.6605,5.6605,5.6605,5.6605,5.6605,5.6605,5.6605,5.6605,5.6605,5.6605,5.6605,5.6605,5.6605,5.7313,5.8984,6.0749,6.1692,6.1697,6.1699,6.1699,6.1699,6.1699,6.1699,6.1699,6.1699,6.1699,6.1699,6.1699,6.1699,5.0302,5.0302,5.0302,5.0302,5.0302,5.0302,5.0302,5.0302,5.0302,5.0302,5.0302,5.0302,5.0302,5.0302,0.0,0.0,0.0,5.0206,0.0,5.013,5.0302,5.0302,5.0302,5.0302,5.0302,5.0302,5.0302,5.0302,5.0302,5.0302,5.0302,5.0302,5.0302,5.0302,5.0302,5.0302,5.0302,5.0302,5.0302,5.0302,5.0302,5.0302,5.0302,5.0302,5.0319,5.0379,5.0446,5.05,5.0577,5.0638,5.0673,5.0707,5.0707,5.0861,5.1318,5.301,5.3991,5.4626,5.542,5.5708,5.5708,5.5708,5.5708,5.5708,5.5708,5.5708,5.5708,5.5708,5.5708,5.5705,5.5758,5.5836,5.595,5.6122,5.6242,5.6354,5.6555,5.6605,5.6605,5.6605,5.6605,5.6605,5.6605,5.6605,5.6605,5.6605,5.6605,5.6605,5.6605,5.6605,5.6605,5.6605,5.6605,5.6605,5.6605,5.762,5.8507,5.907,6.0732,6.1694,6.1699,6.1699,6.1699,6.1699,6.1699,6.1699,6.1699,6.1699,6.1699,6.1699,6.1699,6.1699,5.0278,5.0302,5.0302,5.0302,5.0302,5.0302,5.0302,5.0302,5.0302,5.0302,5.0302,5.0302,5.0302,5.0302,5.0302,0.0,0.0,0.0,0.0,5.0302,5.0302,5.0302,5.0302,5.0302,5.0302,5.0302,5.0302,5.0302,5.0302,5.0302,5.0302,5.0302,5.0302,5.0302,5.0302,5.0302,5.0302,5.0302,5.0302,5.0302,5.0302,5.0302,5.0302,5.0302,5.0319,5.0379,5.0468,5.0521,5.0577,5.0658,5.0707,5.0707,5.0707,5.0707,5.0861,5.2241,5.3491,5.4626,5.542,5.5708,5.5708,5.5708,5.5708,5.5708,5.5708,5.5708,5.5651,5.5343,5.5478,5.5631,5.5343,5.5561,5.5876,5.605,5.6161,5.6294,5.6552,5.6605,5.6605,5.6605,5.6605,5.6605,5.6605,5.6605,5.6605,5.6605,5.6605,5.6605,5.6605,5.6605,5.6605,5.6605,5.6605,5.6605,5.6605,5.7858,5.8766,5.9073,6.0442,6.1383,6.1699,6.1699,6.1543,6.123,6.1543,6.1543,6.123,6.1543,6.1699,6.1699,6.1699,6.1699]}]]